[[{"header":{"parameterUnit":"m.s-1","parameterCategory":1,"la1":30.6,"la2":28.766,"lo1":-90.7593,"lo2":-88.6598,"dy":0.0162,"dx":0.0183,"nx":116,"ny":114,"refTime":"2023-07-20T00:00:00:Z","depth":0,"parameterNumber":2,"parameterNumberName":"U-component_of_WINDS"},"data":[0.0,0.0,0.0,0.0,0.0,0.0,0.0,0.0,0.0,0.0,0.0,0.0,0.0,0.0,0.0,0.0,0.0,0.0,0.0,0.0,0.0,0.0,0.0,0.0,0.0,0.0,0.0,0.0,0.0,0.0,0.0,0.0,0.0,0.0,0.0,0.0,0.0,0.0,0.0,0.0,0.0,0.0,0.0,0.0,0.0,0.0,0.0,0.0,0.0,0.0,0.0,0.0,0.0,0.0,0.0,0.0,0.0,0.0,0.0,0.0,0.0,0.0,0.0,0.0,0.0,0.0,0.0,0.0,0.0,0.0,0.0,0.0,0.0,0.0,0.0,0.0,0.0,0.0,0.0,0.0,0.0,0.0,0.0,0.0,0.0,0.0,0.0,0.0,0.0,0.0,0.0,0.0,0.0,0.0,0.0,0.0,0.0,0.0,0.0,0.0,0.0,0.0,0.0,0.0,0.0,0.0,0.0,0.0,0.0,0.0,0.0,0.0,0.0,0.0,0.0,0.0,0.0,0.0,0.0,0.0,0.0,0.0,0.0,0.0,0.0,0.0,0.0,0.0,0.0,0.0,0.0,0.0,0.0,0.0,0.0,0.0,0.0,0.0,0.0,0.0,0.0,0.0,0.0,0.0,0.0,0.0,0.0,0.0,0.0,0.0,0.0,0.0,0.0,0.0,0.0,0.0,0.0,0.0,0.0,0.0,0.0,0.0,0.0,0.0,0.0,0.0,0.0,0.0,0.0,0.0,0.0,0.0,0.0,0.0,0.0,0.0,0.0,0.0,0.0,0.0,0.0,0.0,0.0,0.0,0.0,0.0,0.0,0.0,0.0,0.0,0.0,0.0,0.0,0.0,0.0,0.0,0.0,0.0,0.0,0.0,0.0,0.0,0.0,0.0,0.0,0.0,0.0,0.0,0.0,0.0,0.0,0.0,0.0,0.0,0.0,0.0,0.0,0.0,0.0,0.0,0.0,0.0,0.0,0.0,0.0,0.0,0.0,0.0,0.0,0.0,0.0,0.0,0.0,0.0,0.0,0.0,0.0,0.0,0.0,0.0,0.0,0.0,0.0,0.0,0.0,0.0,0.0,0.0,0.0,0.0,0.0,0.0,0.0,0.0,0.0,0.0,0.0,0.0,0.0,0.0,0.0,0.0,0.0,0.0,0.0,0.0,0.0,0.0,0.0,0.0,0.0,0.0,0.0,0.0,0.0,0.0,0.0,0.0,0.0,0.0,0.0,0.0,0.0,0.0,0.0,0.0,0.0,0.0,0.0,0.0,0.0,0.0,0.0,0.0,0.0,0.0,0.0,0.0,0.0,0.0,0.0,0.0,0.0,0.0,0.0,0.0,0.0,0.0,0.0,0.0,0.0,0.0,0.0,0.0,0.0,0.0,0.0,0.0,0.0,0.0,0.0,0.0,0.0,0.0,0.0,0.0,0.0,0.0,0.0,0.0,0.0,0.0,0.0,0.0,0.0,0.0,0.0,0.0,0.0,0.0,0.0,0.0,0.0,0.0,0.0,0.0,0.0,0.0,0.0,0.0,0.0,0.0,0.0,0.0,0.0,0.0,0.0,0.0,0.0,0.0,0.0,0.0,0.0,0.0,0.0,0.0,0.0,0.0,0.0,0.0,0.0,0.0,0.0,0.0,0.0,0.0,0.0,0.0,0.0,0.0,0.0,0.0,0.0,0.0,0.0,0.0,0.0,0.0,0.0,0.0,0.0,0.0,0.0,0.0,0.0,0.0,0.0,0.0,0.0,0.0,0.0,0.0,0.0,0.0,0.0,0.0,0.0,0.0,0.0,0.0,0.0,0.0,0.0,0.0,0.0,0.0,0.0,0.0,0.0,0.0,0.0,0.0,0.0,0.0,0.0,0.0,0.0,0.0,0.0,0.0,0.0,0.0,0.0,0.0,0.0,0.0,0.0,0.0,0.0,0.0,0.0,0.0,0.0,0.0,0.0,0.0,0.0,0.0,0.0,0.0,0.0,0.0,0.0,0.0,0.0,0.0,0.0,0.0,0.0,0.0,0.0,0.0,0.0,0.0,0.0,0.0,0.0,0.0,0.0,0.0,0.0,0.0,0.0,0.0,0.0,0.0,0.0,0.0,0.0,0.0,0.0,0.0,0.0,0.0,0.0,0.0,0.0,0.0,0.0,0.0,0.0,0.0,0.0,0.0,0.0,0.0,0.0,0.0,0.0,0.0,0.0,0.0,0.0,0.0,0.0,0.0,0.0,0.0,0.0,0.0,0.0,0.0,0.0,0.0,0.0,0.0,0.0,0.0,0.0,0.0,0.0,0.0,0.0,0.0,0.0,0.0,0.0,0.0,0.0,0.0,0.0,0.0,0.0,0.0,0.0,0.0,0.0,0.0,0.0,0.0,0.0,0.0,0.0,0.0,0.0,0.0,0.0,0.0,0.0,0.0,0.0,0.0,0.0,0.0,0.0,0.0,0.0,0.0,0.0,0.0,0.0,0.0,0.0,0.0,0.0,0.0,0.0,0.0,0.0,0.0,0.0,0.0,0.0,0.0,0.0,0.0,0.0,0.0,0.0,0.0,0.0,0.0,0.0,0.0,0.0,0.0,0.0,0.0,0.0,0.0,0.0,0.0,0.0,0.0,0.0,0.0,0.0,0.0,0.0,0.0,0.0,0.0,0.0,0.0,0.0,0.0,0.0,0.0,0.0,0.0,0.0,0.0,0.0,0.0,0.0,0.0,0.0,0.0,0.0,0.0,0.0,0.0,0.0,0.0,0.0,0.0,0.0,0.0,0.0,0.0,0.0,0.0,0.0,0.0,0.0,0.0,0.0,0.0,0.0,0.0,0.0,0.0,0.0,0.0,0.0,0.0,0.0,0.0,0.0,0.0,0.0,0.0,0.0,0.0,0.0,0.0,0.0,0.0,0.0,0.0,0.0,0.0,0.0,0.0,0.0,0.0,0.0,0.0,0.0,0.0,0.0,0.0,0.0,0.0,0.0,0.0,0.0,0.0,0.0,0.0,0.0,0.0,0.0,0.0,0.0,0.0,0.0,0.0,0.0,0.0,0.0,0.0,0.0,0.0,0.0,0.0,0.0,0.0,0.0,0.0,0.0,0.0,0.0,0.0,0.0,0.0,0.0,0.0,0.0,0.0,0.0,0.0,0.0,0.0,0.0,0.0,0.0,0.0,0.0,0.0,0.0,0.0,0.0,0.0,0.0,0.0,0.0,0.0,0.0,0.0,0.0,0.0,0.0,0.0,0.0,0.0,0.0,0.0,0.0,0.0,0.0,0.0,0.0,0.0,0.0,0.0,0.0,0.0,0.0,0.0,0.0,0.0,0.0,0.0,0.0,0.0,0.0,0.0,0.0,0.0,0.0,0.0,0.0,0.0,0.0,0.0,0.0,0.0,0.0,0.0,0.0,0.0,0.0,0.0,0.0,0.0,0.0,0.0,0.0,0.0,0.0,0.0,0.0,0.0,0.0,0.0,0.0,0.0,0.0,0.0,0.0,0.0,0.0,0.0,0.0,0.0,0.0,0.0,0.0,0.0,0.0,0.0,0.0,0.0,0.0,0.0,0.0,0.0,0.0,0.0,0.0,0.0,0.0,0.0,0.0,0.0,0.0,0.0,0.0,0.0,0.0,0.0,0.0,0.0,0.0,0.0,0.0,0.0,0.0,0.0,0.0,0.0,0.0,0.0,0.0,0.0,0.0,0.0,0.0,0.0,0.0,0.0,0.0,0.0,0.0,0.0,0.0,0.0,0.0,0.0,0.0,0.0,0.0,0.0,0.0,0.0,0.0,0.0,0.0,0.0,0.0,0.0,0.0,0.0,0.0,0.0,0.0,0.0,0.0,0.0,0.0,0.0,0.0,0.0,0.0,0.0,0.0,0.0,0.0,0.0,0.0,0.0,0.0,0.0,0.0,0.0,0.0,0.0,0.0,0.0,0.0,0.0,0.0,0.0,0.0,0.0,0.0,0.0,0.0,0.0,0.0,0.0,0.0,0.0,0.0,0.0,0.0,0.0,0.0,0.0,0.0,0.0,0.0,0.0,0.0,0.0,0.0,0.0,0.0,0.0,0.0,0.0,0.0,0.0,0.0,0.0,0.0,0.0,0.0,0.0,0.0,0.0,0.0,0.0,0.0,0.0,0.0,0.0,0.0,0.0,0.0,0.0,0.0,0.0,0.0,0.0,0.0,0.0,0.0,0.0,0.0,0.0,0.0,0.0,0.0,0.0,0.0,0.0,0.0,0.0,0.0,0.0,0.0,0.0,0.0,0.0,0.0,0.0,0.0,0.0,0.0,0.0,0.0,0.0,0.0,0.0,0.0,0.0,0.0,0.0,0.0,0.0,0.0,0.0,0.0,0.0,0.0,0.0,0.0,0.0,0.0,0.0,0.0,0.0,0.0,0.0,0.0,0.0,0.0,0.0,0.0,0.0,0.0,0.0,0.0,0.0,0.0,0.0,0.0,0.0,0.0,0.0,0.0,0.0,0.0,0.0,0.0,0.0,0.0,0.0,0.0,0.0,0.0,0.0,0.0,0.0,0.0,0.0,0.0,0.0,0.0,0.0,0.0,0.0,0.0,0.0,0.0,0.0,0.0,0.0,0.0,0.0,0.0,0.0,0.0,0.0,0.0,0.0,0.0,0.0,0.0,0.0,0.0,0.0,0.0,0.0,0.0,0.0,0.0,0.0,0.0,0.0,0.0,0.0,0.0,0.0,0.0,0.0,0.0,0.0,0.0,0.0,0.0,0.0,0.0,0.0,0.0,0.0,0.0,0.0,0.0,0.0,0.0,0.0,0.0,0.0,0.0,0.0,0.0,0.0,0.0,0.0,0.0,0.0,0.0,0.0,0.0,0.0,0.0,0.0,0.0,0.0,0.0,0.0,0.0,0.0,0.0,0.0,0.0,0.0,0.0,0.0,0.0,0.0,0.0,0.0,0.0,0.0,0.0,0.0,0.0,0.0,0.0,0.0,0.0,0.0,0.0,0.0,0.0,0.0,0.0,0.0,0.0,0.0,0.0,0.0,0.0,0.0,0.0,0.0,0.0,0.0,0.0,0.0,0.0,0.0,0.0,0.0,0.0,0.0,0.0,0.0,0.0,0.0,0.0,0.0,0.0,0.0,0.0,0.0,0.0,0.0,0.0,0.0,0.0,0.0,0.0,0.0,0.0,0.0,0.0,0.0,0.0,0.0,0.0,0.0,0.0,0.0,0.0,0.0,0.0,0.0,0.0,0.0,0.0,0.0,0.0,0.0,0.0,0.0,0.0,0.0,0.0,0.0,0.0,0.0,0.0,0.0,0.0,0.0,0.0,0.0,0.0,0.0,0.0,0.0,0.0,0.0,0.0,0.0,0.0,0.0,0.0,0.0,0.0,0.0,0.0,0.0,0.0,0.0,0.0,0.0,0.0,0.0,0.0,0.0,0.0,0.0,0.0,0.0,0.0,0.0,0.0,0.0,0.0,0.0,0.0,0.0,0.0,0.0,0.0,0.0,0.0,0.0,0.0,0.0,0.0,0.0,0.0,0.0,0.0,0.0,0.0,0.0,0.0,0.0,0.0,0.0,0.0,0.0,0.0,0.0,0.0,0.0,0.0,0.0,0.0,0.0,0.0,0.0,0.0,0.0,0.0,0.0,0.0,0.0,0.0,0.0,0.0,0.0,0.0,0.0,0.0,0.0,0.0,0.0,0.0,0.0,0.0,0.0,0.0,0.0,0.0,0.0,0.0,0.0,0.0,0.0,0.0,0.0,0.0,0.0,0.0,0.0,0.0,0.0,0.0,0.0,0.0,0.0,0.0,0.0,0.0,0.0,0.0,0.0,0.0,0.0,0.0,0.0,0.0,0.0,0.0,0.0,0.0,0.0,0.0,0.0,0.0,0.0,0.0,0.0,0.0,0.0,0.0,0.0,0.0,0.0,0.0,0.0,0.0,0.0,0.0,0.0,0.0,0.0,0.0,0.0,0.0,0.0,0.0,0.0,0.0,0.0,0.0,0.0,0.0,0.0,0.0,0.0,0.0,0.0,0.0,0.0,0.0,0.0,0.0,0.0,0.0,0.0,0.0,0.0,0.0,0.0,0.0,0.0,0.0,0.0,0.0,0.0,-4.4642,0.0,0.0,0.0,0.0,0.0,0.0,0.0,0.0,0.0,0.0,0.0,0.0,0.0,0.0,0.0,0.0,0.0,0.0,0.0,0.0,0.0,0.0,0.0,0.0,0.0,0.0,0.0,0.0,0.0,0.0,0.0,0.0,0.0,0.0,0.0,0.0,0.0,0.0,0.0,0.0,0.0,0.0,0.0,0.0,0.0,0.0,0.0,0.0,0.0,0.0,0.0,0.0,0.0,0.0,0.0,0.0,0.0,0.0,0.0,0.0,0.0,0.0,0.0,0.0,0.0,0.0,0.0,0.0,0.0,0.0,0.0,0.0,0.0,0.0,0.0,0.0,0.0,0.0,0.0,0.0,0.0,0.0,0.0,0.0,0.0,0.0,0.0,0.0,0.0,0.0,0.0,0.0,0.0,0.0,0.0,0.0,0.0,0.0,0.0,0.0,0.0,0.0,0.0,0.0,0.0,0.0,0.0,0.0,0.0,0.0,0.0,0.0,0.0,0.0,0.0,0.0,-4.6675,0.0,0.0,0.0,0.0,0.0,0.0,0.0,0.0,0.0,0.0,0.0,0.0,0.0,0.0,0.0,0.0,0.0,0.0,0.0,0.0,0.0,0.0,0.0,0.0,0.0,0.0,0.0,0.0,0.0,0.0,0.0,0.0,0.0,0.0,0.0,0.0,0.0,0.0,0.0,0.0,0.0,0.0,0.0,0.0,0.0,0.0,0.0,0.0,0.0,0.0,0.0,0.0,0.0,0.0,0.0,0.0,0.0,0.0,0.0,0.0,0.0,0.0,0.0,0.0,0.0,0.0,0.0,0.0,0.0,0.0,0.0,0.0,0.0,0.0,0.0,0.0,0.0,0.0,0.0,0.0,0.0,0.0,0.0,0.0,0.0,0.0,0.0,0.0,0.0,0.0,0.0,0.0,0.0,0.0,0.0,0.0,0.0,0.0,0.0,0.0,0.0,0.0,0.0,0.0,0.0,0.0,0.0,0.0,-5.2914,-5.3683,-5.4087,-5.4087,-5.4087,-5.403,-5.276,-5.1414,-4.9952,0.0,0.0,0.0,0.0,0.0,0.0,0.0,0.0,0.0,0.0,0.0,0.0,0.0,0.0,0.0,0.0,0.0,0.0,0.0,0.0,0.0,0.0,0.0,0.0,0.0,0.0,0.0,0.0,0.0,0.0,0.0,0.0,0.0,0.0,0.0,0.0,0.0,0.0,0.0,-3.8913,-3.8522,-3.8494,-3.8632,-3.5546,0.0,0.0,0.0,0.0,0.0,0.0,0.0,0.0,0.0,0.0,0.0,0.0,0.0,0.0,0.0,0.0,0.0,0.0,0.0,0.0,0.0,0.0,0.0,0.0,0.0,0.0,0.0,0.0,0.0,0.0,0.0,0.0,0.0,0.0,0.0,0.0,0.0,0.0,0.0,0.0,0.0,0.0,0.0,-4.6133,-4.7988,0.0,0.0,0.0,0.0,0.0,0.0,0.0,0.0,0.0,0.0,0.0,0.0,0.0,-5.1856,-5.3472,-5.6607,-5.7492,-5.6195,-5.8511,-5.8915,-5.7627,-5.7627,-5.7627,-5.7646,-5.8127,0.0,-5.249,-4.983,0.0,0.0,0.0,0.0,0.0,0.0,0.0,0.0,0.0,0.0,0.0,0.0,0.0,0.0,0.0,0.0,0.0,0.0,0.0,0.0,0.0,0.0,0.0,0.0,0.0,0.0,0.0,0.0,0.0,0.0,0.0,0.0,0.0,0.0,0.0,0.0,-3.8653,-4.0964,-4.1646,-4.1882,-4.2217,-4.2506,-4.0057,-3.859,-3.7846,-3.5784,0.0,0.0,0.0,0.0,0.0,0.0,0.0,0.0,0.0,0.0,0.0,0.0,0.0,0.0,0.0,0.0,0.0,0.0,0.0,0.0,0.0,0.0,0.0,0.0,0.0,0.0,0.0,0.0,0.0,0.0,0.0,0.0,0.0,0.0,0.0,0.0,0.0,0.0,0.0,-4.4785,-4.7676,-4.7461,-4.8066,-4.7715,0.0,0.0,0.0,0.0,0.0,0.0,0.0,0.0,0.0,-5.3444,-5.4799,-5.6088,-5.73,-5.9742,-6.0589,-5.9888,-6.1004,-6.1146,-6.0416,-5.9935,-5.9704,-5.9723,-6.0089,-5.9184,-5.725,-5.4567,-5.2167,-5.0029,0.0,0.0,0.0,0.0,-4.5472,-4.5019,0.0,0.0,0.0,0.0,0.0,0.0,0.0,0.0,0.0,0.0,0.0,0.0,0.0,0.0,0.0,-3.6096,0.0,0.0,0.0,0.0,0.0,0.0,0.0,0.0,0.0,0.0,0.0,-3.8156,-4.2195,-4.4114,-4.403,-4.4709,-4.5025,-4.5028,-4.3774,-4.2093,-4.0075,-3.8261,-3.6384,0.0,0.0,0.0,0.0,0.0,0.0,0.0,0.0,0.0,0.0,0.0,0.0,0.0,0.0,0.0,0.0,0.0,0.0,0.0,0.0,0.0,0.0,0.0,0.0,0.0,0.0,0.0,0.0,0.0,0.0,0.0,0.0,0.0,0.0,0.0,0.0,0.0,0.0,-4.7715,-5.0137,-4.8164,-5.0644,-5.1055,0.0,0.0,0.0,0.0,0.0,0.0,-5.387,-5.4446,-5.5534,-5.7341,-5.8806,-5.9973,-6.08,-6.23,-6.3082,-6.3082,-6.2608,-6.2397,-6.2358,-6.1281,-6.08,-6.08,-6.08,-6.08,-6.0589,-5.805,-5.5511,-5.3068,-5.1587,-4.9834,-4.8239,-4.9059,-4.8795,-4.8277,0.0,0.0,0.0,0.0,0.0,0.0,0.0,0.0,0.0,0.0,0.0,0.0,0.0,0.0,-3.3944,-3.7132,-3.7619,-3.7865,0.0,0.0,0.0,0.0,0.0,0.0,0.0,0.0,0.0,-4.1554,-4.2705,-4.4085,-4.568,-4.5784,-4.5845,-4.583,-4.5752,-4.526,-4.4218,-4.0081,-3.8262,-3.7771,0.0,0.0,0.0,0.0,0.0,0.0,0.0,0.0,0.0,0.0,0.0,0.0,0.0,0.0,0.0,0.0,0.0,0.0,0.0,0.0,0.0,0.0,0.0,0.0,0.0,0.0,0.0,0.0,0.0,0.0,0.0,0.0,0.0,0.0,0.0,0.0,0.0,0.0,0.0,-5.2676,-5.6152,0.0,0.0,0.0,0.0,-5.3672,-5.5122,-5.6755,-5.8476,-5.8363,-5.9385,-6.1897,-6.2673,-6.3474,-6.4339,-6.5243,-6.5705,-6.5686,-6.4032,-6.3243,-6.3185,-6.155,-6.08,-6.08,-6.08,-6.08,-6.0589,-5.8061,-5.6907,-5.6426,-5.3126,-5.2269,-5.2682,-5.1173,-5.1322,-5.2145,0.0,0.0,0.0,0.0,0.0,0.0,0.0,0.0,0.0,0.0,0.0,0.0,0.0,-3.3023,-3.625,-3.8162,-3.9664,-4.0304,-3.9881,0.0,0.0,0.0,0.0,0.0,0.0,0.0,-3.9599,-4.2643,-4.4052,-4.5055,-4.5673,-4.5711,-4.5744,-4.585,-4.585,-4.5684,-4.5303,-4.3308,-4.1165,-3.8939,-3.6851,-3.3832,0.0,0.0,0.0,0.0,0.0,0.0,0.0,0.0,0.0,0.0,0.0,0.0,0.0,0.0,0.0,0.0,0.0,0.0,0.0,0.0,0.0,0.0,0.0,0.0,0.0,0.0,0.0,0.0,0.0,0.0,0.0,0.0,0.0,0.0,0.0,0.0,0.0,-5.6152,-5.9863,0.0,-5.7969,-5.7949,-5.8574,-5.9707,-6.0838,-6.2174,-6.3776,-6.367,-6.3934,-6.4723,-6.4883,-6.5128,-6.5436,-6.5743,-6.5897,-6.5878,-6.4128,-6.3288,-6.3231,-6.155,-6.08,-6.08,-6.08,-6.08,-6.0723,-5.9819,-5.9108,-5.8492,-5.728,-5.5972,-5.4799,-5.4771,-5.4181,-5.3397,0.0,0.0,0.0,0.0,0.0,0.0,0.0,0.0,0.0,0.0,0.0,-2.8495,-2.9413,-3.34,-3.6777,-3.8667,-4.0314,-4.0827,-3.9796,0.0,0.0,0.0,0.0,0.0,0.0,-3.8903,-4.093,-4.377,-4.4892,-4.5495,-4.5594,-4.5594,-4.5651,-4.5725,-4.5725,-4.5725,-4.5694,-4.5202,-4.3186,-4.0213,-3.9117,-3.663,-3.339,0.0,0.0,0.0,0.0,0.0,0.0,0.0,0.0,0.0,0.0,0.0,0.0,0.0,0.0,0.0,0.0,0.0,0.0,0.0,0.0,0.0,0.0,0.0,0.0,0.0,0.0,0.0,0.0,0.0,0.0,0.0,0.0,0.0,0.0,0.0,-5.9394,-5.8808,-6.3301,-6.5332,-6.2422,-6.2949,-6.4062,-6.5488,-6.5879,-6.6619,-6.7908,-6.7575,-6.7262,-6.7055,-6.6638,-6.6367,-6.6301,-6.6032,-6.5897,-6.5878,-6.4128,-6.3288,-6.3231,-6.155,-6.08,-6.08,-6.08,-6.08,-6.0781,-6.0473,-6.0012,-5.9473,-5.9204,-5.8069,-5.6569,-5.6579,-5.5658,-5.4409,0.0,0.0,0.0,0.0,0.0,0.0,0.0,0.0,0.0,0.0,-2.6047,-2.783,-3.0188,-3.2509,-3.5225,-3.8524,-3.9221,-3.8936,-3.7649,-3.6062,0.0,0.0,0.0,0.0,-3.8027,-3.9833,-4.2165,-4.5047,-4.5028,-4.5176,-4.5509,-4.5509,-4.5528,-4.5556,-4.5547,-4.5566,-4.5577,-4.5577,-4.4171,-4.1834,-4.0159,-3.8476,-3.6593,0.0,0.0,0.0,0.0,0.0,0.0,0.0,0.0,0.0,0.0,0.0,0.0,0.0,0.0,0.0,0.0,0.0,0.0,0.0,0.0,0.0,0.0,0.0,0.0,0.0,0.0,0.0,0.0,0.0,0.0,0.0,0.0,0.0,-5.4199,-5.9355,-6.2519,-6.0918,-6.668,-6.9492,-6.6191,-6.8164,-6.998,-7.0762,-7.0097,-6.998,-7.0742,-6.9839,-6.919,-6.8942,-6.7939,-6.7295,-6.7103,-6.6301,-6.5878,-6.584,-6.4128,-6.3288,-6.3224,-6.155,-6.08,-6.08,-6.08,-6.0781,-6.0685,-5.9858,-5.9473,-5.9358,-5.8588,-5.828,-5.805,-5.6319,-5.5665,-5.5261,0.0,0.0,0.0,0.0,0.0,0.0,0.0,0.0,0.0,0.0,-2.6378,-2.8019,-2.8887,-3.1932,-3.4796,-3.7036,-3.7082,-3.6841,-3.6526,0.0,0.0,0.0,0.0,0.0,-4.0037,-3.9801,-4.0998,-4.3798,-4.3223,-4.3099,-4.3426,-4.3426,-4.3857,-4.4662,-4.4394,-4.4659,-4.5222,-4.4977,-4.4471,-4.374,-4.223,-4.0323,-3.8147,0.0,0.0,0.0,0.0,0.0,0.0,0.0,0.0,0.0,0.0,0.0,0.0,0.0,0.0,0.0,0.0,0.0,0.0,0.0,0.0,0.0,0.0,0.0,0.0,0.0,0.0,0.0,0.0,0.0,0.0,0.0,0.0,-5.7969,-5.8555,-6.2793,-6.6348,-6.7715,-7.0664,-7.2461,-7.2168,-7.2773,-7.3281,-7.3515,-7.332,-7.3027,-7.2617,-7.1635,-7.0695,-6.9863,-6.825,-6.7295,-6.7103,-6.6301,-6.557,-6.4936,-6.3839,-6.2993,-6.2377,-6.13,-6.08,-6.08,-6.08,-6.0435,-5.9838,-5.9608,-5.8781,-5.7723,-5.8146,-5.7915,-5.7223,-5.6107,-5.4934,-5.3573,0.0,0.0,0.0,0.0,0.0,0.0,0.0,0.0,0.0,0.0,-2.5947,-2.7246,-2.7387,-3.0118,-3.251,-3.3888,-3.4155,-3.3951,-3.3195,0.0,0.0,0.0,0.0,-3.6873,-3.9294,-3.9213,-4.0193,-4.2291,-4.2015,-4.2052,-4.2403,-4.2403,-4.2737,-4.3367,-4.317,-4.3567,-4.4334,-4.4134,-4.4272,-4.4517,-4.3523,-4.2397,-4.1052,-3.8906,-3.7556,-3.6736,-3.6316,-3.6311,-3.6425,-3.6028,0.0,0.0,0.0,0.0,0.0,0.0,0.0,0.0,0.0,0.0,0.0,0.0,0.0,0.0,0.0,0.0,0.0,0.0,0.0,0.0,0.0,0.0,0.0,0.0,-5.867,-6.2422,-6.3984,-6.6387,-6.8926,-7.1484,-7.3008,-7.4336,-7.5566,-7.5351,-7.5293,-7.5664,-7.5019,-7.4375,-7.3867,-7.2942,-7.1786,-7.0371,-6.8829,-6.7773,-6.7221,-6.6338,-6.5455,-6.4589,-6.3724,-6.2878,-6.2082,-6.1204,-6.08,0.0,-6.08,-6.03,-5.9473,-5.9146,-5.8204,0.0,0.0,0.0,0.0,0.0,-5.328,-5.1893,0.0,0.0,0.0,0.0,0.0,0.0,0.0,0.0,0.0,0.0,0.0,-2.5915,-2.5854,-2.7762,-2.9349,-3.0162,-3.1074,-3.0864,0.0,0.0,0.0,-3.183,-3.4345,-3.6208,-3.7203,-3.833,-3.944,-4.0622,-4.0907,-4.1222,-4.1556,-4.1518,-4.1542,-4.1618,-4.1663,-4.2096,-4.2829,-4.2852,-4.3369,-4.413,-4.3766,-4.3953,-4.4056,-4.0992,-4.0265,-4.0653,-3.871,-3.8145,-3.8323,-3.8472,0.0,0.0,0.0,0.0,0.0,0.0,0.0,0.0,0.0,0.0,0.0,0.0,0.0,0.0,0.0,0.0,0.0,0.0,0.0,0.0,0.0,0.0,0.0,0.0,-6.309,-6.6855,-6.9297,-6.9726,-7.0625,-7.2871,-7.3926,-7.5097,-7.6758,-7.6308,-7.6211,-7.6992,-7.5625,-7.4668,-7.4453,0.0,0.0,0.0,0.0,-6.8411,-6.7406,-6.6414,-6.5416,-6.4436,-6.3666,-6.2839,-6.1928,-6.1146,-6.08,-6.0781,-6.0704,-6.0165,-5.93,-5.8492,-5.7646,-5.6849,-5.6753,-5.5742,-5.4145,-5.2414,-5.126,0.0,0.0,0.0,0.0,0.0,0.0,0.0,0.0,0.0,0.0,-2.3964,-2.4579,-2.5013,-2.4885,-2.6356,-2.7892,-2.9153,-2.9553,-2.9584,0.0,0.0,-3.0391,-3.2215,-3.3778,-3.5524,-3.7474,-3.7556,-3.8002,-3.8882,-3.8053,-3.782,-3.814,-3.7869,-3.8053,-3.8646,-3.8966,-3.9381,-3.9845,-4.0184,-4.076,-4.1443,-4.1363,-4.2081,-4.3057,-4.2106,-4.163,-4.1409,-4.1267,-4.1816,-4.2459,-4.1429,-4.1033,-4.073,-3.9353,0.0,0.0,0.0,0.0,0.0,0.0,0.0,0.0,0.0,0.0,0.0,0.0,0.0,0.0,0.0,0.0,0.0,0.0,0.0,0.0,-6.1504,-6.5688,-6.8959,-7.0273,-7.1074,-7.1699,-7.2187,-7.3027,-7.3965,-7.5,-7.5586,-7.5976,-7.6133,-7.584,-7.5039,-7.3633,-7.3398,-7.2435,-7.0561,-6.9459,-6.8411,-6.7406,-6.6414,-6.5109,-6.3551,0.0,0.0,-6.105,-6.0877,-6.08,-6.0762,-6.0069,-5.93,-5.8473,-5.7607,-5.6753,-5.5876,-5.5241,-5.4357,-5.326,-5.1548,-5.0394,-4.9423,0.0,0.0,0.0,0.0,0.0,0.0,0.0,0.0,0.0,0.0,-2.4385,-2.4436,-2.4132,-2.4963,-2.5739,-2.6248,-2.6293,0.0,0.0,-2.8709,-2.9997,-3.2352,-3.3088,-3.4093,-3.5514,-3.5342,-3.5575,-3.6301,-3.5954,-3.5888,-3.6045,-3.5869,-3.5827,-3.5905,-3.6463,-3.6879,-3.7175,-3.7728,-3.8604,-3.9589,-3.9589,-4.0372,-4.1568,-4.1773,-4.1889,-4.2026,-4.2513,-4.2803,-4.3027,-4.352,-4.3173,-4.2447,-4.2073,-4.1114,-3.9813,0.0,0.0,0.0,0.0,0.0,0.0,0.0,0.0,0.0,0.0,0.0,0.0,0.0,0.0,-5.0899,0.0,0.0,-6.165,-6.5174,-6.8398,-7.0629,-7.1132,-7.2048,-7.2656,-7.2656,-7.3027,-7.3633,-7.4512,-7.498,-7.5254,-7.5254,-7.5254,-7.4687,-7.3379,-7.3301,-7.2283,-7.0061,-6.9373,-6.8382,-6.701,-6.6322,-6.5131,-6.3452,-6.3353,-6.2416,-6.08,-6.08,-6.08,-6.0742,-5.9877,-5.905,-5.8204,-5.6896,-5.5857,-5.5011,-5.4184,-5.3587,-5.2933,-5.0837,-4.949,-4.8567,0.0,0.0,0.0,0.0,0.0,0.0,0.0,0.0,0.0,0.0,-2.4371,-2.4131,-2.3688,-2.3888,-2.3919,0.0,0.0,0.0,0.0,-2.8008,-2.9518,-3.1994,-3.2032,-3.2302,-3.2907,-3.2962,-3.3258,-3.3874,-3.4078,-3.4232,-3.4357,-3.4304,-3.3961,-3.3453,-3.4266,-3.4695,-3.4802,-3.5496,-3.653,-3.7774,-3.7902,-3.8688,-3.9848,-4.0359,-4.1089,-4.1924,-4.2578,-4.2159,-4.1661,-4.3982,-4.3765,-4.2722,-4.3798,-4.322,-4.1659,-3.9238,-3.9492,0.0,0.0,0.0,0.0,0.0,0.0,0.0,0.0,-4.459,-4.6146,-4.7698,-5.114,-5.4876,-5.8192,-6.1235,-6.4542,-6.8539,-7.0583,-7.1726,-7.192,-7.2585,-7.2988,-7.2812,-7.2793,-7.3066,-7.3769,-7.3847,-7.3847,-7.3847,-7.4004,-7.3711,-7.2832,-7.2793,-7.1777,-6.957,-6.9134,-6.818,-6.6616,-6.6139,-6.5129,-6.3601,-6.3257,-6.2302,-6.08,-6.08,-6.08,-6.0742,-5.9704,-5.8704,-5.7665,-5.6107,-5.5068,-5.4395,-5.3356,-5.2856,-5.2414,-5.0029,-4.8702,-4.7971,0.0,0.0,0.0,0.0,0.0,0.0,0.0,0.0,0.0,0.0,0.0,0.0,0.0,0.0,0.0,0.0,0.0,0.0,-2.7472,-2.7605,-2.8552,-3.0628,-3.0164,-3.0155,-3.081,-3.1478,-3.2099,-3.2696,-3.1964,-3.1892,-3.2426,-3.2156,-3.1799,-3.1389,-3.2722,-3.3123,-3.2868,-3.3586,-3.4397,-3.5188,-3.577,-3.6807,-3.7957,-3.769,-3.8671,-4.0249,-4.0864,-3.9958,-3.879,-4.1028,-4.1227,-4.0786,-4.2336,-4.2929,-4.2569,-4.002,-3.9495,-3.9226,-3.6819,-3.7875,-4.053,-4.4241,-4.4567,-4.5565,0.0,-5.1649,-5.1632,-5.5828,-5.7784,-5.9625,-6.2562,-6.5008,-6.7521,-7.0444,-7.1256,-7.1833,-7.2728,-7.2447,-7.1855,-7.1074,-7.0996,-7.1035,-7.1133,-7.1133,-7.1133,-7.1133,-7.1855,-7.1914,-7.1035,-7.0996,-7.0527,-6.9531,-6.8549,-6.7575,-6.6616,-6.5687,-6.4675,-6.3581,-6.278,-6.1851,-6.08,-6.08,-6.08,-6.0704,-5.9127,-5.7492,-5.5915,-5.5011,-5.4587,-5.4337,-5.2692,-5.1606,-5.077,-4.8913,-4.8182,-4.7875,0.0,0.0,0.0,0.0,0.0,0.0,0.0,0.0,0.0,0.0,0.0,0.0,0.0,0.0,0.0,0.0,0.0,0.0,-2.5796,-2.6808,-2.7866,-2.8885,-2.8455,-2.8194,-2.8213,-2.8416,-2.9024,-3.0066,-3.009,-3.0176,-3.036,-3.0628,-3.0202,-2.924,-3.0209,-3.0358,-2.9938,-3.0629,-3.1637,-3.2783,-3.3467,-3.453,-3.571,-3.571,-3.5539,-3.5586,-3.7709,-3.7348,0.0,0.0,-3.9134,-3.8745,-4.0387,-4.0711,-4.0161,-3.8586,-3.8857,-3.9763,-4.0281,-4.087,-4.2128,-4.5346,-4.6416,-4.7669,-5.1472,-5.2361,-5.3185,-5.6057,-5.8703,-6.1244,-6.3753,-6.5954,-6.834,0.0,-7.2055,-7.2387,-7.278,-7.19,-7.0742,-6.9394,-6.8808,-6.8867,-6.9844,-7.039,-7.0488,-6.998,-7.0742,-7.0859,-6.998,-6.9941,-6.957,-6.8769,-6.8315,-6.7665,-6.6785,-6.5744,-6.4713,-6.3699,-6.2743,-6.1765,-6.08,-6.08,-6.0262,-5.9281,-5.8069,-5.6838,-5.5645,-5.4818,-5.4203,-5.3626,-5.2385,-5.1106,-4.9779,-4.8567,-4.7798,-4.724,0.0,0.0,0.0,0.0,0.0,0.0,0.0,0.0,0.0,0.0,0.0,0.0,0.0,0.0,0.0,0.0,0.0,0.0,0.0,-2.5164,-2.5953,-2.6489,-2.5585,-2.5047,-2.4958,-2.4961,-2.5624,-2.6949,-2.7439,-2.7771,-2.7971,-2.8737,-2.8453,-2.7322,-2.8274,-2.8564,-2.8302,-2.8787,-2.9719,-3.0969,-3.1894,-3.2728,-3.3472,-3.3591,-3.2666,-3.1679,-3.4576,-3.4413,0.0,0.0,-3.6489,-3.6316,-3.7758,-3.8353,-3.8285,-3.7165,-3.7958,-3.9679,-4.187,-4.252,-4.328,-4.6092,-4.7804,-4.9362,-5.136,-5.2897,-5.4354,-5.6074,-5.87,-6.1483,-6.4011,-6.6011,-6.8345,-7.165,-7.2295,-7.2438,-7.267,-7.1312,-6.9685,-6.8047,-6.707,-6.6914,-6.789,-6.9004,-6.9394,-6.8769,-6.9512,-6.9726,-6.9101,-6.9062,-6.8691,-6.7871,-6.7617,-6.7051,-6.6191,-6.516,-6.4255,-6.3461,-6.2497,-6.1582,-6.0781,-6.055,-5.9531,-5.7915,-5.7272,-5.6522,-5.5607,-5.4568,-5.378,-5.3087,-5.201,-5.0529,-4.8952,-4.8336,-4.7586,-4.6778,0.0,0.0,0.0,0.0,0.0,0.0,0.0,0.0,0.0,0.0,0.0,0.0,0.0,0.0,0.0,0.0,0.0,0.0,0.0,-2.2297,-2.2138,-2.3204,-2.1056,-2.0175,-2.0851,-2.1311,-2.2219,-2.3542,-2.3554,-2.4116,-2.5158,-2.6156,-2.6304,-2.5843,-2.7496,-2.8484,-2.8974,-2.9,-2.9334,-2.9989,-3.1494,-3.1788,-3.1259,-3.1004,-3.0368,-2.9842,-3.1888,0.0,0.0,-3.1894,-3.2912,-3.3381,-3.4188,-3.6314,-3.8167,-3.6434,-3.6895,-3.8308,-3.9956,-4.1323,-4.3174,-4.6852,-4.8965,-5.0897,-5.3734,-5.502,-5.6168,-5.8118,-5.9009,-6.0465,-6.3784,-6.5517,-6.7707,-7.1568,-7.1653,-7.1581,-7.2562,-7.0713,-6.8674,-6.7128,-6.6172,-6.5332,0.0,-6.6015,-6.6992,-6.6972,-6.7773,-6.8262,-6.8242,-6.8242,-6.7832,-6.6972,-6.6113,-6.5254,-6.4394,-6.3515,-6.2922,-6.2638,-6.175,-6.1147,-6.0762,-5.9915,-5.8627,-5.7041,-5.7003,-5.6522,-5.5568,-5.3914,-5.3222,-5.3049,-5.1375,-4.9663,-4.8144,-4.8105,-4.7586,-4.6778,0.0,0.0,0.0,0.0,0.0,0.0,0.0,0.0,0.0,0.0,0.0,0.0,0.0,0.0,0.0,0.0,0.0,0.0,0.0,-2.1267,-2.0222,-1.942,-1.7556,-1.6494,-1.6334,-1.7624,-1.9141,-2.0885,-2.2831,-2.395,-2.4216,-2.5016,-2.4972,-2.4257,-2.5143,-2.5668,-2.5895,-2.6907,-2.7748,-2.8547,-3.0034,-3.0543,-3.0337,-2.981,-2.8755,-2.7623,0.0,0.0,0.0,-2.9629,-3.088,-3.1777,-3.2582,-3.4007,-3.5485,-3.6003,-3.7248,-3.8907,-4.1048,-4.2926,-4.4955,-4.7816,-4.9966,-5.1933,-5.3968,-5.5093,-5.604,-5.7243,-5.6948,-5.7186,-5.946,-6.1422,-6.3667,-6.6665,-6.8949,-7.0496,-7.0975,-6.9485,-6.7774,-6.621,-6.5273,0.0,0.0,0.0,0.0,-6.6035,-6.6836,-6.7344,-6.7344,-6.6797,-6.6348,-6.6055,-6.5195,-6.4609,-6.4297,-6.3437,-6.2917,-6.2727,-6.1622,-6.0681,-5.9915,-5.9088,-5.8069,-5.6964,-5.6387,-5.5665,-5.4818,-5.3664,-5.2856,-5.2173,-5.0491,-4.9125,-4.8048,-4.7509,-4.6778,-4.599,0.0,0.0,0.0,0.0,0.0,0.0,0.0,0.0,0.0,0.0,0.0,0.0,0.0,0.0,0.0,0.0,0.0,0.0,0.0,0.0,-1.9321,-1.7829,-1.6007,-1.4838,-1.4463,-1.573,-1.7136,-1.8684,-2.0735,-2.1792,-2.1847,-2.2539,-2.2502,-2.1941,-2.294,-2.3319,-2.3202,-2.4249,-2.5059,-2.5669,-2.7025,-2.7724,-2.7929,-2.775,-2.7141,0.0,0.0,0.0,-2.6676,-2.7794,-2.9281,-3.0772,-3.1466,-3.3053,-3.5018,-3.667,-3.8303,-4.0084,-4.2506,-4.4404,-4.6349,-4.8923,-5.067,-5.2148,-5.3632,-5.4401,-5.4909,-5.5261,-5.4684,-5.4552,-5.5974,-5.7855,-6.008,-6.2804,-6.5415,-6.7483,-6.8582,-6.713,-6.5741,-6.5144,-6.4334,-6.3613,0.0,0.0,0.0,-6.5117,-6.623,-6.6758,-6.6445,-6.5898,-6.5469,-6.5156,-6.4297,-6.3691,-6.3379,-6.2812,-6.2474,-6.2323,-6.1149,-6.0074,-5.9106,-5.8239,-5.7357,-5.6503,-5.5934,-5.5241,-5.4434,-5.3568,-5.2692,-5.1731,-5.0048,-4.8875,-4.8009,-4.7201,-4.6355,-4.5594,0.0,0.0,0.0,0.0,0.0,0.0,0.0,0.0,0.0,0.0,0.0,0.0,0.0,0.0,0.0,0.0,0.0,0.0,0.0,0.0,0.0,-1.8223,-1.6196,-1.5107,-1.5159,-1.5676,-1.6357,-1.7206,-1.7758,-1.8209,-1.853,-1.9141,-1.9338,-1.924,-2.1159,-2.1678,-2.1243,-2.156,-2.1684,-2.1845,-2.3027,-2.3833,-2.4411,-2.5014,0.0,0.0,0.0,0.0,-2.6134,-2.6513,-2.8314,-3.0513,-3.1117,-3.3676,-3.6751,-3.8398,-3.9976,-4.1737,-4.4104,-4.566,-4.7264,-5.0105,-5.1074,-5.1663,-5.2852,-5.3126,-5.2993,-5.2501,-5.2316,-5.2507,-5.3339,-5.4934,-5.7065,-5.9972,-6.1454,-6.311,-6.5664,-6.4143,-6.3105,0.0,0.0,0.0,0.0,0.0,0.0,-6.4238,0.0,-6.6426,-6.5644,-6.5566,-6.5137,-6.4258,-6.3398,-6.2539,-6.1719,-6.1699,-6.1614,-6.1423,-6.0346,-5.9335,-5.8408,-5.7438,-5.6505,-5.5647,-5.5637,-5.5145,-5.4299,-5.3472,-5.2596,-5.1615,-4.9971,-4.8798,-4.7952,-4.7144,-4.6317,-4.5594,0.0,0.0,0.0,0.0,0.0,0.0,0.0,0.0,0.0,0.0,0.0,0.0,0.0,0.0,0.0,0.0,0.0,0.0,0.0,0.0,0.0,0.0,0.0,0.0,0.0,0.0,0.0,0.0,-2.1782,-2.2351,-2.1662,-2.1463,-2.1326,-2.1157,-2.1596,-2.1566,-2.1319,-2.3184,-2.339,-2.2577,0.0,-2.4749,-2.4882,0.0,0.0,0.0,0.0,0.0,-2.719,-2.8183,-3.0561,-3.356,-3.6127,-3.7583,-3.8712,-4.0793,-4.2103,-4.3277,-4.5094,-4.669,-4.8323,-5.0296,-5.1282,-5.1821,-5.2163,-5.2231,-5.2018,-5.1312,-4.9931,-4.891,-4.9151,-5.1617,-5.4072,-5.544,-6.0334,0.0,-6.5016,-6.5821,0.0,-6.5101,-6.4969,-6.4687,-6.4023,-6.4551,0.0,0.0,-6.4707,-6.5156,-6.5586,-6.498,-6.4238,-6.3359,-6.248,-6.1914,-6.1699,-6.1699,-6.1301,-6.0525,-6.0247,-5.9255,-5.7677,-5.7307,-5.6343,-5.4951,-5.4853,-5.3953,-5.2538,-5.2308,-5.1356,-4.9933,-4.8856,-4.7932,-4.7105,-4.624,-4.5787,-4.5594,0.0,0.0,0.0,0.0,0.0,0.0,0.0,0.0,0.0,0.0,0.0,0.0,0.0,0.0,0.0,0.0,0.0,0.0,0.0,0.0,0.0,0.0,0.0,0.0,0.0,0.0,0.0,0.0,0.0,0.0,-2.2253,-2.2311,-2.2191,-2.1961,-2.2289,-2.1881,-2.0997,-2.19,0.0,0.0,0.0,0.0,0.0,0.0,0.0,0.0,0.0,-2.7826,-2.9887,-3.1181,-3.2982,-3.5263,-3.8707,-4.0163,-4.107,-4.3651,-4.4727,-4.5478,-4.7294,-4.8819,-5.0199,-5.1314,-5.1759,-5.1712,-5.0971,-5.05,-4.9894,-4.8711,-4.752,-4.6711,-4.6711,-4.9192,-5.1636,-5.2832,0.0,0.0,-6.3347,-6.4246,-6.4809,-6.5057,-6.5266,-6.5216,-6.4771,-6.5183,-6.5306,0.0,-6.4863,-6.4922,-6.5019,-6.4199,-6.3515,-6.3027,-6.2148,-6.1699,-6.1699,-6.1328,-6.0857,-6.0274,-5.9488,-5.8552,-5.7496,-5.6543,-5.5583,-5.4665,0.0,-5.2953,-5.1395,-5.175,-5.0692,-4.8779,-4.8298,-4.7605,-4.6797,-4.5913,-4.5594,-4.5594,0.0,0.0,0.0,0.0,0.0,0.0,0.0,0.0,0.0,0.0,0.0,0.0,0.0,0.0,0.0,0.0,0.0,0.0,0.0,0.0,0.0,0.0,0.0,0.0,0.0,0.0,0.0,0.0,0.0,0.0,0.0,0.0,0.0,0.0,0.0,0.0,0.0,0.0,0.0,0.0,0.0,0.0,0.0,0.0,0.0,0.0,-2.7173,-2.9727,-3.2554,-3.4169,-3.5305,-3.6616,-4.0022,-4.2024,-4.366,-4.6461,-4.7368,-4.7868,-4.9834,-5.1169,-5.2118,-5.2653,-5.2326,-5.1462,-4.9779,-4.8644,-4.7471,-4.5768,-4.5441,-4.5451,-4.5512,-4.7568,-4.9808,-5.1556,-5.4009,-5.7146,-6.1351,-6.1485,-6.2043,-6.4348,-6.4804,-6.4975,-6.5086,-6.5097,-6.5189,-6.5389,-6.5292,-6.4902,-6.418,-6.3418,-6.2949,-6.2832,-6.209,-6.1699,-6.1699,-6.084,-6.0351,-6.0215,-5.8536,-5.7675,-5.7495,-5.5619,-5.4682,-5.4498,0.0,0.0,-5.0577,-5.1164,-5.0077,-4.8105,-4.8105,-4.7605,-4.6817,-4.6163,-4.5864,-4.5768,0.0,0.0,0.0,0.0,0.0,0.0,0.0,0.0,0.0,0.0,0.0,0.0,0.0,0.0,0.0,0.0,0.0,0.0,0.0,0.0,0.0,0.0,0.0,0.0,0.0,0.0,0.0,0.0,0.0,0.0,0.0,0.0,0.0,0.0,0.0,0.0,0.0,0.0,0.0,0.0,0.0,0.0,0.0,0.0,0.0,0.0,-2.8481,-2.9795,-3.1271,-3.3898,-3.6804,-3.9671,-4.1916,-4.4059,-4.6077,-4.7749,-4.8678,-4.9469,-5.0802,-5.16,-5.2269,-5.3396,-5.2786,-5.1462,-4.9779,-4.8221,-4.6624,-4.4874,-4.4528,-4.4659,-4.5098,-4.6906,-4.9019,-5.1136,-5.3862,-5.6953,-6.0512,-6.163,-6.2506,-6.3678,-6.3932,-6.4037,-6.4065,-6.4065,0.0,0.0,0.0,-6.3261,-6.3222,-6.3086,-6.2676,-6.1953,-6.1777,-6.1699,-6.1699,-6.084,-6.0078,-5.9394,-5.8358,-5.7498,-5.6756,-5.5572,-5.4589,-5.3689,-5.2017,0.0,-4.9586,-4.9009,-4.8509,-4.8105,-4.8105,-4.7605,-4.6962,-4.749,-4.7259,-4.6682,0.0,0.0,0.0,0.0,0.0,0.0,0.0,0.0,0.0,0.0,-2.6839,-2.6684,0.0,0.0,0.0,0.0,0.0,0.0,0.0,0.0,0.0,0.0,0.0,0.0,0.0,0.0,-2.842,-2.6858,0.0,0.0,0.0,-2.8742,-2.8692,0.0,0.0,0.0,0.0,0.0,0.0,0.0,0.0,0.0,0.0,0.0,0.0,0.0,0.0,-3.1319,-3.2889,-3.4632,-3.7384,-4.0536,-4.301,-4.4993,-4.6867,-4.9117,-5.0001,-5.0572,-5.2196,-5.2971,-5.3498,-5.4322,-5.3196,-5.1346,-4.9221,-4.7432,-4.574,-4.4028,-4.4008,-4.4512,-4.5228,-4.6858,-4.8606,-5.0108,-5.2246,-5.5068,-5.8954,-5.9914,-6.103,-6.3201,-6.3506,-6.3578,-6.3701,-6.3709,-6.3631,-6.3449,0.0,-6.2861,-6.2988,-6.2578,-6.2129,-6.1719,-6.1269,-6.1015,-6.1015,-5.9746,-5.8906,-5.8515,-5.7637,-5.6777,-5.5898,-5.4878,-5.3916,-5.2956,-5.1583,0.0,-4.8866,-4.9349,-4.8722,-4.7528,-4.7952,-4.7605,-4.6885,-4.6817,-4.6547,-4.622,0.0,0.0,0.0,0.0,0.0,0.0,0.0,-2.5539,-2.6556,-2.7812,-2.8137,-2.8382,-2.869,-2.8244,0.0,0.0,0.0,0.0,0.0,0.0,0.0,0.0,0.0,0.0,0.0,0.0,0.0,-2.7486,-3.0125,0.0,0.0,0.0,0.0,0.0,-3.0137,0.0,0.0,0.0,0.0,0.0,0.0,0.0,0.0,0.0,0.0,0.0,0.0,-3.2823,-3.4687,-3.5722,-3.7679,-4.0215,-4.3029,-4.5174,-4.7133,-4.939,-5.05,-5.1419,-5.3088,-5.3935,-5.4468,-5.496,-5.3425,-5.1179,-4.8894,-4.6797,-4.496,-4.3624,-4.372,-4.4355,-4.5421,-4.6682,-4.7913,-4.8952,-5.024,-5.2577,-5.6876,-5.7627,-5.8915,-6.2108,-6.2647,0.0,-6.2975,-6.3004,0.0,-6.2444,0.0,0.0,-6.2715,-6.207,-6.1601,-6.1426,-6.0762,-6.0312,-6.0137,-5.8652,-5.789,-5.789,-5.6836,-5.5957,-5.5254,-5.4089,-5.3169,-5.243,-5.1347,0.0,0.0,-4.9614,-4.8844,-4.6983,-4.7619,-4.7468,-4.6836,-4.6317,-4.6037,-4.5883,0.0,0.0,0.0,0.0,0.0,0.0,0.0,-2.5539,-2.6767,-2.8631,-2.9003,-2.9694,-3.1263,-2.9313,0.0,0.0,0.0,0.0,0.0,0.0,0.0,0.0,0.0,0.0,0.0,0.0,0.0,-2.9355,-3.0313,0.0,0.0,0.0,0.0,0.0,0.0,-3.0123,-2.873,0.0,0.0,0.0,0.0,0.0,0.0,0.0,0.0,0.0,0.0,-3.3117,-3.4658,-3.6793,-3.7984,-3.8938,-4.1236,-4.4539,-4.7494,-4.7051,-4.9274,-5.2007,-5.2568,-5.3273,-5.4065,-5.489,-5.3213,-5.099,-4.9605,-4.6759,-4.4374,-4.422,-4.3662,-4.3701,-4.5306,-4.5729,-4.6355,-4.7971,-4.8355,-4.9952,-5.4241,-5.5472,-5.6915,-5.955,0.0,0.0,-6.1058,-6.1058,-6.1094,-6.1164,0.0,0.0,-6.1816,-6.1738,-6.1348,-6.0547,-6.0449,-6.0058,-5.9316,-5.8379,-5.789,-5.7871,-5.6211,-5.5371,-5.5234,-5.3574,-5.2687,-5.2416,-5.0791,0.0,0.0,-4.7796,-4.732,-4.6994,-4.7071,-4.7024,-4.6981,-4.7625,-4.7413,-4.6778,0.0,0.0,0.0,0.0,0.0,0.0,0.0,-2.5326,-2.6806,-2.8803,-2.9143,-2.9877,-3.1669,-3.0869,-2.9988,0.0,0.0,0.0,0.0,0.0,0.0,0.0,0.0,0.0,0.0,0.0,-3.0857,-3.1894,-3.2665,0.0,0.0,0.0,0.0,0.0,0.0,-3.1589,-3.0426,0.0,0.0,0.0,0.0,0.0,0.0,0.0,0.0,0.0,0.0,0.0,-3.6277,-3.7655,-3.8227,-3.8406,-3.8843,-4.1238,-4.422,-4.5835,-4.7943,-5.0146,-5.1798,-5.2994,-5.3887,-5.4236,-5.2247,-4.9963,-4.8897,-4.6655,-4.4632,-4.4106,-4.4315,-4.4806,-4.5479,-4.5594,-4.5825,-4.649,-4.6605,-4.7721,-5.0971,-5.1702,-5.3414,-5.7511,-5.83,-5.9119,0.0,0.0,-6.0847,0.0,0.0,0.0,-6.0815,-6.0876,-6.0762,-6.041,-5.9414,-5.873,-5.8418,-5.7031,-5.6348,-5.6328,-5.5098,-5.4238,-5.3711,-5.3027,-5.2128,-5.1086,-5.0403,0.0,0.0,-4.8253,-4.8015,-4.7831,-4.7243,-4.698,-4.6936,-4.6696,-4.6394,-4.6124,0.0,0.0,0.0,0.0,0.0,0.0,-2.3977,-2.5194,-2.6812,-2.8805,-2.9151,-2.9974,-3.2029,-3.1912,-3.1587,-3.1316,0.0,0.0,0.0,0.0,0.0,0.0,0.0,0.0,0.0,0.0,-3.2734,-3.418,-3.5248,-3.5764,0.0,0.0,-3.5892,-3.3996,0.0,0.0,0.0,0.0,0.0,0.0,0.0,0.0,0.0,0.0,0.0,0.0,0.0,0.0,0.0,0.0,0.0,-3.8669,-3.8151,-3.9193,-4.1107,-4.3707,-4.6107,-4.8343,-5.0086,-5.1706,-5.2939,-5.3051,-5.1018,-4.8833,-4.8343,-4.6329,-4.449,-4.4244,-4.4661,-4.5178,-4.5519,-4.5594,-4.5594,-4.5594,-4.5594,-4.6402,-4.8682,-4.924,-5.0914,-5.5011,0.0,-5.6876,0.0,-6.0358,-6.0737,0.0,0.0,0.0,-5.9732,-5.9636,-5.9626,-5.9668,-5.8515,-5.7656,-5.7148,-5.5918,-5.5176,-5.4902,-5.4023,-5.3164,-5.2305,-5.207,-5.1328,-5.0195,0.0,0.0,0.0,-4.859,-4.8304,-4.8086,-4.7116,-4.6705,-4.657,-4.5897,-4.5635,-4.5594,0.0,0.0,0.0,0.0,0.0,0.0,0.0,-2.5194,-2.6805,-2.8751,-2.9119,-3.0197,-3.2802,-3.2265,-3.2094,-3.308,0.0,0.0,0.0,0.0,0.0,0.0,0.0,0.0,0.0,0.0,-3.5098,-3.5976,-3.7715,-3.8492,-3.8385,-3.9244,-3.8305,-3.5861,0.0,0.0,0.0,0.0,0.0,0.0,0.0,0.0,0.0,0.0,0.0,0.0,0.0,0.0,0.0,0.0,0.0,0.0,0.0,-3.9352,-3.8944,-4.0039,-4.3579,-4.7113,-4.7149,-4.8948,-5.0923,-5.1341,-4.9567,-4.782,-4.822,-4.5725,-4.3649,-4.484,-4.4399,-4.4178,-4.5377,-4.5594,-4.5594,-4.5594,-4.5594,0.0,-4.7875,-4.8856,-5.0048,0.0,-5.2712,-5.4241,-5.6791,-5.9319,0.0,0.0,0.0,0.0,-5.8554,-5.8023,-5.7787,-5.793,-5.791,-5.707,-5.5332,-5.5312,-5.4863,-5.4004,-5.3125,-5.2266,-5.1387,-5.0586,-5.0215,0.0,0.0,0.0,0.0,-4.832,-4.7532,-4.732,-4.646,-4.5987,-4.5822,-4.5796,-4.5715,-4.5594,0.0,0.0,0.0,0.0,0.0,0.0,0.0,-2.4349,-2.5705,-2.7655,-2.8495,-2.9778,-3.198,-3.3495,-3.4536,-3.4948,0.0,0.0,0.0,0.0,0.0,0.0,0.0,0.0,0.0,0.0,-3.748,-3.9551,-4.0009,-4.0529,-4.1064,-4.0649,-3.9692,-3.8307,-3.7148,-3.5948,0.0,0.0,0.0,0.0,0.0,0.0,0.0,0.0,0.0,0.0,0.0,0.0,0.0,0.0,0.0,0.0,0.0,0.0,0.0,-3.8984,-4.18,-4.4874,-4.5993,-4.7664,-4.9116,-4.9251,-4.7868,-4.6501,-4.662,-4.5174,-4.3886,-4.4275,-4.4353,-4.4447,-4.4851,-4.5107,-4.5253,-4.5253,-4.5448,-4.5787,0.0,0.0,0.0,-5.1635,-5.5222,-5.7819,0.0,0.0,0.0,0.0,0.0,0.0,0.0,-5.6897,-5.6592,-5.6866,-5.6383,-5.5566,-5.4414,-5.3828,-5.3086,-5.2207,-5.1387,-5.0527,-4.9687,-4.9433,0.0,0.0,0.0,0.0,0.0,-4.7187,-4.703,-4.7436,-4.6475,-4.6011,-4.5871,-4.5821,-4.5723,-4.5594,0.0,0.0,0.0,0.0,0.0,0.0,0.0,-2.39,-2.5126,-2.7098,-2.8262,-2.9892,-3.2508,-3.4764,-3.6408,-3.72,0.0,0.0,0.0,0.0,0.0,0.0,0.0,0.0,0.0,-3.7988,-3.953,-4.1126,-4.2001,-4.2537,-4.2701,-4.227,-4.149,-4.0423,-3.89,-3.7854,0.0,0.0,0.0,0.0,0.0,0.0,-3.9289,0.0,0.0,0.0,0.0,0.0,0.0,0.0,0.0,0.0,0.0,0.0,0.0,0.0,-3.9886,-4.2245,-4.405,-4.5938,-4.7388,-4.7388,-4.6416,-4.5461,-4.5461,-4.4586,-4.3849,-4.3971,-4.419,-4.4433,-4.4567,-4.4872,-4.5063,-4.4931,-4.5182,-4.5362,-4.5243,0.0,0.0,-5.1173,0.0,0.0,0.0,0.0,0.0,0.0,0.0,0.0,0.0,-5.5225,-5.4899,-5.4777,-5.475,-5.4333,-5.3516,-5.2656,-5.1777,-5.0937,-5.0117,-4.9258,-4.8418,-4.8418,0.0,0.0,0.0,0.0,0.0,-4.6797,-4.6816,-4.7519,-4.6553,-4.6053,-4.589,-4.585,-4.5742,-4.5594,0.0,0.0,0.0,0.0,0.0,0.0,0.0,0.0,0.0,0.0,-2.8505,-3.0614,-3.4119,-3.61,-3.7899,0.0,0.0,0.0,0.0,0.0,0.0,0.0,0.0,0.0,0.0,-4.0058,-4.1338,-4.1252,-4.3614,-4.4355,-4.3535,-4.3917,-4.3401,-4.2136,-4.093,0.0,0.0,0.0,0.0,0.0,0.0,0.0,0.0,0.0,0.0,0.0,0.0,0.0,0.0,0.0,0.0,0.0,0.0,0.0,0.0,0.0,0.0,0.0,0.0,-4.3865,-4.5663,-4.57,-4.5168,-4.4617,-4.4617,-4.403,0.0,-4.3838,-4.3915,-4.4073,-4.4385,-4.4756,-4.4919,-4.4606,-4.4849,-4.4954,-4.4688,-4.6452,0.0,0.0,-5.3075,0.0,-5.4393,0.0,0.0,0.0,0.0,0.0,0.0,-5.3226,-5.2876,-5.1946,-5.2951,-5.3175,-5.2519,-5.1699,-5.0879,-5.0019,-4.9199,-4.8359,-4.7519,-4.7519,0.0,0.0,0.0,0.0,0.0,-4.6973,-4.6777,-4.7422,-4.6621,-4.6145,-4.5912,-4.5912,-4.5795,-4.562,0.0,0.0,0.0,0.0,0.0,0.0,0.0,0.0,0.0,0.0,0.0,-3.2087,-3.5134,-3.8207,0.0,0.0,0.0,0.0,0.0,0.0,0.0,0.0,0.0,0.0,0.0,-4.1936,-4.3182,-4.3822,-4.4336,-4.4673,-4.4832,-4.4181,-4.3577,-4.2955,-4.1696,0.0,0.0,0.0,0.0,0.0,0.0,0.0,0.0,0.0,0.0,0.0,-4.0942,-4.0499,0.0,0.0,0.0,0.0,0.0,0.0,0.0,0.0,-3.7837,-3.836,-4.0257,0.0,-4.3296,-4.3901,-4.392,-4.3773,0.0,-4.3626,-4.3348,-4.2805,-4.3188,-4.3461,-4.2931,-4.3621,-4.4233,-4.4146,-4.4474,-4.4788,-4.4954,-4.7555,0.0,-5.1576,-5.4249,-5.5212,0.0,0.0,0.0,0.0,0.0,-5.3318,0.0,-5.2242,-5.1629,-5.0231,-5.0461,-5.0602,-5.0635,-5.042,-4.9616,-4.8203,-4.8008,-4.7441,-4.6601,-4.6601,0.0,0.0,0.0,0.0,-4.6875,-4.6465,-4.6426,-4.6582,-4.6387,-4.62,-4.6047,-4.6047,-4.5924,-4.5754,0.0,0.0,0.0,0.0,0.0,0.0,0.0,0.0,0.0,0.0,0.0,0.0,0.0,0.0,0.0,0.0,0.0,0.0,0.0,0.0,0.0,0.0,0.0,0.0,-4.152,-4.3148,-4.4205,-4.4611,-4.4782,-4.4983,-4.5199,-4.431,-4.3894,-4.3851,-4.2639,0.0,0.0,0.0,0.0,0.0,-4.2591,0.0,0.0,0.0,0.0,0.0,-4.0862,-4.0384,0.0,-4.0197,-3.9741,-3.8899,0.0,0.0,0.0,0.0,-3.7126,-3.7346,-3.8691,-4.0472,-4.2192,-4.3243,-4.3515,-4.3387,-4.302,-4.2947,-4.2708,-4.1919,-4.2103,-4.2378,-4.2304,-4.2921,-4.3509,-4.3749,-4.4076,-4.4683,0.0,0.0,-4.9211,-5.1252,-5.3041,-5.3716,0.0,0.0,0.0,0.0,0.0,0.0,0.0,-5.0154,-4.9777,-4.8952,-4.8913,-4.9065,-4.9406,-4.9018,-4.8398,-4.7598,-4.7187,-4.6758,-4.6308,-4.6308,-4.6308,0.0,0.0,0.0,-4.6269,-4.5879,-4.5937,-4.6269,-4.5859,-4.5872,-4.6108,-4.6108,-4.5994,-4.5842,0.0,0.0,0.0,0.0,0.0,0.0,0.0,0.0,0.0,0.0,0.0,0.0,0.0,0.0,0.0,0.0,0.0,0.0,0.0,0.0,0.0,0.0,0.0,-4.2594,-4.2461,-4.4025,-4.4771,-4.459,-4.5043,-4.515,-4.4931,-4.4285,-4.4073,-4.4165,-4.3415,-4.2723,0.0,0.0,-4.3681,0.0,-4.4199,0.0,0.0,0.0,0.0,0.0,0.0,0.0,0.0,-3.9339,-3.9173,-3.8985,-3.8303,0.0,0.0,0.0,0.0,0.0,-3.748,-3.9466,-4.1555,-4.2866,-4.3353,-4.3331,-4.2635,-4.2396,-4.2066,-4.126,-4.1187,-4.1444,-4.2011,-4.254,-4.3052,-4.3437,0.0,0.0,-4.6456,-4.684,-4.7766,-4.9973,-5.0827,0.0,0.0,0.0,0.0,0.0,0.0,0.0,0.0,-4.8029,-4.799,-4.774,-4.7855,-4.8026,-4.8268,-4.7672,-4.7373,-4.7362,-4.662,-4.6289,-4.6308,-4.6289,-4.6289,0.0,0.0,0.0,-4.6035,-4.5156,-4.5234,-4.582,-4.5098,-4.517,-4.573,-4.573,-4.5652,-4.5533,0.0,0.0,0.0,0.0,0.0,0.0,0.0,0.0,0.0,0.0,0.0,0.0,0.0,0.0,0.0,0.0,0.0,0.0,0.0,0.0,0.0,0.0,-4.469,-4.4263,-4.413,-4.5012,-4.5308,-4.5013,-4.5086,-4.4804,-4.4175,-4.4043,-4.3427,-4.2435,-4.3451,-4.3233,-4.2167,-4.3235,-4.4101,-4.4666,-4.3232,0.0,0.0,0.0,0.0,0.0,0.0,0.0,0.0,-3.9953,-3.9576,-3.9085,-3.8957,0.0,0.0,0.0,0.0,0.0,-3.7966,-3.9277,-4.0327,-4.1518,-4.2649,-4.3478,-4.3332,-4.2782,-4.2066,-4.126,-4.1644,-4.1956,-4.1389,-4.2445,-4.3418,-4.3478,0.0,-4.5493,0.0,0.0,-4.8333,-4.7738,0.0,0.0,0.0,0.0,0.0,0.0,0.0,0.0,0.0,-4.774,-4.7451,-4.6037,-4.6701,-4.6807,-4.6246,-4.6907,-4.6927,-4.6337,-4.6199,-4.6198,-4.6308,-4.6177,-4.6199,0.0,0.0,-4.5195,-4.5137,-4.4258,-4.3984,-4.4082,-4.3945,-4.3965,-4.4061,-4.4061,-4.4028,-4.3925,0.0,0.0,0.0,0.0,0.0,0.0,0.0,0.0,0.0,0.0,0.0,0.0,0.0,0.0,0.0,0.0,0.0,0.0,0.0,0.0,0.0,-4.5845,-4.5498,-4.5228,-4.5098,-4.5677,-4.5701,-4.5096,-4.5142,-4.4759,-4.4001,-4.4001,-4.3415,-4.2427,-4.3574,-4.367,-4.2972,-4.3978,-4.4902,-4.5586,0.0,0.0,0.0,0.0,0.0,0.0,0.0,0.0,0.0,0.0,-3.9133,-3.8627,-3.8505,0.0,0.0,0.0,0.0,0.0,-3.6516,-3.7702,-3.8825,-3.9758,-4.1598,-4.2958,-4.2129,-4.1868,-4.1595,-4.0778,-4.1166,-4.168,-4.1754,-4.2359,-4.313,-4.4011,0.0,-4.5765,-4.6361,-4.656,-4.6595,0.0,0.0,0.0,0.0,0.0,0.0,0.0,0.0,0.0,0.0,0.0,-4.6394,-4.5614,-4.599,-4.6022,-4.5704,-4.6197,-4.629,-4.5992,-4.5992,-4.6011,-4.6082,-4.6106,-4.5888,-4.5476,0.0,-4.4726,-4.4238,-4.3359,-4.3281,-4.3652,-4.3183,-4.3281,-4.3691,-4.3691,-4.3663,-4.3522,0.0,0.0,0.0,0.0,0.0,0.0,0.0,0.0,0.0,0.0,0.0,0.0,0.0,0.0,0.0,0.0,0.0,0.0,0.0,0.0,-4.5951,-4.5809,-4.5782,-4.5804,-4.5902,-4.616,-4.5955,-4.5262,-4.5218,-4.4783,-4.3998,-4.4106,-4.3731,-4.3041,-4.4078,-4.418,-4.3677,-4.4821,-4.5566,-4.5937,0.0,0.0,0.0,0.0,0.0,0.0,0.0,0.0,0.0,0.0,0.0,0.0,0.0,0.0,0.0,-3.697,-3.6095,-3.5164,-3.5426,-3.6433,-3.7547,-3.8099,-4.0206,-4.1948,-4.129,-4.1194,-4.1149,-4.086,-4.1053,-4.1466,-4.2227,-4.2495,0.0,-4.447,-4.5223,-4.5681,-4.5865,-4.5369,-4.5223,0.0,0.0,0.0,0.0,0.0,0.0,0.0,0.0,0.0,0.0,0.0,-4.521,-4.5017,-4.5402,-4.5498,-4.5306,-4.5391,-4.5596,-4.5877,-4.5877,-4.5872,-4.5903,-4.5997,-4.5562,-4.4763,-4.4695,-4.4177,-4.3319,-4.2461,-4.2519,-4.3047,-4.2383,-4.2539,-4.3105,-4.3105,-4.3081,-4.2941,0.0,0.0,0.0,0.0,0.0,0.0,0.0,0.0,0.0,0.0,0.0,0.0,0.0,0.0,0.0,0.0,0.0,0.0,0.0,0.0,-4.5828,-4.5803,-4.5688,-4.5988,-4.6797,-4.6466,-4.6117,-4.5746,-4.5383,-4.4783,-4.4016,-4.4373,-4.4311,-4.3959,-4.5204,-4.4958,-4.3716,-4.5466,-4.5781,-4.5098,-4.5039,0.0,0.0,0.0,0.0,0.0,0.0,0.0,0.0,0.0,0.0,0.0,0.0,0.0,-3.7817,-3.7802,-3.6398,-3.5045,-3.6032,-3.6585,-3.6881,-3.6915,-3.8395,-4.0332,-4.2285,-4.1665,-4.1028,-4.233,-4.209,-4.1858,-4.2469,-4.3051,-4.3699,-4.4562,-4.4746,-4.5057,-4.5792,0.0,0.0,0.0,0.0,0.0,0.0,0.0,0.0,0.0,0.0,0.0,0.0,0.0,0.0,-4.3297,-4.4786,-4.521,-4.4393,-4.4391,-4.4878,-4.5816,-4.5816,-4.5836,-4.5899,-4.5861,-4.5412,-4.4678,-4.3997,-4.3205,-4.2334,-4.1599,-4.1328,-4.1367,-4.1308,-4.1328,-4.1387,-4.1387,-4.1387,-4.1346,0.0,0.0,0.0,0.0,0.0,0.0,0.0,0.0,0.0,0.0,0.0,0.0,0.0,0.0,0.0,0.0,0.0,0.0,0.0,0.0,-4.5768,-4.5688,-4.5637,-4.5888,-4.6508,-4.6649,-4.6315,-4.5435,-4.4554,-4.4209,-4.4378,-4.4527,-4.4511,-4.437,-4.5389,-4.5272,-4.4432,-4.5661,-4.6029,-4.5762,-4.5215,-4.4473,0.0,0.0,0.0,0.0,0.0,0.0,0.0,0.0,-3.8097,-3.8093,-3.7719,-3.74,-3.7067,-3.6537,-3.5505,-3.4508,-3.4639,-3.5552,-3.6429,-3.6113,-3.7308,-3.9008,-4.0761,-4.1348,-4.1684,-4.2242,-4.2763,-4.2888,-4.2016,0.0,-4.4176,-4.3993,-4.4782,-4.5553,-4.5865,0.0,0.0,0.0,0.0,0.0,0.0,0.0,0.0,0.0,0.0,0.0,0.0,0.0,0.0,-4.3096,-4.3701,-4.3893,-4.3566,-4.3547,-4.3742,-4.4118,-4.4118,-4.4406,-4.4884,-4.4408,-4.3761,-4.3014,-4.286,-4.2303,-4.1488,-4.1286,-4.1191,-4.1191,-4.1191,-4.1191,-4.1191,-4.1191,-4.1191,-4.1191,0.0,0.0,0.0,0.0,0.0,0.0,0.0,0.0,0.0,0.0,0.0,0.0,0.0,0.0,0.0,0.0,0.0,0.0,0.0,-4.5768,-4.5692,-4.5603,-4.5594,-4.5764,-4.6121,-4.6465,-4.6162,-4.5227,-4.4066,-4.3738,-4.4202,-4.4479,-4.4565,-4.4544,-4.5409,-4.5284,-4.4487,-4.562,-4.5862,-4.5488,-4.543,-4.4726,0.0,0.0,0.0,0.0,0.0,0.0,0.0,0.0,-3.7552,-3.7434,0.0,-3.6907,-3.687,-3.6111,-3.5377,-3.4659,-3.3839,-3.4785,-3.5862,-3.5382,-3.6417,-3.8058,-3.9986,-4.1153,-4.1948,-4.2412,-4.2988,-4.2969,-4.1522,0.0,0.0,0.0,-4.4181,-4.4949,0.0,0.0,0.0,0.0,0.0,0.0,0.0,0.0,0.0,0.0,0.0,0.0,0.0,0.0,0.0,0.0,-4.2494,-4.2566,-4.2277,-4.2277,-4.2277,-4.2277,-4.2027,-4.2604,-4.3902,-4.3395,-4.2563,-4.1545,-4.1719,-4.1318,-4.0564,-4.0671,-4.0741,-4.0781,-4.0781,-4.0625,-4.041,-4.0684,-4.0625,-4.0469,0.0,0.0,0.0,0.0,0.0,0.0,0.0,0.0,0.0,0.0,0.0,0.0,0.0,0.0,0.0,0.0,0.0,0.0,-4.5732,-4.5653,-4.5594,-4.5594,-4.5575,-4.5646,-4.5792,-4.5784,-4.5632,-4.5292,-4.4083,-4.3426,-4.3309,-4.4183,-4.4556,-4.4524,-4.5389,-4.4968,-4.3704,-4.5365,-4.5159,-4.3867,-4.5586,-4.5254,-4.3691,0.0,0.0,0.0,0.0,0.0,0.0,0.0,-3.781,-3.7169,0.0,0.0,0.0,-3.6876,-3.6342,-3.5663,-3.4096,-3.4458,-3.5155,-3.4623,-3.5678,-3.7591,-4.051,-4.1187,-4.1627,-4.3071,-4.2706,-4.1849,-4.1041,-4.0775,0.0,-4.2472,-4.2674,0.0,0.0,0.0,0.0,0.0,0.0,0.0,0.0,0.0,0.0,0.0,0.0,0.0,0.0,0.0,0.0,0.0,-4.1172,-4.1346,-4.0477,-4.0477,-4.0477,-4.0477,-3.9669,-4.0623,-4.3066,-4.3066,-4.2124,-4.0504,-4.063,-4.0262,-3.9586,-3.965,-3.9774,-3.9883,-3.9883,-3.9355,-3.8691,-3.957,-3.9336,-3.8848,0.0,0.0,0.0,0.0,0.0,0.0,0.0,0.0,0.0,0.0,0.0,0.0,0.0,0.0,0.0,0.0,0.0,0.0,0.0,-4.4705,-4.4682,-4.4682,-4.4461,-4.4527,-4.4951,-4.4453,-4.4406,-4.4881,-4.3382,-4.2888,-4.3309,-4.3574,-4.3621,-4.3547,-4.4376,-4.4273,-4.349,-4.398,-4.437,-4.4668,-4.5176,-4.4707,-4.3691,0.0,0.0,0.0,0.0,0.0,0.0,0.0,0.0,0.0,-3.6567,0.0,-3.7424,-3.5334,-3.4841,-3.4568,-3.2785,-3.3152,-3.4115,-3.4415,-3.6434,-3.8565,-3.9445,-4.046,-4.1474,-4.2439,-4.1909,-4.1018,-4.0193,-4.0819,0.0,-4.0546,-4.0927,0.0,0.0,0.0,0.0,0.0,0.0,0.0,0.0,0.0,0.0,0.0,0.0,0.0,0.0,0.0,0.0,0.0,-3.8499,-3.863,-3.8738,-3.8547,-3.8547,-3.8738,-3.8507,-3.9392,-4.1247,-4.0689,-4.015,-3.9619,-3.9154,-3.8824,-3.8627,-3.8736,-3.8855,-3.8984,-3.8984,-3.8828,-3.8633,-3.8887,-3.8828,-3.8672,0.0,0.0,0.0,0.0,0.0,0.0,0.0,0.0,0.0,0.0,0.0,0.0,0.0,0.0,0.0,0.0,0.0,0.0,0.0,0.0,-4.46,-4.4116,-4.4246,-4.4341,-4.4359,-4.3807,-4.3736,-4.4213,-4.2928,-4.2465,-4.2787,-4.3127,-4.3235,-4.3143,-4.3932,-4.3761,-4.2909,-4.3248,-4.3434,-4.3555,-4.4219,-4.3965,-4.3183,0.0,0.0,0.0,0.0,0.0,0.0,0.0,0.0,0.0,-3.5986,-3.6378,-3.6681,-3.4928,-3.4515,-3.4375,-3.324,-3.3677,-3.4651,-3.5483,-3.7364,-3.9073,-3.9385,-4.0341,-4.1339,-4.1762,-4.1171,-4.0329,-3.9568,-3.9882,0.0,-3.9305,0.0,0.0,0.0,0.0,0.0,0.0,0.0,0.0,0.0,0.0,0.0,0.0,0.0,0.0,0.0,0.0,0.0,0.0,-3.656,-3.652,-3.7156,-3.6788,-3.6689,-3.6857,-3.6952,-3.77,-3.8988,-3.8854,-3.8584,-3.8253,-3.7845,-3.7679,-3.7719,-3.8199,-3.8262,-3.8042,-3.8066,-3.7871,-3.7617,-3.7969,-3.7851,-3.7676,0.0,0.0,0.0,0.0,0.0,0.0,0.0,0.0,0.0,0.0,0.0,0.0,0.0,0.0,0.0,0.0,0.0,0.0,0.0,0.0,-4.4978,-4.3846,-4.4584,-4.4676,-4.3971,-4.3662,-4.346,-4.3404,-4.258,-4.2119,-4.1989,-4.2813,-4.3061,-4.2868,-4.3788,-4.3315,-4.1911,-4.2715,-4.2278,-4.1191,-4.2812,-4.2949,-4.2187,-4.2266,0.0,0.0,0.0,0.0,0.0,0.0,0.0,0.0,-3.5737,-3.5702,-3.5639,-3.5166,-3.4836,-3.4609,-3.4525,-3.5022,-3.5857,-3.7092,-3.8242,-3.9276,-4.0045,-4.0663,-4.1102,-4.1102,-4.0502,-3.9775,-3.9123,-3.8345,-3.7925,0.0,0.0,0.0,0.0,0.0,0.0,0.0,0.0,0.0,0.0,0.0,0.0,0.0,0.0,0.0,0.0,0.0,0.0,-3.618,-3.5044,-3.4759,-3.5555,-3.5068,-3.4814,0.0,-3.5181,-3.5736,-3.65,-3.745,-3.7411,-3.661,-3.6725,-3.672,-3.6731,-3.774,-3.7673,-3.6981,-3.7125,-3.6699,-3.6094,-3.6894,-3.6621,-3.6113,0.0,0.0,0.0,0.0,0.0,0.0,0.0,0.0,0.0,0.0,0.0,0.0,0.0,0.0,0.0,0.0,0.0,0.0,0.0,0.0,-4.4344,-4.3808,-4.4082,-4.4046,-4.3631,-4.3531,-4.3185,-4.2561,-4.1754,-4.1462,-4.1712,-4.2159,-4.1783,-4.0826,-4.2586,-4.21,-4.0003,-4.0293,-4.0259,-4.0119,-4.1268,-4.1211,-4.0508,-4.1191,-4.0273,0.0,0.0,0.0,0.0,0.0,0.0,0.0,-3.5713,-3.5771,-3.5554,-3.4075,-3.3488,-3.3158,-3.2477,-3.2668,-3.3628,-3.5976,-3.8219,-4.0062,-4.0798,-4.0629,-4.035,-4.035,-3.9749,-3.9191,-3.9022,-3.7905,-3.6869,0.0,0.0,0.0,0.0,0.0,0.0,0.0,0.0,0.0,0.0,0.0,0.0,0.0,0.0,0.0,0.0,0.0,0.0,-3.2825,-3.2368,-3.2385,-3.2987,-3.2662,-3.2732,0.0,-3.3842,-3.4361,-3.4795,-3.6295,-3.6519,-3.575,-3.5797,-3.5448,-3.4923,-3.5833,-3.5795,-3.5228,-3.5934,-3.6125,-3.6016,-3.6211,-3.5723,-3.5039,0.0,0.0,0.0,0.0,0.0,0.0,0.0,0.0,0.0,0.0,0.0,0.0,0.0,0.0,0.0,0.0,0.0,0.0,0.0,0.0,0.0,0.0,-4.3907,-4.3695,-4.3496,-4.3112,-4.2708,-4.2304,-4.1111,-4.0674,-4.0984,-4.118,-4.1062,-4.0701,-4.137,-4.0812,-3.9387,-3.9095,-3.8789,-3.8583,-3.9568,-3.9687,-3.9336,-3.9785,-3.9121,-3.8086,-3.8965,0.0,0.0,0.0,0.0,0.0,0.0,0.0,-3.4956,-3.4003,-3.3035,-3.2326,-3.2542,-3.2825,-3.3702,-3.6364,-3.8203,-3.9419,-3.9562,-3.9326,-3.9039,-3.9039,-3.9005,-3.8886,-3.8531,-3.7246,0.0,0.0,0.0,0.0,0.0,0.0,0.0,0.0,0.0,0.0,0.0,0.0,0.0,0.0,0.0,0.0,0.0,-3.1017,-3.1066,-3.1594,-3.1096,-3.1142,-3.1814,-3.1408,-3.1555,-3.2213,-3.2477,-3.2938,-3.3622,-3.4911,-3.5276,-3.4853,-3.4449,-3.4019,-3.3663,-3.4196,-3.4419,-3.4516,-3.5037,-3.5275,-3.5323,-3.5291,-3.4776,-3.4062,0.0,0.0,0.0,0.0,0.0,0.0,0.0,0.0,0.0,0.0,0.0,0.0,0.0,0.0,0.0,0.0,0.0,0.0,0.0,0.0,0.0,0.0,-4.3809,-4.3441,-4.3313,-4.2635,-4.2158,-4.1882,-4.0414,-3.9887,-4.0234,-4.0351,-4.0672,-4.1092,-4.0557,-3.9851,-3.9039,-3.8486,-3.7744,-3.7015,-3.7961,-3.8261,-3.8144,-3.8301,-3.7832,-3.7187,-3.8066,-3.7296,-3.5979,-3.6748,0.0,0.0,0.0,0.0,-3.4046,-3.3904,-3.2691,-3.1688,-3.2981,-3.3704,-3.4655,-3.6915,-3.794,-3.8257,-3.7746,-3.7617,-3.7594,-3.7516,-3.799,-3.8227,-3.7635,0.0,0.0,0.0,0.0,0.0,0.0,0.0,0.0,0.0,0.0,0.0,0.0,0.0,0.0,0.0,0.0,0.0,-3.0968,-3.0356,-3.0301,-3.0962,-3.0338,-3.032,-3.098,-3.0546,-3.0692,-3.1382,-3.1326,-3.186,-3.291,-3.3506,-3.384,-3.3936,-3.3218,-3.2814,-3.2711,-3.297,-3.3374,-3.3887,-3.4159,-3.4297,-3.4343,-3.4297,-3.3797,-3.312,0.0,0.0,0.0,0.0,0.0,0.0,0.0,0.0,0.0,0.0,0.0,0.0,0.0,0.0,0.0,0.0,0.0,0.0,0.0,0.0,0.0,0.0,-4.3497,-4.3167,-4.2488,-4.2359,-4.1625,-4.0212,-3.9313,-3.9234,-3.9958,-4.0257,-4.0415,-4.044,-4.093,-3.9891,-3.7766,-3.8022,-3.723,-3.5915,-3.6967,-3.6928,-3.6345,-3.7166,-3.6934,-3.6289,-3.7168,-3.6717,-3.5859,-3.6709,-3.6333,0.0,0.0,0.0,-3.3045,-3.234,-3.1429,-3.0816,-3.1581,-3.3319,-3.514,-3.5938,-3.6855,-3.7372,-3.6672,-3.6513,-3.6384,0.0,-3.5988,-3.6022,-3.5921,0.0,0.0,0.0,0.0,0.0,0.0,0.0,0.0,0.0,0.0,0.0,0.0,0.0,0.0,0.0,0.0,0.0,-2.9305,-2.9225,-2.9207,-2.9317,-2.9225,-2.9207,-2.9317,-2.9242,-2.9381,-2.9729,-3.0787,-3.186,-3.2872,-3.2295,-3.241,-3.3064,-3.2949,-3.2506,-3.191,-3.2627,-3.261,-3.2206,-3.2994,-3.332,-3.3398,-3.3387,-3.2831,-3.2109,0.0,0.0,0.0,0.0,0.0,0.0,0.0,0.0,0.0,0.0,0.0,0.0,0.0,0.0,0.0,0.0,0.0,0.0,0.0,0.0,0.0,-4.2364,-4.2665,-4.2451,-4.1662,-4.1627,-4.0836,-3.9239,-3.8414,-3.8686,-3.9898,-3.9586,-4.0018,-4.1017,-4.05,-3.9511,-3.8146,-3.7642,-3.6728,-3.5645,-3.6142,-3.617,-3.5944,-3.6351,-3.6278,-3.5985,-3.6375,-3.6141,-3.5696,-3.6088,-3.5574,-3.4699,-3.4321,0.0,0.0,0.0,-3.1155,-3.0677,-3.1503,-3.2687,-3.3915,-3.4842,-3.5615,-3.6062,-3.5705,-3.5631,-3.5396,-3.4586,-3.3948,-3.3823,0.0,0.0,0.0,0.0,0.0,0.0,0.0,0.0,0.0,0.0,0.0,0.0,0.0,0.0,0.0,0.0,0.0,-2.8373,-2.897,-2.9005,-2.9005,-2.9005,-2.8565,-2.8338,-2.8338,-2.8338,-2.8684,-2.9412,-3.0082,-3.0715,-3.1268,-3.1059,-3.1423,-3.2199,-3.1718,-3.1288,-3.0962,-3.0833,-3.1168,-3.1736,-3.1639,-3.1937,-3.2415,-3.2376,-3.1573,-3.0495,0.0,0.0,0.0,0.0,0.0,0.0,0.0,0.0,0.0,0.0,0.0,0.0,0.0,0.0,0.0,0.0,0.0,0.0,0.0,0.0,0.0,-4.1288,-4.1926,-4.1827,-4.0836,-4.0799,-4.001,-3.8395,-3.7603,-3.8117,-3.9882,-3.9294,-4.0108,-4.2009,-4.0648,-3.9606,-3.8849,-3.7797,-3.6915,-3.6182,-3.5817,-3.5743,-3.5843,-3.5843,-3.5871,-3.59,-3.5869,-3.5739,-3.5611,-3.5611,-3.4977,-3.4167,-3.3936,-3.2872,0.0,0.0,0.0,-3.0657,-3.1354,-3.1961,-3.2628,-3.3455,-3.4118,-3.4517,-3.427,-3.4371,-3.4184,0.0,-3.2295,-3.2179,0.0,0.0,0.0,0.0,0.0,0.0,0.0,0.0,0.0,0.0,0.0,0.0,0.0,0.0,0.0,0.0,0.0,-2.8085,-2.8523,-2.883,-2.8822,-2.84,-2.8007,-2.7695,-2.7493,-2.7695,-2.8233,-2.9077,-2.9458,-2.9765,-3.0006,-3.0202,-3.0579,-3.1025,-3.0596,-3.0269,-3.0019,-2.9377,-2.9761,-3.0679,-3.0019,-3.0188,-3.0791,-3.0739,-3.0004,-2.9006,0.0,0.0,0.0,0.0,0.0,0.0,0.0,0.0,0.0,0.0,0.0,0.0,0.0,-4.0462,-4.05,-4.0454,0.0,0.0,0.0,0.0,0.0,-4.0407,-4.1615,0.0,-3.9992,-3.9955,-3.9182,-3.7566,-3.6758,-3.7569,-3.99,-3.9845,-4.1109,-4.3364,-4.205,-4.0774,-3.9501,-3.8887,-3.8319,-3.7747,-3.6215,-3.5657,-3.5713,-3.5713,-3.5797,-3.5877,-3.5758,-3.5663,-3.5611,-3.5611,-3.4977,-3.4071,-3.3237,-3.2372,-3.1545,0.0,0.0,0.0,-3.0563,-3.1241,-3.1888,-3.1709,-3.2295,-3.2717,-3.1958,0.0,-3.254,-3.1199,-3.1351,0.0,0.0,0.0,0.0,0.0,0.0,0.0,0.0,0.0,0.0,0.0,0.0,0.0,0.0,0.0,0.0,0.0,0.0,-2.7727,-2.7319,-2.8377,-2.8308,-2.6767,-2.742,-2.742,-2.6667,-2.742,-2.792,-2.8184,-2.9013,-2.9626,-3.0006,-3.0013,-2.9736,-2.928,-3.0058,-2.9929,-2.9165,-2.9127,-2.8703,-2.8088,-2.8049,-2.8055,-2.8098,-2.8107,-2.8055,-2.7995,0.0,0.0,0.0,0.0,0.0,0.0,0.0,0.0,0.0,0.0,0.0,0.0,0.0,-4.0389,-4.0496,-4.0496,-4.0347,0.0,0.0,0.0,0.0,-3.9302,-4.0717,-4.0781,-3.9166,-4.0139,-3.9386,-3.674,-3.6431,-3.6743,-3.7588,-3.8117,-3.9108,-4.043,-4.0663,-4.0309,-3.9439,-3.7841,-3.6865,-3.6353,-3.5766,-3.5591,-3.57,-3.565,-3.569,-3.5758,-3.5663,-3.5595,-3.554,-3.554,-3.4944,0.0,0.0,-3.2352,-3.1525,-3.0654,-3.0425,-3.0451,-3.05,-3.0745,-3.1129,-3.162,-3.1576,-3.1557,-3.2216,-3.2166,-3.1776,-3.1132,-3.0988,0.0,0.0,0.0,0.0,0.0,0.0,0.0,0.0,0.0,0.0,0.0,0.0,0.0,0.0,0.0,0.0,0.0,0.0,0.0,-2.7949,-2.7888,-2.7711,-2.7383,-2.666,-2.6127,-2.5833,-2.6127,-2.6804,-2.7912,-2.8356,-2.8998,-2.9794,-2.9414,-2.9174,-2.9088,-2.8871,-2.8621,-2.8299,-2.7736,-2.7659,-2.7838,-2.7274,-2.7409,-2.7895,-2.7895,-2.7544,-2.7073,0.0,0.0,0.0,0.0,0.0,0.0,0.0,0.0,0.0,0.0,0.0,0.0,0.0,0.0,-4.0995,-4.117,-4.0749,-4.0453,-4.0318,-3.9564,-3.8971,-3.8704,-3.9992,-4.0084,-3.8726,-3.9478,-3.8707,-3.6303,-3.6009,-3.6009,-3.6321,-3.7125,-3.7933,-3.8707,-3.8884,-3.9171,-3.939,-3.7409,-3.6472,-3.6295,-3.5759,-3.5785,-3.6163,-3.6358,-3.6483,-3.6561,-3.6457,-3.6196,-3.5865,-3.5596,0.0,0.0,0.0,-3.216,-3.1154,-3.0577,-3.0404,-3.0408,-3.0447,-3.0486,-3.0653,-3.1264,-3.1026,-3.0819,-3.1479,-3.1642,-3.1432,-3.0661,-3.0723,0.0,0.0,0.0,0.0,0.0,0.0,0.0,0.0,0.0,0.0,0.0,0.0,0.0,0.0,0.0,0.0,0.0,0.0,0.0,-2.7821,-2.7425,-2.7139,-2.6998,-2.5705,-2.5007,-2.5007,-2.5264,-2.5944,-2.7008,-2.7399,-2.8035,-2.8846,-2.8442,-2.8261,-2.8242,-2.7698,-2.7467,-2.7409,-2.6832,-2.6774,-2.6967,-2.639,-2.6524,-2.7024,-2.7024,-2.6659,-2.6154,0.0,0.0,0.0,0.0,0.0,0.0,0.0,0.0,0.0,-3.7797,0.0,0.0,0.0,0.0,0.0,-4.2463,-4.1758,-4.0999,-4.0379,-3.9551,-3.8957,-3.8704,0.0,0.0,0.0,-3.7933,-3.7125,-3.6303,-3.5426,-3.5426,-3.6229,-3.7052,-3.7826,-3.8524,-3.6964,-3.7472,-3.938,-3.7725,-3.7386,-3.7803,-3.6256,-3.6172,-3.7062,-3.7783,-3.8123,-3.8198,-3.8003,-3.7392,0.0,-3.5769,0.0,0.0,0.0,-3.1756,-3.0404,-3.0404,-3.0404,-3.0404,0.0,0.0,0.0,-3.046,-3.0547,-3.039,-2.9511,0.0,-3.1397,-2.9666,-3.0497,0.0,0.0,0.0,0.0,0.0,0.0,0.0,0.0,0.0,0.0,0.0,0.0,0.0,0.0,0.0,0.0,0.0,0.0,-2.7111,-2.6753,-2.7015,-2.6637,-2.5438,-2.464,-2.4226,-2.419,-2.5007,-2.5393,-2.5411,-2.6227,-2.6812,-2.7204,-2.7185,-2.6958,-2.6601,-2.6563,-2.6563,-2.6563,-2.6563,-2.6058,-2.5308,-2.5308,-2.5308,-2.5308,-2.5308,-2.5308,-2.5308,0.0,0.0,0.0,0.0,0.0,0.0,0.0,0.0,-3.8503,0.0,0.0,0.0,-4.0208,-4.074,-4.1524,-4.2616,-4.1402,-4.0653,-4.088,-3.9577,-3.8792,-3.8707,-3.946,-3.9515,0.0,0.0,0.0,0.0,0.0,0.0,0.0,0.0,0.0,-3.5995,-3.5555,-3.5829,-3.6575,-3.5719,-3.5903,-3.675,-3.6507,-3.6603,0.0,0.0,0.0,0.0,0.0,-3.6038,-3.5808,0.0,-3.5173,-3.4558,0.0,-3.1756,-3.0404,-3.0404,-3.0404,-3.0404,-3.0404,0.0,0.0,0.0,0.0,0.0,0.0,0.0,-2.9353,-2.9434,0.0,0.0,0.0,0.0,0.0,0.0,0.0,0.0,0.0,0.0,0.0,0.0,0.0,0.0,0.0,0.0,0.0,0.0,-2.6791,-2.6949,-2.7113,-2.717,-2.6637,-2.5438,-2.5172,-2.4787,-2.4208,-2.5007,-2.5393,-2.5411,-2.6227,-2.6812,-2.7185,-2.6604,-2.6438,-2.6563,-2.5923,-2.5654,-2.5654,-2.5654,-2.5519,-2.5308,-2.5308,-2.5308,-2.5308,-2.5308,-2.5308,-2.5308,0.0,0.0,0.0,0.0,0.0,0.0,0.0,0.0,-3.9784,0.0,0.0,0.0,-4.1491,-4.1731,-4.2232,-4.3215,-4.1785,-4.0919,-4.1091,-3.9591,-3.8707,-3.8707,-3.9148,-3.9184,-3.8707,0.0,0.0,0.0,0.0,0.0,0.0,0.0,0.0,0.0,-3.4319,-3.444,-3.4791,-3.4733,-3.5135,0.0,-3.6129,0.0,0.0,-3.7192,-3.7023,0.0,0.0,0.0,-3.6442,-3.5731,-3.525,0.0,0.0,0.0,-3.0865,0.0,-3.0404,-3.0404,-3.0404,-3.0404,-3.0292,-2.9819,0.0,0.0,-2.8857,-2.8573,-2.8295,0.0,0.0,0.0,0.0,0.0,0.0,0.0,0.0,0.0,0.0,0.0,0.0,0.0,0.0,0.0,0.0,0.0,0.0,-2.6657,-2.6691,-2.6802,-2.7048,-2.7143,-2.6637,-2.5438,-2.5393,-2.5007,-2.4208,-2.4677,-2.4897,-2.4915,-2.5364,-2.5764,-2.6067,-2.5668,-2.5663,-2.5907,-2.5475,-2.5308,-2.5308,-2.5308,-2.5308,-2.5308,-2.5308,-2.5308,-2.5308,-2.5308,-2.5308,-2.5308,0.0,0.0,0.0,0.0,0.0,0.0,0.0,0.0,0.0,0.0,-4.1542,-4.2103,-4.3203,-4.323,-4.339,-4.3896,-4.2467,-4.1423,-4.1128,-3.9515,-3.8579,-3.8579,-3.8579,-3.8524,-3.845,0.0,0.0,0.0,0.0,0.0,0.0,0.0,0.0,0.0,0.0,0.0,-3.3842,-3.4431,0.0,-3.5086,-3.554,-3.6195,0.0,0.0,-3.7931,-3.7887,-3.7763,-3.7719,-3.7488,-3.6,-3.4853,0.0,0.0,0.0,0.0,0.0,-3.0481,-3.0404,-3.0404,-3.0404,-3.0385,0.0,0.0,0.0,-2.8262,-2.8156,-2.7946,0.0,0.0,0.0,0.0,0.0,0.0,0.0,0.0,0.0,0.0,0.0,0.0,0.0,0.0,0.0,0.0,-2.5658,-2.6175,-2.6657,-2.6691,-2.6745,-2.6841,-2.7133,-2.6747,-2.5566,-2.5521,-2.5099,-2.4208,-2.4281,-2.4281,-2.419,-2.4281,-2.4377,-2.4512,-2.4708,-2.4864,-2.5016,-2.5214,-2.5308,-2.5308,-2.5308,-2.5308,-2.5308,-2.5308,-2.5308,-2.5308,-2.5308,-2.5308,-2.5308,-3.8738,0.0,0.0,0.0,0.0,0.0,0.0,0.0,-4.243,-4.2969,-4.2518,-4.249,-4.3381,-4.2883,-4.2795,-4.3523,-4.2124,-4.1174,-4.1111,-3.8982,-3.7731,-3.7731,-3.7731,-3.7437,-3.678,-3.7254,0.0,0.0,0.0,0.0,0.0,0.0,0.0,0.0,0.0,0.0,0.0,0.0,0.0,-3.487,-3.6021,-3.6594,-3.6754,-3.6902,-3.6574,-3.6016,-3.5995,-3.5981,-3.5942,-3.5615,-3.4442,-3.3179,0.0,0.0,0.0,-3.1288,0.0,0.0,0.0,0.0,0.0,0.0,0.0,0.0,-2.8202,-2.8109,-2.7933,0.0,-2.7055,0.0,0.0,0.0,0.0,0.0,0.0,0.0,0.0,0.0,0.0,0.0,0.0,0.0,0.0,-2.5561,-2.6175,-2.6657,-2.6691,-2.6966,-2.7642,-2.7737,-2.733,-2.6389,-2.6374,-2.5676,-2.4208,-2.4842,-2.4842,-2.4208,-2.486,-2.494,-2.4512,-2.4708,-2.4864,-2.5016,-2.5214,-2.5308,-2.5308,-2.5308,-2.5308,-2.5308,-2.5308,-2.5308,-2.5308,-2.5308,-2.5308,-2.5308,-3.926,0.0,0.0,0.0,0.0,0.0,0.0,0.0,0.0,-4.3427,-4.3149,-4.3039,-4.346,-4.313,-4.3057,-4.346,-4.2396,-4.1534,-4.1132,-3.9221,-3.7933,-3.7529,-3.7125,-3.6905,-3.6905,-3.6905,-3.6486,0.0,0.0,0.0,0.0,0.0,0.0,0.0,0.0,0.0,0.0,0.0,-3.4793,-3.4973,-3.5768,0.0,-3.6096,-3.6096,-3.5846,-3.55,-3.55,-3.5212,-3.4853,-3.4853,-3.4276,0.0,-3.2564,-3.2006,-3.1558,0.0,-3.0731,-3.0404,0.0,0.0,0.0,-2.9871,0.0,0.0,0.0,-2.7667,-2.6933,-2.7362,-2.6804,-2.6384,-2.6813,0.0,0.0,0.0,0.0,0.0,0.0,0.0,0.0,0.0,0.0,0.0,0.0,-2.5042,-2.5759,-2.6624,-2.6691,-2.7051,-2.7855,-2.7897,-2.7691,-2.7215,-2.6814,-2.6025,-2.4805,-2.4805,-2.4603,-2.419,-2.4622,-2.4652,-2.4357,-2.4662,-2.4778,-2.4762,-2.513,-2.5234,-2.5157,-2.5264,-2.5308,-2.5308,-2.5308,-2.5308,-2.5308,-2.5308,-2.5308,-2.5308,-3.9605,0.0,0.0,0.0,0.0,0.0,0.0,0.0,0.0,-4.341,-4.3626,-4.3718,-4.3718,-4.3718,-4.3846,-4.4158,-4.2892,-4.1919,-4.1572,-3.9478,-3.7955,-3.7309,-3.6486,-3.6266,-3.6776,-3.6483,-3.6138,0.0,0.0,0.0,0.0,0.0,0.0,0.0,0.0,0.0,-3.3067,0.0,0.0,-3.5122,0.0,-3.5596,-3.5712,-3.5558,-3.5596,-3.5692,-3.5365,-3.4795,-3.4205,-3.4205,-3.409,-3.3628,-3.1737,-3.1833,0.0,0.0,0.0,0.0,0.0,0.0,0.0,0.0,0.0,-2.8235,0.0,0.0,0.0,0.0,0.0,0.0,0.0,0.0,0.0,0.0,0.0,0.0,0.0,0.0,0.0,0.0,0.0,0.0,0.0,-2.4661,-2.5379,-2.6421,-2.6623,-2.7051,-2.7855,-2.7897,-2.787,-2.7794,-2.7016,-2.6282,-2.5631,-2.4677,-2.4281,-2.4438,-2.4263,-2.419,-2.4209,-2.4586,-2.4654,-2.4537,-2.5031,-2.5152,-2.5016,-2.5214,-2.5308,-2.5308,-2.5308,-2.5308,-2.5308,-2.5308,-2.5308,-2.5308,-3.8836,-3.9656,0.0,0.0,0.0,0.0,0.0,0.0,0.0,-4.3356,-4.4121,-4.4562,-4.4562,-4.4562,-4.5131,-4.6562,-4.3352,0.0,-4.313,0.0,-3.6523,-3.6431,-3.561,-3.4857,-3.4229,-3.5587,-3.5569,0.0,0.0,0.0,0.0,0.0,0.0,0.0,-3.0729,0.0,0.0,0.0,-3.4149,0.0,-3.5383,-3.5923,0.0,-3.5769,-3.5942,-3.6365,-3.4872,-3.4282,-3.4205,0.0,-3.3686,-3.3122,0.0,-3.2872,-3.1795,-3.1621,0.0,0.0,0.0,0.0,0.0,0.0,-2.9107,0.0,0.0,0.0,-2.6714,-2.6973,0.0,0.0,0.0,0.0,0.0,0.0,0.0,0.0,0.0,0.0,0.0,0.0,0.0,0.0,0.0,0.0,-2.5561,-2.5711,-2.6336,-2.7051,-2.7855,-2.7897,-2.787,-2.7794,-2.7016,-2.6557,-2.6465,-2.4961,-2.4566,-2.5264,-2.4548,-2.419,-2.4199,-2.4426,-2.4528,-2.4528,-2.4878,-2.5022,-2.5016,-2.5214,-2.5308,-2.5308,-2.5308,-2.5308,-2.5308,-2.5308,-2.5308,-2.5308,-3.87,-3.9242,-3.9605,0.0,0.0,0.0,0.0,0.0,0.0,-4.3444,-4.4195,-4.4691,-4.4691,-4.4691,-4.5168,-4.6305,-4.4416,-4.3094,0.0,0.0,-3.7955,-3.7052,0.0,-3.5078,-3.5238,-3.4981,-3.4724,-3.4491,-3.4116,0.0,0.0,0.0,0.0,0.0,-3.0309,0.0,-3.1908,0.0,-3.385,0.0,0.0,0.0,0.0,-3.5808,-3.5712,-3.5846,-3.4622,-3.3878,-3.3372,0.0,-3.2814,0.0,0.0,0.0,0.0,0.0,0.0,0.0,0.0,0.0,0.0,0.0,0.0,0.0,-2.748,0.0,-2.6309,0.0,0.0,0.0,0.0,0.0,0.0,0.0,-2.7305,0.0,0.0,0.0,0.0,0.0,0.0,0.0,0.0,0.0,0.0,0.0,0.0,-2.6862,-2.7246,-2.7663,-2.8085,-2.848,-2.7714,-2.7071,-2.6602,-2.5474,-2.4824,-2.4695,-2.4355,-2.419,-2.4199,-2.441,-2.4445,-2.4339,-2.4715,-2.4877,-2.4891,-2.5053,-2.5184,-2.5308,-2.5308,-2.5308,-2.5308,-2.5308,-2.5308,-2.5308,-3.8372,-3.87,-3.887,0.0,0.0,0.0,0.0,0.0,0.0,0.0,0.0,0.0,-4.5002,-4.5241,0.0,-4.6819,-4.5571,-4.4305,0.0,0.0,-3.9038,0.0,0.0,0.0,0.0,-3.4761,-3.4248,-3.4516,0.0,0.0,0.0,0.0,0.0,0.0,0.0,-3.0057,-3.097,0.0,-3.3135,-3.3831,-3.4775,-3.5488,-3.6007,-3.5885,-3.5538,-3.5026,-3.416,-3.3295,-3.2487,-3.191,-3.2083,0.0,-3.1135,0.0,0.0,0.0,0.0,0.0,-2.9981,0.0,0.0,0.0,0.0,0.0,0.0,0.0,0.0,0.0,0.0,0.0,0.0,0.0,0.0,0.0,0.0,-2.6914,0.0,0.0,0.0,0.0,0.0,0.0,0.0,0.0,0.0,-2.514,-2.5906,-2.6539,-2.6881,-2.7411,-2.8118,-2.8964,-2.8227,-2.7512,-2.6924,-2.5907,-2.5099,-2.453,-2.43,-2.419,-2.4199,-2.4348,-2.4348,-2.4218,-2.4578,-2.4753,-2.4818,-2.4937,-2.5088,-2.5214,-2.5214,-2.5079,-2.4912,-2.5197,-2.5308,-2.5308,-3.7516,-3.7939,-3.7939,0.0,0.0,0.0,0.0,0.0,0.0,0.0,0.0,0.0,0.0,0.0,0.0,0.0,0.0,-4.5021,-4.5736,0.0,-3.8726,0.0,0.0,-3.5881,0.0,0.0,0.0,0.0,0.0,0.0,0.0,0.0,0.0,0.0,-2.8611,-2.8956,-3.064,-3.0941,-3.1701,-3.2737,-3.3812,-3.4263,-3.4456,0.0,-3.5641,-3.4129,-3.3256,0.0,0.0,-3.1718,-3.1718,0.0,0.0,0.0,0.0,0.0,0.0,0.0,0.0,0.0,0.0,-2.8126,0.0,0.0,0.0,0.0,-2.7132,0.0,0.0,0.0,0.0,0.0,0.0,-2.5879,0.0,0.0,0.0,0.0,0.0,0.0,0.0,0.0,0.0,0.0,0.0,-2.549,-2.5517,-2.6016,-2.7126,-2.7204,-2.778,-2.8957,-2.8227,-2.7787,-2.775,-2.6182,-2.5393,-2.5338,-2.4566,-2.419,-2.419,-2.4199,-2.4218,-2.4209,-2.4428,-2.4615,-2.4818,-2.4937,-2.4991,-2.5016,-2.5016,-2.4534,-2.3973,-2.4936,-2.5308,-2.5308,-3.6314,-3.6851,-3.7466,-3.8464,0.0,0.0,0.0,-4.1751,0.0,0.0,-4.5792,0.0,0.0,-4.8086,-4.8361,0.0,0.0,-4.5388,-4.5131,-4.258,0.0,0.0,0.0,-3.8303,0.0,0.0,0.0,0.0,0.0,0.0,0.0,0.0,0.0,0.0,0.0,-2.8623,0.0,0.0,0.0,0.0,0.0,-3.3686,-3.4263,0.0,0.0,-3.3237,-3.2391,-3.1929,0.0,-3.1019,-3.0846,-3.0731,-3.016,-2.9775,-2.9371,-2.8549,-2.8107,0.0,0.0,0.0,-2.7589,-2.7892,0.0,0.0,0.0,0.0,0.0,0.0,0.0,0.0,0.0,0.0,0.0,-2.6602,0.0,0.0,0.0,0.0,0.0,0.0,0.0,0.0,0.0,0.0,0.0,-2.4591,-2.5128,-2.5788,0.0,-2.694,-2.7755,-2.8957,-2.873,-2.8069,-2.7016,-2.6465,-2.5658,-2.4603,-2.4318,-2.419,-2.419,-2.419,-2.419,-2.4199,-2.4266,-2.4419,-2.4599,-2.4651,-2.4745,-2.4876,-2.4876,-2.4345,-2.367,-2.4125,-2.4392,-2.45,-3.6304,-3.6408,-3.6755,0.0,0.0,0.0,0.0,0.0,0.0,0.0,-4.6172,0.0,-4.8289,0.0,-4.8526,0.0,-4.7407,-4.5993,-4.5186,-4.3351,0.0,-4.1535,-4.0487,0.0,0.0,0.0,0.0,0.0,0.0,-3.2558,0.0,0.0,0.0,0.0,0.0,-2.8522,-2.9315,-3.0171,-3.0602,0.0,0.0,-3.2814,0.0,0.0,-3.3141,-3.2795,0.0,-3.1295,-3.0698,-3.014,-2.9756,-2.941,-2.8857,-2.8453,-2.8102,-2.7582,-2.7233,-2.7075,-2.7379,-2.7112,0.0,-2.7429,-2.6773,0.0,-2.6378,0.0,0.0,0.0,0.0,0.0,0.0,0.0,0.0,-2.6641,-2.6543,0.0,0.0,-2.6172,0.0,0.0,0.0,0.0,0.0,0.0,-2.5884,-2.4691,-2.4935,-2.5339,0.0,0.0,-2.7462,-2.8546,-2.8565,-2.7941,-2.6602,-2.6319,-2.5511,-2.419,-2.419,-2.419,-2.419,-2.419,-2.419,-2.419,-2.419,-2.4321,-2.4485,-2.4186,-2.4324,-2.4636,-2.405,-2.346,-2.3023,-2.3506,-2.3582,-2.3435,-3.7291,-3.6627,0.0,0.0,-3.7283,0.0,0.0,0.0,-4.366,0.0,-4.5409,-4.6917,-4.6392,-4.7496,-4.8267,-4.8267,-4.7442,-4.6635,-4.5883,-4.3627,0.0,0.0,-4.0855,-3.9292,-3.7713,0.0,0.0,0.0,0.0,0.0,0.0,0.0,0.0,0.0,-2.8591,0.0,-2.9021,-2.9495,-2.9713,-2.9849,-3.1128,-3.166,-3.1698,-3.166,-3.2102,-3.2679,-3.1852,-3.0506,-2.9088,-2.905,-2.8492,-2.7838,-2.7838,-2.7236,-2.6544,-2.6529,-2.6002,-2.5584,-2.6413,-2.6689,-2.6745,-2.6784,0.0,0.0,0.0,0.0,-2.6934,0.0,0.0,0.0,0.0,0.0,0.0,0.0,0.0,0.0,0.0,0.0,0.0,0.0,0.0,0.0,0.0,-2.674,-2.6117,-2.5693,-2.4988,-2.4809,0.0,0.0,-2.7016,-2.778,-2.7798,-2.7402,-2.6602,-2.5797,-2.5007,-2.419,-2.419,-2.419,-2.419,-2.419,-2.419,-2.419,-2.4153,-2.4275,-2.4412,-2.3574,-2.3704,-2.4263,-2.2629,-2.1973,-2.2043,-2.3011,-2.2898,-2.225,-3.6129,-3.6809,-3.755,0.0,-3.8516,-3.8954,0.0,0.0,0.0,0.0,-4.6295,-4.7663,-4.814,-4.7853,-4.7635,-4.7635,-4.584,0.0,0.0,0.0,0.0,-4.3168,-4.2213,-4.1203,-4.0212,-3.8414,-3.6842,-3.5513,0.0,0.0,-3.1612,0.0,0.0,0.0,0.0,0.0,-2.9021,-2.9495,-2.9896,-3.0247,-3.0605,-3.1115,0.0,0.0,-3.0865,-3.0923,-3.0063,-2.9473,-2.9011,-2.8415,-2.764,-2.6928,-2.6928,-2.6351,-2.5635,-2.5691,-2.5557,-2.5455,-2.5737,-2.586,-2.6053,-2.6718,-2.643,-2.6111,0.0,0.0,0.0,0.0,0.0,0.0,0.0,0.0,0.0,0.0,0.0,0.0,0.0,0.0,0.0,-2.6641,0.0,0.0,0.0,-2.6159,-2.5996,-2.5232,-2.5322,0.0,0.0,0.0,0.0,-2.7787,-2.7798,-2.7402,-2.6602,-2.5797,-2.5007,-2.419,-2.419,-2.419,-2.419,-2.419,-2.419,-2.4171,-2.3566,-2.3676,-2.4165,-2.2772,-2.2653,-2.3271,-2.2256,-2.1455,-2.0944,-2.1517,-2.1582,-2.14,-3.6483,-3.7836,0.0,-3.8971,0.0,0.0,-4.0805,-4.2265,0.0,-4.4379,-4.5732,0.0,-4.646,-4.6178,-4.6,-4.6,-4.4721,0.0,-4.4326,0.0,0.0,-4.2983,-4.2194,-4.1075,-3.9551,-3.7845,0.0,-3.5202,0.0,0.0,-3.1488,0.0,0.0,0.0,0.0,-2.8785,-2.9021,-2.9495,-2.9977,-3.0365,-2.9987,0.0,0.0,-2.964,-2.9313,-2.9198,-2.8313,-2.8005,-2.7928,-2.7486,-2.6755,-2.6048,-2.6063,-2.5738,-2.5359,-2.5425,-2.5451,-2.5503,-2.5539,-2.5598,-2.5754,-2.6242,-2.6033,-2.582,-2.6328,-2.6055,-2.5703,0.0,0.0,0.0,0.0,0.0,0.0,0.0,0.0,0.0,0.0,0.0,0.0,0.0,-2.695,0.0,0.0,-2.5895,-2.5629,-2.503,0.0,0.0,0.0,0.0,0.0,-2.677,-2.7431,-2.7236,-2.608,-2.597,-2.5328,-2.419,-2.419,-2.419,-2.419,-2.419,-2.419,-2.4171,-2.3731,-2.3786,-2.408,-2.2455,-2.2263,-2.2878,-2.1694,-2.0721,-2.0,-2.0234,-2.0316,-2.0303,-3.7685,0.0,0.0,0.0,0.0,0.0,0.0,-4.3074,0.0,-4.3281,0.0,-4.4735,-4.3328,-4.3606,-4.3948,-4.4037,0.0,-4.3502,-4.3579,-4.3269,-4.2751,-4.2073,-4.1225,-3.9808,-3.7694,-3.6556,-3.5257,0.0,0.0,0.0,0.0,0.0,0.0,0.0,0.0,0.0,0.0,-2.9486,-2.9844,-3.0019,-2.9352,-2.905,-2.8876,-2.8165,-2.7838,-2.7621,-2.6871,-2.6601,-2.6582,-2.6467,-2.5923,-2.5308,-2.5387,-2.5406,-2.5411,-2.5481,-2.5556,-2.5602,-2.5606,-2.566,-2.5703,-2.5703,-2.5703,-2.5703,-2.5703,-2.5703,-2.5703,-2.5703,-2.6309,-2.6621,0.0,0.0,0.0,0.0,0.0,0.0,0.0,0.0,0.0,0.0,0.0,0.0,0.0,0.0,0.0,0.0,0.0,0.0,0.0,0.0,0.0,-2.5439,-2.677,0.0,-2.5576,0.0,-2.564,-2.4355,-2.4245,-2.419,-2.419,-2.419,-2.419,-2.419,-2.408,-2.4043,-2.3914,-2.2308,-2.1969,-2.2364,-2.0914,-1.9913,-1.9297,-1.9297,-1.9297,-1.9297,-3.8489,0.0,0.0,0.0,0.0,-4.166,-4.2987,-4.3895,-4.3922,-4.2668,-4.38,-4.4146,-4.2634,-4.2484,-4.2643,-4.3072,-4.1927,0.0,0.0,0.0,0.0,-4.0637,-3.967,-3.8927,-3.8505,-3.5697,-3.4082,0.0,0.0,0.0,0.0,0.0,0.0,0.0,0.0,0.0,-2.8556,-2.9359,0.0,-2.8371,-2.8896,-2.8703,-2.8088,-2.7953,-2.7448,-2.6813,-2.6659,-2.6601,-2.6486,-2.5769,-2.5423,-2.5308,-2.5387,-2.5406,-2.5425,-2.5551,-2.5597,-2.5606,-2.5661,-2.5683,-2.5703,-2.5703,-2.5703,-2.5703,-2.5703,-2.5703,-2.5703,-2.5703,-2.582,-2.6094,-2.668,0.0,0.0,0.0,0.0,0.0,0.0,0.0,0.0,0.0,0.0,-2.6879,0.0,0.0,0.0,0.0,0.0,0.0,0.0,0.0,0.0,0.0,0.0,0.0,0.0,0.0,-2.4814,-2.5172,-2.453,-2.419,-2.419,-2.419,-2.419,-2.4153,-2.3511,-2.3208,-2.3079,-2.141,-2.0427,-1.9921,-1.962,-1.9426,-1.9297,-1.9297,-1.9297,-1.9297,-3.8854,0.0,0.0,0.0,0.0,0.0,0.0,-4.2912,0.0,-4.2929,-4.2506,-4.2089,-4.1619,-4.1133,-4.1087,-4.1651,-4.09,-4.0336,-4.0203,-4.0091,-3.9683,-3.888,-3.8342,-3.7477,-3.6193,-3.4211,-3.2981,-3.2572,0.0,0.0,-2.9555,0.0,0.0,0.0,0.0,-2.7727,0.0,0.0,0.0,-2.7895,-2.7832,-2.7563,-2.7178,-2.6717,-2.6288,-2.5923,-2.5923,-2.5923,-2.5865,-2.5442,-2.5312,-2.5363,-2.5428,-2.5485,-2.5511,-2.5611,-2.5658,-2.566,-2.5683,-2.5703,-2.5703,-2.5703,-2.5703,-2.5703,-2.5703,-2.5703,-2.5703,-2.5703,-2.5703,-2.5956,-2.6753,-2.724,0.0,0.0,0.0,0.0,0.0,0.0,0.0,0.0,0.0,0.0,0.0,0.0,0.0,0.0,0.0,0.0,0.0,0.0,0.0,0.0,0.0,0.0,0.0,0.0,0.0,-2.4768,-2.4401,-2.419,-2.419,-2.419,-2.419,-2.4153,-2.3354,-2.3006,-2.2878,-2.119,-2.0042,-1.9297,-1.9297,-1.9297,-1.9297,-1.9297,-1.9297,-1.9297,0.0,-3.9706,0.0,0.0,-4.0696,0.0,-4.1204,-4.1694,-4.2269,-4.2851,-4.1407,-4.0373,-4.0472,-4.002,-3.9882,-4.0326,-3.9939,-3.9428,-3.8815,-3.8984,-3.8511,-3.7138,-3.6842,-3.5803,-3.3844,-3.2509,-3.1531,0.0,0.0,0.0,0.0,0.0,0.0,0.0,0.0,0.0,0.0,0.0,-2.7446,-2.7294,-2.6794,-2.6486,-2.625,-2.5558,-2.5308,-2.5308,-2.5308,-2.5308,-2.5312,-2.5312,-2.535,-2.5401,-2.5506,-2.5558,-2.5607,-2.5683,-2.5703,-2.5703,-2.5703,-2.5703,-2.5703,-2.5703,-2.5703,-2.5703,-2.5703,-2.5683,-2.5683,-2.5703,-2.5683,-2.5907,-2.6648,-2.719,0.0,0.0,0.0,0.0,0.0,0.0,0.0,0.0,0.0,0.0,-2.7432,0.0,0.0,0.0,0.0,0.0,0.0,0.0,0.0,0.0,0.0,-2.5823,-2.4722,0.0,-2.5548,0.0,-2.4281,-2.419,-2.419,-2.419,-2.419,-2.4153,-2.3529,-2.3061,-2.2621,-2.0933,-1.9877,-1.9297,-1.9297,-1.9297,-1.9297,-1.9297,-1.9297,-1.9297,0.0,0.0,0.0,0.0,0.0,0.0,-4.1204,-4.1271,-4.1339,-4.1407,-4.1238,-4.0603,-3.9323,-3.9489,-3.9678,-3.9608,-3.8633,-3.8005,-3.7984,-3.7158,-3.6343,-3.5722,-3.4692,-3.4045,-3.3807,-3.0858,-2.9299,0.0,0.0,-2.753,0.0,0.0,0.0,0.0,0.0,0.0,0.0,-2.7146,-2.6732,-2.5615,-2.6308,-2.6135,-2.5404,-2.5327,-2.5308,-2.5308,-2.5308,-2.5344,-2.5398,-2.5398,-2.5398,-2.5411,-2.5551,-2.5599,-2.5607,-2.5683,-2.5703,-2.5703,-2.5703,-2.5703,-2.5703,-2.5703,-2.5703,-2.5703,-2.5703,-2.5659,-2.5632,-2.5683,-2.5658,-2.5836,-2.6569,-2.6126,-2.5882,0.0,0.0,0.0,0.0,0.0,-2.6299,-2.5418,0.0,0.0,0.0,-2.562,0.0,0.0,0.0,0.0,0.0,0.0,0.0,-2.5559,0.0,-2.5797,-2.6374,-2.5089,0.0,-2.5283,-2.4548,-2.419,-2.419,-2.419,-2.419,-2.419,-2.4116,-2.3254,-2.1776,-2.0105,-1.937,-1.9297,-1.9297,-1.9297,-1.9297,-1.9297,-1.9297,-1.9297,0.0,0.0,0.0,0.0,0.0,0.0,0.0,-3.9495,-3.9225,-3.9225,-3.9597,-3.9739,-3.9346,-3.8604,-3.8371,-3.8974,-3.7725,-3.6692,-3.6182,-3.5762,-3.4989,-3.3814,-3.3328,-3.2399,-3.095,-2.9666,-2.8528,0.0,0.0,0.0,0.0,0.0,0.0,0.0,0.0,-2.6065,-2.6001,-2.6136,-2.5847,-2.5327,-2.5673,-2.5615,-2.5308,-2.5308,-2.5308,-2.5308,-2.5308,-2.5348,-2.5413,-2.545,-2.5495,-2.5533,-2.5573,-2.5633,-2.5661,-2.5683,-2.5703,-2.5703,-2.5703,-2.5703,-2.5703,-2.5703,-2.5662,-2.5636,-2.5636,-2.5595,-2.5551,-2.5569,-2.5535,-2.5568,-2.5878,-2.6024,-2.6015,0.0,0.0,0.0,0.0,0.0,0.0,-2.5149,0.0,-2.5519,0.0,0.0,0.0,0.0,0.0,0.0,0.0,0.0,0.0,-2.6915,0.0,-2.5291,-2.6583,-2.4997,-2.4355,-2.4677,-2.4355,-2.419,-2.419,-2.419,-2.3657,-2.2767,-2.2767,-2.1812,-2.0252,-1.9572,-1.9297,-1.9297,-1.9297,-1.9297,-1.9297,-1.9297,-1.9297,-1.9297,-3.9368,0.0,-3.9445,0.0,-3.9005,-3.8667,-3.8667,-3.8227,-3.7753,-3.7297,-3.7686,-3.8151,-3.8509,-3.7808,-3.7435,-3.7726,-3.6633,-3.5661,-3.5041,-3.4564,-3.3793,-3.2656,-3.1922,0.0,-2.9042,-2.829,-2.7383,-2.6245,-2.6825,0.0,0.0,0.0,0.0,0.0,-2.5249,-2.5359,-2.5688,-2.5428,-2.5308,-2.5308,-2.5308,-2.5308,-2.5308,-2.5308,-2.5308,-2.5293,-2.5312,-2.536,-2.5438,-2.5515,-2.5567,-2.5633,-2.5633,-2.5661,-2.5703,-2.5703,-2.5703,-2.5703,-2.5703,-2.5703,-2.5703,-2.5682,-2.5634,-2.5599,-2.5588,-2.5526,-2.5471,-2.5447,-2.5418,-2.5379,-2.536,-2.5827,-2.594,-2.513,0.0,0.0,0.0,0.0,0.0,0.0,-2.5488,-2.5817,-2.6442,-2.6339,0.0,0.0,0.0,0.0,0.0,0.0,0.0,0.0,0.0,0.0,0.0,-2.4997,-2.419,-2.419,-2.419,-2.419,-2.419,-2.419,-2.3409,-2.2036,-2.1878,-2.0953,-1.9559,-1.9366,-1.9277,-1.9222,-1.9222,-1.9164,-1.9089,-1.9089,-1.9089,-1.9089,-3.7922,-3.7939,-3.7939,-3.7939,-3.7922,-3.7922,-3.7922,-3.7922,-3.7364,-3.5819,-3.5633,-3.5817,-3.6284,-3.7193,-3.7194,-3.566,-3.5213,-3.5023,-3.5004,-3.3518,-3.2619,0.0,0.0,-2.9023,-2.9005,-2.6649,-2.5429,-2.5411,0.0,0.0,-2.4245,0.0,-2.5521,-2.5706,-2.5909,-2.5613,-2.5016,-2.5214,-2.5308,-2.5308,-2.5308,-2.5308,-2.5308,-2.5308,-2.5308,-2.5303,-2.5372,-2.5447,-2.552,-2.5588,-2.5637,-2.5703,-2.5703,-2.5703,-2.5703,-2.5703,-2.5703,-2.5703,-2.5703,-2.5703,-2.5683,-2.5629,-2.5602,-2.5573,-2.5526,-2.545,-2.5372,-2.5317,-2.5354,-2.5379,-2.5313,-2.5308,-2.5248,-2.5034,0.0,0.0,0.0,0.0,0.0,-2.6187,-2.6238,-2.6212,-2.6301,0.0,0.0,0.0,0.0,0.0,0.0,0.0,0.0,-2.6916,-2.5927,0.0,-2.6583,-2.4997,-2.419,-2.419,-2.419,-2.419,-2.419,-2.419,-2.3616,-2.2554,-2.2036,-2.1196,-2.0147,-1.9541,-1.9182,-1.8992,-1.8992,-1.8834,-1.8604,-1.8604,-1.8604,-1.8604,-3.7702,-3.7905,-3.7905,-3.7905,-3.7483,-3.7168,-3.7168,-3.6248,-3.5402,-3.4912,-3.497,-3.4695,-3.3737,-3.4412,-3.4782,0.0,-3.3744,-3.3133,0.0,-3.2063,-3.1292,-3.0198,-2.9409,-2.8235,-2.6576,-2.5797,-2.5136,-2.4585,0.0,0.0,0.0,-2.5629,-2.5552,-2.5095,-2.5255,-2.5197,-2.5016,-2.5214,-2.5308,-2.5308,-2.5308,-2.5308,-2.5308,-2.5308,-2.534,-2.5375,-2.5391,-2.5479,-2.5566,-2.5598,-2.5637,-2.5703,-2.5703,-2.5703,-2.5703,-2.5703,-2.5703,-2.5703,-2.5703,-2.5661,-2.5632,-2.5604,-2.5537,-2.5465,-2.5434,-2.5372,-2.5336,-2.5293,-2.5322,-2.534,-2.5293,-2.5198,-2.5047,-2.4884,-2.4745,0.0,0.0,0.0,0.0,0.0,-2.5256,-2.5349,0.0,-2.5103,0.0,0.0,0.0,0.0,0.0,0.0,0.0,0.0,-2.6426,0.0,-2.7402,-2.5273,-2.419,-2.419,-2.419,-2.4084,-2.3847,-2.361,-2.3037,-2.2189,-2.2014,-2.1439,-2.0555,-1.986,-1.9529,-1.9435,-1.892,-1.8678,-1.8595,-1.8595,-1.8595,-1.8595,-3.6028,-3.6214,-3.6214,-3.6214,-3.5825,-3.552,-3.552,-3.4865,-3.426,-3.397,-3.3904,-3.3472,-3.2362,-3.243,0.0,-3.2873,-3.2449,-3.1806,-3.0999,-3.0668,-2.9916,-2.8613,-2.7959,-2.6943,-2.5429,0.0,0.0,-2.419,-2.4773,-2.5161,-2.535,-2.5487,-2.5309,-2.4871,-2.4962,-2.504,-2.5111,-2.5253,-2.5308,-2.5308,-2.5308,-2.5308,-2.5293,-2.5326,-2.5367,-2.5413,-2.5459,-2.5533,-2.5603,-2.5633,-2.5661,-2.5703,-2.5703,-2.5703,-2.5703,-2.5703,-2.5703,-2.5683,-2.5662,-2.5633,-2.5595,-2.5541,-2.5468,-2.5321,-2.4989,-2.4887,-2.4851,-2.4851,-2.4851,-2.4947,-2.525,-2.5141,-2.4955,-2.4814,-2.4631,-2.4325,-2.3823,0.0,0.0,0.0,0.0,0.0,0.0,-2.4959,0.0,0.0,0.0,0.0,0.0,0.0,0.0,-2.7447,-2.613,0.0,-2.6898,-2.5089,-2.4141,-2.4006,-2.3886,-2.3714,-2.3511,-2.33,-2.2712,-2.1861,-2.1954,-2.1491,-2.0606,-1.9963,-1.9635,-1.9482,-1.8738,-1.8391,-1.83,-1.83,-1.83,-1.83,-3.3389,-3.3406,0.0,0.0,-3.3427,0.0,-3.3448,-3.3742,-3.3748,-3.3058,-3.2564,-3.217,-3.1881,-3.1185,-3.0862,-3.1121,0.0,0.0,0.0,-2.9244,-2.8473,-2.7669,-2.6201,-2.5374,-2.5319,-2.4585,-2.4199,-2.4218,-2.4426,-2.4631,-2.4799,-2.4832,-2.4891,-2.5022,-2.5022,-2.5116,-2.5308,-2.5308,-2.5308,-2.5308,-2.5308,-2.5308,-2.5303,-2.5372,-2.5397,-2.5425,-2.5554,-2.5603,-2.5628,-2.5683,-2.5703,-2.5703,-2.5703,-2.5703,-2.5683,-2.5683,-2.5683,-2.5683,-2.5606,-2.5597,-2.5556,-2.5425,-2.5395,-2.5174,-2.4306,-2.411,-2.4072,-2.4014,-2.4014,-2.424,-2.4981,-2.5001,-2.486,-2.4731,-2.4521,-2.4085,-2.3208,0.0,0.0,0.0,0.0,0.0,0.0,-2.543,-2.5026,0.0,0.0,0.0,0.0,0.0,-2.6819,-2.4926,-2.5171,-2.5324,-2.5324,-2.4526,-2.3976,-2.366,-2.3335,-2.3165,-2.3165,-2.3159,-2.2586,-2.1673,-2.1896,-2.1453,-2.0499,-1.9959,-1.9577,-1.9262,-1.8478,-1.8025,-1.78,-1.78,-1.78,-1.78,0.0,0.0,-3.3406,-3.3406,-3.37,-3.3928,-3.3928,-3.3291,-3.2739,-3.2563,-3.1742,-3.0919,-3.0242,-3.0275,-2.9893,-2.876,-2.9219,-2.8968,-2.7548,-2.7262,-2.6814,-2.5999,-2.5595,-2.5117,-2.4511,-2.43,-2.4284,-2.4436,-2.4726,-2.4911,-2.4949,-2.5107,-2.5192,-2.5224,-2.5224,-2.5259,-2.5308,-2.5308,-2.5308,-2.5308,-2.5308,-2.5308,-2.5303,-2.5372,-2.5434,-2.5498,-2.5566,-2.5634,-2.5683,-2.5683,-2.5703,-2.5703,-2.5703,-2.5661,-2.5611,-2.5611,-2.5611,-2.5605,-2.5547,-2.5498,-2.5444,-2.5413,-2.5359,-2.5115,-2.4288,-2.411,-2.3918,-2.324,-2.3105,-2.3163,-2.3351,-2.3645,-2.3843,-2.382,-2.3555,-2.3483,-2.3869,-2.377,0.0,0.0,-2.4611,-2.4784,-2.4561,-2.4513,-2.4658,0.0,0.0,0.0,0.0,-2.5672,-2.5894,-2.4557,-2.4593,-2.4629,-2.4629,-2.3848,-2.3392,-2.3305,-2.2984,-2.2822,-2.281,-2.2607,-2.2381,-2.2146,-2.2197,-2.2081,-2.1745,-2.0462,-1.9887,-1.9707,-1.8393,-1.7867,-1.78,-1.78,-1.78,-1.78,-3.1447,-3.1771,-3.1902,-3.1902,-3.2105,-3.2266,-3.2266,-3.194,-3.1662,-3.1662,-3.0994,-3.0366,-2.9911,-2.9412,-2.8594,-2.7365,-2.7989,-2.7769,-2.6153,-2.6043,-2.5737,-2.5023,-2.4996,-2.4828,-2.4488,-2.4469,-2.4567,-2.4737,-2.4917,-2.504,-2.5146,-2.5253,-2.5308,-2.5308,-2.5308,-2.5308,-2.5308,-2.5308,-2.5308,-2.5308,-2.5308,-2.5322,-2.535,-2.5418,-2.5498,-2.5556,-2.561,-2.5662,-2.5703,-2.5703,-2.5703,-2.5683,-2.5661,-2.5633,-2.5595,-2.5535,-2.5537,-2.5545,-2.5479,-2.5425,-2.5395,-2.5359,-2.5336,-2.4981,-2.3778,-2.3732,-2.361,-2.2369,-2.2654,-2.3122,-2.3114,-2.358,-2.3832,-2.3476,-2.3484,-2.3437,-2.3153,-2.3523,0.0,-2.3667,-2.4153,-2.4365,-2.4016,-2.4103,-2.4238,-2.4382,0.0,0.0,-2.3666,-2.4203,-2.4251,-2.3628,-2.4131,-2.4222,-2.3868,-2.3268,-2.2972,-2.2972,-2.2652,-2.2527,-2.2514,-2.2377,-2.2296,-2.2296,-2.2296,-2.2296,-2.2212,-2.1028,-2.0335,-1.9883,-1.8746,-1.8099,-1.78,-1.78,-1.78,-1.7789,-2.9572,-2.9868,-3.009,-3.009,-3.0152,-3.0216,-3.0216,-3.0485,-3.0717,-3.0717,-3.0305,-3.0026,-3.0026,-2.8686,-2.7475,-2.6667,-2.7108,-2.6806,-2.5319,-2.5209,-2.4995,-2.4532,-2.4503,-2.4591,-2.4797,-2.4832,-2.4884,-2.5004,-2.5028,-2.5122,-2.5308,-2.5308,-2.5308,-2.5308,-2.5308,-2.5308,-2.5308,-2.5308,-2.5308,-2.5308,-2.5308,-2.5342,-2.5401,-2.5495,-2.5552,-2.5605,-2.5682,-2.5703,-2.5703,-2.5703,-2.5703,-2.5683,-2.561,-2.5598,-2.5559,-2.5441,-2.5434,-2.5462,-2.5402,-2.5376,-2.5375,-2.5313,-2.5308,-2.4865,-2.3178,-2.3212,-2.3168,-2.1604,-2.2261,-2.3165,-2.3287,-2.3855,-2.4122,-2.3563,-2.3776,-2.3621,-2.2492,0.0,-2.4003,-2.3272,-2.3887,-2.4201,-2.3746,-2.3907,-2.3816,-2.3236,-2.3459,-2.3357,0.0,-2.2708,-2.2682,-2.2634,-2.3587,-2.3756,-2.3063,-2.2789,-2.2634,-2.2634,-2.2398,-2.2296,-2.2296,-2.2296,-2.2296,-2.2296,-2.2296,-2.2296,-2.2229,-2.1512,-2.072,-1.993,-1.9198,-1.8454,-1.7817,-1.7861,-1.7805,-1.7686,-2.9871,-3.0059,-3.009,-3.009,-3.0428,-3.0697,-3.0697,-3.0467,-3.0289,-3.0289,-2.9648,-2.9189,-2.9189,-2.8356,-2.7475,-2.6667,-2.609,-2.5374,-2.4456,-2.4401,-2.4413,-2.4495,-2.4503,-2.4591,-2.4797,-2.4917,-2.498,-2.5004,-2.5168,-2.5269,-2.5308,-2.5308,-2.5308,-2.5308,-2.5308,-2.5308,-2.5308,-2.5308,-2.5308,-2.5298,-2.5367,-2.5391,-2.5401,-2.5541,-2.5597,-2.5605,-2.5682,-2.5703,-2.5703,-2.5703,-2.5703,-2.5683,-2.561,-2.5559,-2.5491,-2.5425,-2.5375,-2.5321,-2.5322,-2.5317,-2.5313,-2.5293,-2.5308,-2.4865,-2.3178,-2.2781,-2.2492,-2.1426,-2.1308,-2.1595,-2.2272,-2.294,-2.357,-2.4146,-2.3647,-2.3566,-2.4695,0.0,-2.3419,-2.3961,-2.3905,-2.3798,-2.3703,-2.35,-2.3311,-2.32,-2.3247,-2.3105,-2.2721,-2.2708,-2.2599,-2.236,-2.2535,-2.2562,-2.2443,-2.2388,-2.236,-2.236,-2.2324,-2.2296,-2.2296,-2.2296,-2.2296,-2.2296,-2.2296,-2.2296,-2.2229,-2.1512,-2.072,-1.993,-1.9198,-1.8454,-1.7833,-1.8124,-1.7873,-1.7403,-2.8473,-2.9053,-2.9512,-2.9512,-2.9694,-2.9828,-2.9828,-2.9314,-2.8906,-2.8906,-2.8209,-2.7703,-2.7703,-2.6979,-2.6366,-2.5999,-2.5227,-2.4603,-2.4226,-2.419,-2.4348,-2.4647,-2.4662,-2.4785,-2.5068,-2.5124,-2.5163,-2.5163,-2.5259,-2.5308,-2.5308,-2.5308,-2.5308,-2.5308,-2.5308,-2.5308,-2.5293,-2.5339,-2.5346,-2.5354,-2.5425,-2.5485,-2.55,-2.5588,-2.561,-2.566,-2.5683,-2.5703,-2.5703,-2.5703,-2.5682,-2.5634,-2.5564,-2.5491,-2.5434,-2.5375,-2.5317,-2.5308,-2.5308,-2.5308,-2.5308,-2.5308,-2.5219,-2.4821,-2.3609,-2.3486,-2.3234,-2.1913,-2.2215,-2.2699,-2.2635,-2.3246,-2.3721,-2.3666,-2.364,0.0,0.0,-2.3571,-2.3448,-2.3646,-2.3533,-2.3357,-2.3177,-2.3177,-2.3075,-2.2734,-2.2853,-2.2802,-2.25,-2.2473,-2.2426,-2.231,-2.2296,-2.2296,-2.2296,-2.2296,-2.2296,-2.2296,-2.2296,-2.2296,-2.2296,-2.2296,-2.2296,-2.2296,-2.2296,-2.2296,-2.2248,-2.1664,-2.0758,-1.9677,-1.9131,-1.8233,-1.7322,-1.7834,-1.7817,-1.76,-2.7055,-2.7964,-2.8656,-2.8473,-2.8601,-2.8656,-2.8473,-2.7915,-2.7512,-2.7512,-2.6979,-2.6602,-2.6602,-2.5888,-2.5393,-2.5393,-2.4658,-2.419,-2.419,-2.4247,-2.4436,-2.4782,-2.4862,-2.5043,-2.5284,-2.5308,-2.5308,-2.5308,-2.5308,-2.5308,-2.5308,-2.5308,-2.5308,-2.5308,-2.5308,-2.5303,-2.5321,-2.5387,-2.5413,-2.5425,-2.5506,-2.5554,-2.5602,-2.5628,-2.5659,-2.5703,-2.5703,-2.5703,-2.5703,-2.5683,-2.5636,-2.5594,-2.5493,-2.5444,-2.5391,-2.5327,-2.5308,-2.5269,-2.5077,-2.5019,-2.5014,-2.496,-2.4837,-2.4554,-2.3877,-2.3985,-2.3861,-2.2556,-2.3149,-2.3786,-2.3354,-2.3786,-2.4061,-2.3639,0.0,0.0,0.0,-2.3358,-2.35,-2.3224,-2.3129,-2.2984,-2.2721,-2.2878,-2.2798,-2.2321,-2.2487,-2.2527,-2.231,-2.2296,-2.2296,-2.2296,-2.2296,-2.2296,-2.2296,-2.2296,-2.2296,-2.2296,-2.2296,-2.2296,-2.2296,-2.2296,-2.2296,-2.2296,-2.218,-2.2135,-2.2106,-2.1643,-2.0723,-1.9563,-1.9251,-1.8369,-1.7338,-1.7898,-1.8027,-1.7937,-2.6643,-2.7317,-2.764,-2.6906,-2.7383,-2.764,-2.6877,-2.6741,-2.6686,-2.6686,-2.6649,-2.6602,-2.6602,-2.5888,-2.5393,-2.5393,-2.4658,-2.419,-2.419,-2.4375,-2.4567,-2.479,-2.5097,-2.5269,-2.5308,-2.5308,-2.5308,-2.5308,-2.5308,-2.5308,-2.5308,-2.5308,-2.5308,-2.5308,-2.5308,-2.5335,-2.5379,-2.5398,-2.5431,-2.5508,-2.5563,-2.5599,-2.5604,-2.5662,-2.5703,-2.5703,-2.5703,-2.5703,-2.5683,-2.5633,-2.5603,-2.5588,-2.5447,-2.539,-2.5391,-2.5327,-2.5308,-2.5135,-2.4394,-2.4187,-2.4135,-2.3962,-2.3898,-2.3826,-2.3585,-2.3457,-2.334,-2.3151,-2.3094,-2.3299,-2.3988,-2.4153,-2.441,-2.5117,0.0,0.0,-2.4631,-2.3872,-2.3224,-2.32,-2.2935,-2.2733,-2.2708,-2.2504,-2.2349,-2.231,-2.2324,-2.2307,-2.2296,-2.2296,-2.2296,-2.2296,-2.2296,-2.2296,-2.2296,-2.2296,-2.2296,-2.2296,-2.2296,-2.2296,-2.2296,-2.2296,-2.2296,-2.2282,-2.1838,-2.1658,-2.1628,-2.1213,-2.0574,-1.9872,-1.9842,-1.9349,-1.8687,-1.8983,-1.8702,-1.8223,-2.587,-2.6502,-2.6961,-2.6638,-2.6851,-2.6961,-2.6649,-2.6172,-2.587,-2.587,-2.5419,-2.5107,-2.5107,-2.4832,-2.4658,-2.4658,-2.4373,-2.419,-2.419,-2.4393,-2.462,-2.4917,-2.5171,-2.5308,-2.5308,-2.5308,-2.5308,-2.5308,-2.5308,-2.5308,-2.5308,-2.5308,-2.5308,-2.5308,-2.5348,-2.5383,-2.5413,-2.5495,-2.5543,-2.5564,-2.5634,-2.5661,-2.5661,-2.5683,-2.5703,-2.5703,-2.5703,-2.5703,-2.5683,-2.5611,-2.5567,-2.5511,-2.5428,-2.5364,-2.5335,-2.5303,-2.5308,-2.5115,-2.4317,-2.4374,-2.464,-2.4558,-2.4383,-2.4204,-2.4139,-2.3979,-2.3851,-2.3833,-2.3787,-2.3841,-2.4135,-2.419,-2.4233,-2.4327,0.0,-2.3663,-2.3548,-2.316,-2.2827,-2.266,-2.2531,-2.245,-2.245,-2.2363,-2.2296,-2.2296,-2.2032,-2.2003,-2.2282,-2.2296,-2.2296,-2.2296,-2.2296,-2.2296,-2.2296,-2.2296,-2.2149,-2.1869,-2.1869,-2.1869,-2.1869,-2.1615,-2.163,-2.1838,-2.1415,-2.1228,-2.1197,-2.0748,-2.0174,-1.9562,-1.9272,-1.8743,-1.8175,-1.8699,-1.8725,-1.8588,-2.5026,-2.5668,-2.6156,-2.5961,-2.6155,-2.6229,-2.5981,-2.5541,-2.5199,-2.5133,-2.469,-2.4393,-2.4393,-2.4393,-2.4393,-2.4393,-2.4393,-2.4393,-2.4393,-2.4567,-2.4754,-2.4998,-2.5179,-2.5308,-2.5308,-2.5308,-2.5308,-2.5326,-2.5326,-2.5348,-2.5363,-2.5363,-2.5363,-2.5367,-2.5417,-2.5441,-2.5471,-2.5559,-2.5606,-2.5635,-2.5683,-2.5703,-2.5703,-2.5703,-2.5703,-2.5703,-2.5703,-2.5683,-2.566,-2.5597,-2.5513,-2.5465,-2.5395,-2.5339,-2.5308,-2.5308,-2.5308,-2.5173,-2.462,-2.4703,-2.4873,-2.4601,-2.4305,-2.4153,-2.4353,-2.4303,-2.419,-2.419,-2.419,-2.419,-2.419,-2.4103,-2.3976,-2.3753,-2.3533,-2.3242,-2.2772,-2.2621,-2.2514,-2.2307,-2.2296,-2.2296,-2.2296,-2.2296,-2.2296,-2.2296,-2.1869,-2.1705,-2.1886,-2.2003,-2.2017,-2.1901,-2.2003,-2.2017,-2.1901,-2.2166,-2.2061,-2.1597,-2.1597,-2.1521,-2.1399,-2.1118,-2.115,-2.1384,-2.0959,-2.078,-2.0747,-2.0296,-1.9878,-1.9463,-1.914,-1.8732,-1.8371,-1.8852,-1.9016,-1.9046,-2.4199,-2.4852,-2.5206,-2.461,-2.5157,-2.5427,-2.4615,-2.467,-2.4731,-2.4537,-2.4678,-2.4804,-2.4804,-2.4804,-2.4804,-2.4804,-2.4804,-2.4804,-2.4804,-2.4936,-2.501,-2.4991,-2.5179,-2.5308,-2.5308,-2.5308,-2.533,-2.5398,-2.5398,-2.5431,-2.5491,-2.5491,-2.5491,-2.5491,-2.5491,-2.5543,-2.5602,-2.5602,-2.5636,-2.5703,-2.5703,-2.5703,-2.5703,-2.5684,-2.5684,-2.5684,-2.5684,-2.564,-2.5577,-2.5511,-2.5443,-2.5375,-2.5312,-2.5308,-2.5308,-2.5308,-2.5308,-2.5308,-2.5303,-2.5043,-2.4589,-2.3731,-2.3364,-2.3382,-2.4053,-2.419,-2.419,-2.419,-2.419,-2.419,-2.4208,-2.3917,-2.3692,-2.3692,-2.3129,-2.2708,-2.2695,-2.2463,-2.2296,-2.2296,-2.2296,-2.2296,-2.2296,-2.2296,-2.2296,-2.2296,-2.1869,-2.1414,-2.1007,-2.1384,-2.1414,-2.1007,-2.1384,-2.1399,-2.0991,-2.1871,-2.2046,-2.1582,-2.1582,-2.1384,-2.0991,-2.0991,-2.0991,-2.0959,-2.05,-2.0297,-2.0263,-1.9856,-1.9708,-1.9708,-1.9708,-1.9708,-1.9708,-1.9693,-1.9693,-1.9603,-2.4615,-2.4802,-2.4912,-2.4738,-2.4907,-2.4982,-2.4746,-2.476,-2.4782,-2.4723,-2.476,-2.4804,-2.4804,-2.4804,-2.4804,-2.4804,-2.4804,-2.4842,-2.4924,-2.498,-2.4809,-2.4394,-2.4961,-2.5308,-2.5308,-2.5357,-2.5376,-2.5398,-2.5447,-2.549,-2.5491,-2.5491,-2.5491,-2.5493,-2.5552,-2.5572,-2.5603,-2.5658,-2.5683,-2.5703,-2.5703,-2.5703,-2.5625,-2.5019,-2.4785,-2.4707,-2.4141,-2.3903,-2.392,-2.4417,-2.4566,-2.464,-2.5139,-2.5308,-2.5308,-2.5308,-2.5308,-2.5269,-2.5135,-2.4962,-2.474,-2.4469,-2.4145,-2.3953,-2.4154,-2.419,-2.419,-2.419,-2.419,-2.4141,-2.3896,-2.3774,-2.3544,-2.3081,-2.2835,-2.2634,-2.2453,-2.2349,-2.2296,-2.2296,-2.2296,-2.218,-2.1838,-2.1809,-2.169,-2.14,-2.126,-2.0975,-2.0533,-2.0927,-2.1118,-2.0991,-2.1134,-2.1118,-2.0991,-2.126,-2.115,-2.0683,-2.0683,-2.0617,-2.05,-2.0225,-2.0227,-2.0483,-2.007,-1.9874,-1.9874,-1.9747,-1.9708,-1.9708,-1.9708,-1.9708,-1.9648,-1.9166,-1.9001,-1.8862,-2.4804,-2.4804,-2.4825,-2.4876,-2.4871,-2.4871,-2.4871,-2.4949,-2.4968,-2.4884,-2.4949,-2.5006,-2.5006,-2.5006,-2.5006,-2.5006,-2.5006,-2.4897,-2.4651,-2.4642,-2.4471,-2.4124,-2.4292,-2.4389,-2.4351,-2.4737,-2.4781,-2.4483,-2.4841,-2.489,-2.4592,-2.4925,-2.4886,-2.4574,-2.5317,-2.544,-2.5148,-2.5546,-2.5703,-2.5664,-2.5312,-2.5195,-2.5098,-2.4219,-2.3906,-2.3867,-2.3338,-2.3112,-2.3119,-2.3548,-2.367,-2.3779,-2.4586,-2.4832,-2.488,-2.5112,-2.5173,-2.5141,-2.4974,-2.4795,-2.4678,-2.4678,-2.4435,-2.419,-2.419,-2.419,-2.419,-2.419,-2.4094,-2.3937,-2.3753,-2.3471,-2.3165,-2.2772,-2.2612,-2.249,-2.2307,-2.2296,-2.2296,-2.2296,-2.2296,-2.212,-2.1658,-2.1597,-2.1368,-2.0764,-2.0715,-2.0532,-2.0089,-2.0483,-2.0649,-2.0482,-2.0649,-2.0649,-2.0497,-2.0497,-2.0414,-2.0297,-2.0297,-2.0227,-2.0037,-1.9803,-1.9821,-2.0052,-1.9818,-1.9708,-1.9708,-1.9708,-1.9708,-1.969,-1.946,-1.9387,-1.931,-1.8695,-1.8335,-1.8013,-2.4828,-2.4828,-2.4883,-2.5004,-2.5028,-2.5028,-2.5028,-2.5173,-2.5224,-2.5046,-2.5198,-2.5308,-2.5308,-2.525,-2.5192,-2.5192,-2.5125,-2.4769,-2.406,-2.4003,-2.3966,-2.3892,-2.324,-2.2823,-2.2688,-2.3628,-2.3774,-2.3098,-2.3844,-2.3858,-2.3203,-2.3945,-2.3867,-2.3164,-2.4844,-2.5137,-2.4453,-2.5332,-2.5703,-2.5625,-2.4746,-2.4394,-2.4297,-2.3359,-2.3027,-2.3046,-2.2917,-2.2825,-2.2768,-2.2762,-2.279,-2.2932,-2.3725,-2.4024,-2.4183,-2.4721,-2.4941,-2.4949,-2.4806,-2.4639,-2.4495,-2.4478,-2.4348,-2.419,-2.4161,-2.4161,-2.4151,-2.4132,-2.3876,-2.3649,-2.3628,-2.3105,-2.2695,-2.2673,-2.2463,-2.2296,-2.2296,-2.2296,-2.2296,-2.2296,-2.2296,-2.212,-2.1658,-2.1521,-2.1149,-2.0314,-2.0246,-2.0089,-1.9711,-2.0052,-2.0072,-1.9711,-2.007,-2.0072,-1.9693,-1.9708,-1.9892,-2.0246,-2.0246,-2.0037,-1.9708,-1.9708,-1.9708,-1.9708,-1.9708,-1.9708,-1.9708,-1.9639,-1.9621,-1.9584,-1.9043,-1.8836,-1.8765,-1.8213,-1.7675,-1.7103,-2.5182,-2.5182,-2.5192,-2.5224,-2.5229,-2.5229,-2.5229,-2.5269,-2.5279,-2.5229,-2.5269,-2.5308,-2.5308,-2.4736,-2.4356,-2.4356,-2.377,-2.3378,-2.3245,-2.3243,-2.2923,-2.2246,-2.2066,-2.1681,-2.1029,-2.2549,-2.3259,-2.3098,-2.3334,-2.3339,-2.3125,-2.3301,-2.3281,-2.3144,-2.4219,-2.457,-2.4453,-2.5332,-2.5703,-2.5625,-2.4746,-2.4393,-2.4228,-2.2665,-2.2068,-2.1926,-2.1232,-2.0938,-2.0986,-2.1594,-2.226,-2.2836,-2.3028,-2.3439,-2.3894,-2.4013,-2.443,-2.4799,-2.4615,-2.4537,-2.4461,-2.4303,-2.4237,-2.4123,-2.3876,-2.3806,-2.3724,-2.3459,-2.3357,-2.3224,-2.2972,-2.281,-2.2621,-2.2426,-2.2335,-2.2296,-2.2296,-2.2296,-2.2296,-2.2296,-2.2296,-2.212,-2.1658,-2.0975,-2.0365,-1.9874,-1.9821,-1.98,-1.9693,-1.9782,-1.98,-1.9708,-1.9782,-1.9782,-1.9708,-1.9708,-1.9747,-1.9821,-1.9821,-1.9782,-1.9708,-1.9708,-1.9708,-1.9708,-1.9708,-1.9708,-1.9672,-1.9244,-1.9062,-1.9024,-1.8477,-1.8283,-1.8207,-1.7548,-1.6978,-1.6334,-2.5308,-2.5308,-2.5308,-2.5308,-2.5308,-2.5308,-2.5344,-2.5352,-2.5354,-2.5391,-2.5398,-2.524,-2.4826,-2.4404,-2.3827,-2.3026,-2.2949,-2.2791,-2.2399,-2.2405,-2.2224,-2.1779,-2.137,-2.0978,-2.0561,-2.1439,-2.1907,-2.1907,-2.2362,-2.2344,-2.1914,-2.2324,-2.2305,-2.1953,-2.3223,-2.3574,-2.3262,-2.4099,-2.4469,-2.4371,-2.3484,-2.3101,-2.2969,-2.1639,-2.1117,-2.1013,-2.0534,-2.0322,-2.0359,-2.0789,-2.1235,-2.1722,-2.2451,-2.2892,-2.3318,-2.3958,-2.4373,-2.4607,-2.4419,-2.4348,-2.4294,-2.4036,-2.3947,-2.3917,-2.3735,-2.3703,-2.3599,-2.3259,-2.3081,-2.291,-2.2733,-2.2599,-2.2463,-2.2307,-2.2296,-2.2223,-2.2003,-2.2149,-2.2209,-2.1988,-2.1974,-2.172,-2.1038,-2.0382,-1.9927,-1.9726,-1.9708,-1.9708,-1.9708,-1.9708,-1.9708,-1.9708,-1.9708,-1.9584,-1.9332,-1.9332,-1.9188,-1.8949,-1.9207,-1.9332,-1.9314,-1.9043,-1.908,-1.9299,-1.9043,-1.8949,-1.8912,-1.8631,-1.8516,-1.8477,-1.7927,-1.7727,-1.7646,-1.705,-1.6474,-1.5817,-2.5082,-2.51,-2.5114,-2.5114,-2.5234,-2.5361,-2.5391,-2.5413,-2.5428,-2.5488,-2.5484,-2.5177,-2.4295,-2.3944,-2.3169,-2.1621,-2.2163,-2.2265,-2.1556,-2.1568,-2.1582,-2.1582,-2.0955,-2.0605,-2.0605,-2.0605,-2.0605,-2.0605,-2.1328,-2.1309,-2.0625,-2.1348,-2.1289,-2.0664,-2.2207,-2.2519,-2.1933,-2.2743,-2.3086,-2.3001,-2.2072,-2.1696,-2.1591,-2.0709,-2.039,-2.0374,-2.0313,-2.0301,-2.0327,-2.0462,-2.0484,-2.0696,-2.2073,-2.2553,-2.283,-2.395,-2.4358,-2.4419,-2.4247,-2.4161,-2.4054,-2.3774,-2.366,-2.3599,-2.3544,-2.3533,-2.3444,-2.3111,-2.2827,-2.2621,-2.2621,-2.245,-2.2296,-2.2296,-2.2223,-2.2032,-2.1658,-2.1869,-2.193,-2.1536,-2.1491,-2.1229,-2.0537,-2.0076,-1.981,-1.9872,-1.9768,-1.9708,-1.9708,-1.9708,-1.9708,-1.9708,-1.9603,-1.935,-1.8893,-1.8817,-1.8496,-1.7967,-1.8419,-1.8669,-1.8746,-1.8302,-1.8341,-1.8727,-1.8302,-1.8106,-1.8086,-1.8007,-1.7967,-1.7907,-1.7374,-1.7105,-1.6933,-1.6417,-1.5998,-1.5525,-2.4254,-2.431,-2.4344,-2.4344,-2.4971,-2.5462,-2.5401,-2.5456,-2.5477,-2.5418,-2.5454,-2.5177,-2.4295,-2.2911,-2.1667,-2.0732,-2.0773,-2.0803,-2.0759,-2.0761,-2.0761,-2.0761,-2.0664,-2.0605,-2.0605,-2.0605,-2.0605,-2.0605,-2.0723,-2.0723,-2.0605,-2.0723,-2.0703,-2.0644,-2.1621,-2.1971,-2.1861,-2.2737,-2.3074,-2.2946,-2.2059,-2.1675,-2.1527,-2.064,-2.0302,-2.0307,-2.0296,-2.03,-2.0404,-2.1096,-2.1229,-2.1251,-2.2193,-2.2784,-2.314,-2.3326,-2.3793,-2.4237,-2.4199,-2.3996,-2.3764,-2.3703,-2.3488,-2.3189,-2.291,-2.2835,-2.2751,-2.248,-2.2391,-2.2346,-2.2346,-2.2321,-2.2296,-2.2296,-2.1974,-2.1673,-2.1613,-2.1369,-2.115,-2.1086,-2.1071,-2.1101,-2.1171,-2.0601,-2.0314,-2.0546,-2.0019,-1.9708,-1.9708,-1.9708,-1.9708,-1.9708,-1.9244,-1.8968,-1.8893,-1.8438,-1.7947,-1.7415,-1.7483,-1.7767,-1.8224,-1.8145,-1.8145,-1.8204,-1.8145,-1.8106,-1.8066,-1.7605,-1.7415,-1.7353,-1.6816,-1.629,-1.5748,-1.5219,-1.5291,-1.5459,-2.3563,-2.3878,-2.4197,-2.4197,-2.4922,-2.5493,-2.55,-2.5543,-2.5558,-2.5563,-2.5168,-2.4746,-2.4355,-2.2813,-2.1471,-2.0621,-2.0562,-2.0564,-2.0605,-2.0605,-2.0605,-2.0605,-2.0605,-2.0605,-2.0605,-2.0605,-2.0585,-2.0541,-2.0585,-2.0605,-2.0605,-2.0564,-2.0541,-2.056,-2.0901,-2.1043,-2.1045,-2.1393,-2.1524,-2.1456,-2.1061,-2.0905,-2.0829,-2.0455,-2.0307,-2.0308,-2.0308,-2.0308,-2.0411,-2.1105,-2.1276,-2.1396,-2.2525,-2.3023,-2.3267,-2.3656,-2.3971,-2.4161,-2.3976,-2.3806,-2.3599,-2.3224,-2.3033,-2.2835,-2.2537,-2.249,-2.2436,-2.2321,-2.2296,-2.2296,-2.2296,-2.2296,-2.2296,-2.2296,-2.1913,-2.1521,-2.1291,-2.1102,-2.0894,-2.0633,-2.06,-2.0557,-2.0429,-2.0147,-2.0179,-2.0662,-2.0079,-1.9854,-2.0243,-1.9884,-1.9566,-1.9262,-1.9024,-1.8612,-1.8007,-1.7767,-1.7394,-1.6858,-1.6858,-1.7126,-1.7646,-1.7353,-1.7374,-1.7646,-1.7353,-1.7209,-1.7188,-1.6951,-1.6642,-1.633,-1.6083,-1.5644,-1.5073,-1.4821,-1.4901,-1.4993]},{"header":{"parameterUnit":"m.s-1","parameterCategory":1,"la1":30.6,"la2":28.766,"lo1":-90.7593,"lo2":-88.6598,"dy":0.0162,"dx":0.0183,"nx":116,"ny":114,"refTime":"2023-07-20T00:00:00:Z","depth":0,"parameterNumber":3,"parameterNumberName":"V-component_of_WINDS"},"data":[0.0,0.0,0.0,0.0,0.0,0.0,0.0,0.0,0.0,0.0,0.0,0.0,0.0,0.0,0.0,0.0,0.0,0.0,0.0,0.0,0.0,0.0,0.0,0.0,0.0,0.0,0.0,0.0,0.0,0.0,0.0,0.0,0.0,0.0,0.0,0.0,0.0,0.0,0.0,0.0,0.0,0.0,0.0,0.0,0.0,0.0,0.0,0.0,0.0,0.0,0.0,0.0,0.0,0.0,0.0,0.0,0.0,0.0,0.0,0.0,0.0,0.0,0.0,0.0,0.0,0.0,0.0,0.0,0.0,0.0,0.0,0.0,0.0,0.0,0.0,0.0,0.0,0.0,0.0,0.0,0.0,0.0,0.0,0.0,0.0,0.0,0.0,0.0,0.0,0.0,0.0,0.0,0.0,0.0,0.0,0.0,0.0,0.0,0.0,0.0,0.0,0.0,0.0,0.0,0.0,0.0,0.0,0.0,0.0,0.0,0.0,0.0,0.0,0.0,0.0,0.0,0.0,0.0,0.0,0.0,0.0,0.0,0.0,0.0,0.0,0.0,0.0,0.0,0.0,0.0,0.0,0.0,0.0,0.0,0.0,0.0,0.0,0.0,0.0,0.0,0.0,0.0,0.0,0.0,0.0,0.0,0.0,0.0,0.0,0.0,0.0,0.0,0.0,0.0,0.0,0.0,0.0,0.0,0.0,0.0,0.0,0.0,0.0,0.0,0.0,0.0,0.0,0.0,0.0,0.0,0.0,0.0,0.0,0.0,0.0,0.0,0.0,0.0,0.0,0.0,0.0,0.0,0.0,0.0,0.0,0.0,0.0,0.0,0.0,0.0,0.0,0.0,0.0,0.0,0.0,0.0,0.0,0.0,0.0,0.0,0.0,0.0,0.0,0.0,0.0,0.0,0.0,0.0,0.0,0.0,0.0,0.0,0.0,0.0,0.0,0.0,0.0,0.0,0.0,0.0,0.0,0.0,0.0,0.0,0.0,0.0,0.0,0.0,0.0,0.0,0.0,0.0,0.0,0.0,0.0,0.0,0.0,0.0,0.0,0.0,0.0,0.0,0.0,0.0,0.0,0.0,0.0,0.0,0.0,0.0,0.0,0.0,0.0,0.0,0.0,0.0,0.0,0.0,0.0,0.0,0.0,0.0,0.0,0.0,0.0,0.0,0.0,0.0,0.0,0.0,0.0,0.0,0.0,0.0,0.0,0.0,0.0,0.0,0.0,0.0,0.0,0.0,0.0,0.0,0.0,0.0,0.0,0.0,0.0,0.0,0.0,0.0,0.0,0.0,0.0,0.0,0.0,0.0,0.0,0.0,0.0,0.0,0.0,0.0,0.0,0.0,0.0,0.0,0.0,0.0,0.0,0.0,0.0,0.0,0.0,0.0,0.0,0.0,0.0,0.0,0.0,0.0,0.0,0.0,0.0,0.0,0.0,0.0,0.0,0.0,0.0,0.0,0.0,0.0,0.0,0.0,0.0,0.0,0.0,0.0,0.0,0.0,0.0,0.0,0.0,0.0,0.0,0.0,0.0,0.0,0.0,0.0,0.0,0.0,0.0,0.0,0.0,0.0,0.0,0.0,0.0,0.0,0.0,0.0,0.0,0.0,0.0,0.0,0.0,0.0,0.0,0.0,0.0,0.0,0.0,0.0,0.0,0.0,0.0,0.0,0.0,0.0,0.0,0.0,0.0,0.0,0.0,0.0,0.0,0.0,0.0,0.0,0.0,0.0,0.0,0.0,0.0,0.0,0.0,0.0,0.0,0.0,0.0,0.0,0.0,0.0,0.0,0.0,0.0,0.0,0.0,0.0,0.0,0.0,0.0,0.0,0.0,0.0,0.0,0.0,0.0,0.0,0.0,0.0,0.0,0.0,0.0,0.0,0.0,0.0,0.0,0.0,0.0,0.0,0.0,0.0,0.0,0.0,0.0,0.0,0.0,0.0,0.0,0.0,0.0,0.0,0.0,0.0,0.0,0.0,0.0,0.0,0.0,0.0,0.0,0.0,0.0,0.0,0.0,0.0,0.0,0.0,0.0,0.0,0.0,0.0,0.0,0.0,0.0,0.0,0.0,0.0,0.0,0.0,0.0,0.0,0.0,0.0,0.0,0.0,0.0,0.0,0.0,0.0,0.0,0.0,0.0,0.0,0.0,0.0,0.0,0.0,0.0,0.0,0.0,0.0,0.0,0.0,0.0,0.0,0.0,0.0,0.0,0.0,0.0,0.0,0.0,0.0,0.0,0.0,0.0,0.0,0.0,0.0,0.0,0.0,0.0,0.0,0.0,0.0,0.0,0.0,0.0,0.0,0.0,0.0,0.0,0.0,0.0,0.0,0.0,0.0,0.0,0.0,0.0,0.0,0.0,0.0,0.0,0.0,0.0,0.0,0.0,0.0,0.0,0.0,0.0,0.0,0.0,0.0,0.0,0.0,0.0,0.0,0.0,0.0,0.0,0.0,0.0,0.0,0.0,0.0,0.0,0.0,0.0,0.0,0.0,0.0,0.0,0.0,0.0,0.0,0.0,0.0,0.0,0.0,0.0,0.0,0.0,0.0,0.0,0.0,0.0,0.0,0.0,0.0,0.0,0.0,0.0,0.0,0.0,0.0,0.0,0.0,0.0,0.0,0.0,0.0,0.0,0.0,0.0,0.0,0.0,0.0,0.0,0.0,0.0,0.0,0.0,0.0,0.0,0.0,0.0,0.0,0.0,0.0,0.0,0.0,0.0,0.0,0.0,0.0,0.0,0.0,0.0,0.0,0.0,0.0,0.0,0.0,0.0,0.0,0.0,0.0,0.0,0.0,0.0,0.0,0.0,0.0,0.0,0.0,0.0,0.0,0.0,0.0,0.0,0.0,0.0,0.0,0.0,0.0,0.0,0.0,0.0,0.0,0.0,0.0,0.0,0.0,0.0,0.0,0.0,0.0,0.0,0.0,0.0,0.0,0.0,0.0,0.0,0.0,0.0,0.0,0.0,0.0,0.0,0.0,0.0,0.0,0.0,0.0,0.0,0.0,0.0,0.0,0.0,0.0,0.0,0.0,0.0,0.0,0.0,0.0,0.0,0.0,0.0,0.0,0.0,0.0,0.0,0.0,0.0,0.0,0.0,0.0,0.0,0.0,0.0,0.0,0.0,0.0,0.0,0.0,0.0,0.0,0.0,0.0,0.0,0.0,0.0,0.0,0.0,0.0,0.0,0.0,0.0,0.0,0.0,0.0,0.0,0.0,0.0,0.0,0.0,0.0,0.0,0.0,0.0,0.0,0.0,0.0,0.0,0.0,0.0,0.0,0.0,0.0,0.0,0.0,0.0,0.0,0.0,0.0,0.0,0.0,0.0,0.0,0.0,0.0,0.0,0.0,0.0,0.0,0.0,0.0,0.0,0.0,0.0,0.0,0.0,0.0,0.0,0.0,0.0,0.0,0.0,0.0,0.0,0.0,0.0,0.0,0.0,0.0,0.0,0.0,0.0,0.0,0.0,0.0,0.0,0.0,0.0,0.0,0.0,0.0,0.0,0.0,0.0,0.0,0.0,0.0,0.0,0.0,0.0,0.0,0.0,0.0,0.0,0.0,0.0,0.0,0.0,0.0,0.0,0.0,0.0,0.0,0.0,0.0,0.0,0.0,0.0,0.0,0.0,0.0,0.0,0.0,0.0,0.0,0.0,0.0,0.0,0.0,0.0,0.0,0.0,0.0,0.0,0.0,0.0,0.0,0.0,0.0,0.0,0.0,0.0,0.0,0.0,0.0,0.0,0.0,0.0,0.0,0.0,0.0,0.0,0.0,0.0,0.0,0.0,0.0,0.0,0.0,0.0,0.0,0.0,0.0,0.0,0.0,0.0,0.0,0.0,0.0,0.0,0.0,0.0,0.0,0.0,0.0,0.0,0.0,0.0,0.0,0.0,0.0,0.0,0.0,0.0,0.0,0.0,0.0,0.0,0.0,0.0,0.0,0.0,0.0,0.0,0.0,0.0,0.0,0.0,0.0,0.0,0.0,0.0,0.0,0.0,0.0,0.0,0.0,0.0,0.0,0.0,0.0,0.0,0.0,0.0,0.0,0.0,0.0,0.0,0.0,0.0,0.0,0.0,0.0,0.0,0.0,0.0,0.0,0.0,0.0,0.0,0.0,0.0,0.0,0.0,0.0,0.0,0.0,0.0,0.0,0.0,0.0,0.0,0.0,0.0,0.0,0.0,0.0,0.0,0.0,0.0,0.0,0.0,0.0,0.0,0.0,0.0,0.0,0.0,0.0,0.0,0.0,0.0,0.0,0.0,0.0,0.0,0.0,0.0,0.0,0.0,0.0,0.0,0.0,0.0,0.0,0.0,0.0,0.0,0.0,0.0,0.0,0.0,0.0,0.0,0.0,0.0,0.0,0.0,0.0,0.0,0.0,0.0,0.0,0.0,0.0,0.0,0.0,0.0,0.0,0.0,0.0,0.0,0.0,0.0,0.0,0.0,0.0,0.0,0.0,0.0,0.0,0.0,0.0,0.0,0.0,0.0,0.0,0.0,0.0,0.0,0.0,0.0,0.0,0.0,0.0,0.0,0.0,0.0,0.0,0.0,0.0,0.0,0.0,0.0,0.0,0.0,0.0,0.0,0.0,0.0,0.0,0.0,0.0,0.0,0.0,0.0,0.0,0.0,0.0,0.0,0.0,0.0,0.0,0.0,0.0,0.0,0.0,0.0,0.0,0.0,0.0,0.0,0.0,0.0,0.0,0.0,0.0,0.0,0.0,0.0,0.0,0.0,0.0,0.0,0.0,0.0,0.0,0.0,0.0,0.0,0.0,0.0,0.0,0.0,0.0,0.0,0.0,0.0,0.0,0.0,0.0,0.0,0.0,0.0,0.0,0.0,0.0,0.0,0.0,0.0,0.0,0.0,0.0,0.0,0.0,0.0,0.0,0.0,0.0,0.0,0.0,0.0,0.0,0.0,0.0,0.0,0.0,0.0,0.0,0.0,0.0,0.0,0.0,0.0,0.0,0.0,0.0,0.0,0.0,0.0,0.0,0.0,0.0,0.0,0.0,0.0,0.0,0.0,0.0,0.0,0.0,0.0,0.0,0.0,0.0,0.0,0.0,0.0,0.0,0.0,0.0,0.0,0.0,0.0,0.0,0.0,0.0,0.0,0.0,0.0,0.0,0.0,0.0,0.0,0.0,0.0,0.0,0.0,0.0,0.0,0.0,0.0,0.0,0.0,0.0,0.0,0.0,0.0,0.0,0.0,0.0,0.0,0.0,0.0,0.0,0.0,0.0,0.0,0.0,0.0,0.0,0.0,0.0,0.0,0.0,0.0,0.0,0.0,0.0,0.0,0.0,0.0,0.0,0.0,0.0,0.0,0.0,0.0,0.0,0.0,0.0,0.0,0.0,0.0,0.0,0.0,0.0,0.0,0.0,0.0,0.0,0.0,0.0,0.0,0.0,0.0,0.0,0.0,0.0,0.0,0.0,0.0,0.0,0.0,0.0,0.0,0.0,0.0,0.0,0.0,0.0,0.0,0.0,0.0,0.0,0.0,0.0,0.0,0.0,0.0,0.0,0.0,0.0,0.0,0.0,0.0,0.0,0.0,0.0,0.0,0.0,0.0,0.0,0.0,0.0,0.0,0.0,0.0,0.0,0.0,0.0,0.0,0.0,0.0,0.0,0.0,0.0,0.0,0.0,0.0,0.0,0.0,0.0,0.0,0.0,0.0,0.0,0.0,0.0,0.0,0.0,0.0,0.0,0.0,0.0,0.0,0.0,0.0,0.0,0.0,0.0,0.0,0.0,0.0,0.0,0.0,0.0,0.0,0.0,0.0,0.0,0.0,0.0,0.0,0.0,0.0,0.0,0.0,0.0,0.0,0.0,0.0,0.0,0.0,0.0,0.0,0.0,0.0,0.0,0.0,0.0,0.0,0.0,0.0,0.0,0.0,0.0,0.0,0.0,0.0,0.0,0.0,0.0,0.0,0.0,0.0,0.0,0.0,0.0,0.0,0.0,0.0,0.0,0.0,0.0,0.0,0.0,0.0,0.0,0.0,0.0,0.0,0.0,0.0,0.0,0.0,0.0,0.0,0.0,0.0,0.0,0.0,0.0,0.0,0.0,-0.9133,0.0,0.0,0.0,0.0,0.0,0.0,0.0,0.0,0.0,0.0,0.0,0.0,0.0,0.0,0.0,0.0,0.0,0.0,0.0,0.0,0.0,0.0,0.0,0.0,0.0,0.0,0.0,0.0,0.0,0.0,0.0,0.0,0.0,0.0,0.0,0.0,0.0,0.0,0.0,0.0,0.0,0.0,0.0,0.0,0.0,0.0,0.0,0.0,0.0,0.0,0.0,0.0,0.0,0.0,0.0,0.0,0.0,0.0,0.0,0.0,0.0,0.0,0.0,0.0,0.0,0.0,0.0,0.0,0.0,0.0,0.0,0.0,0.0,0.0,0.0,0.0,0.0,0.0,0.0,0.0,0.0,0.0,0.0,0.0,0.0,0.0,0.0,0.0,0.0,0.0,0.0,0.0,0.0,0.0,0.0,0.0,0.0,0.0,0.0,0.0,0.0,0.0,0.0,0.0,0.0,0.0,0.0,0.0,0.0,0.0,0.0,0.0,0.0,0.0,0.0,0.0,-0.9126,0.0,0.0,0.0,0.0,0.0,0.0,0.0,0.0,0.0,0.0,0.0,0.0,0.0,0.0,0.0,0.0,0.0,0.0,0.0,0.0,0.0,0.0,0.0,0.0,0.0,0.0,0.0,0.0,0.0,0.0,0.0,0.0,0.0,0.0,0.0,0.0,0.0,0.0,0.0,0.0,0.0,0.0,0.0,0.0,0.0,0.0,0.0,0.0,0.0,0.0,0.0,0.0,0.0,0.0,0.0,0.0,0.0,0.0,0.0,0.0,0.0,0.0,0.0,0.0,0.0,0.0,0.0,0.0,0.0,0.0,0.0,0.0,0.0,0.0,0.0,0.0,0.0,0.0,0.0,0.0,0.0,0.0,0.0,0.0,0.0,0.0,0.0,0.0,0.0,0.0,0.0,0.0,0.0,0.0,0.0,0.0,0.0,0.0,0.0,0.0,0.0,0.0,0.0,0.0,0.0,0.0,0.0,0.0,-0.933,-0.9466,-0.9537,-0.9537,-0.9537,-0.9527,-0.9303,-0.9066,-0.892,0.0,0.0,0.0,0.0,0.0,0.0,0.0,0.0,0.0,0.0,0.0,0.0,0.0,0.0,0.0,0.0,0.0,0.0,0.0,0.0,0.0,0.0,0.0,0.0,0.0,0.0,0.0,0.0,0.0,0.0,0.0,0.0,0.0,0.0,0.0,0.0,0.0,0.0,0.0,0.4563,0.2356,0.1302,0.1265,0.0271,0.0,0.0,0.0,0.0,0.0,0.0,0.0,0.0,0.0,0.0,0.0,0.0,0.0,0.0,0.0,0.0,0.0,0.0,0.0,0.0,0.0,0.0,0.0,0.0,0.0,0.0,0.0,0.0,0.0,0.0,0.0,0.0,0.0,0.0,0.0,0.0,0.0,0.0,0.0,0.0,0.0,0.0,0.0,0.0,0.0,0.0,0.0,0.0,0.0,0.0,0.0,0.0,0.0,0.0,0.0,0.0,0.0,0.0,-0.9144,-0.9429,-0.9981,-1.0137,-0.9845,-1.0317,-1.0388,-1.0161,-1.0161,-1.0161,-1.0164,-1.0249,0.0,-0.9373,-1.0081,0.0,0.0,0.0,0.0,0.0,0.0,0.0,0.0,0.0,0.0,0.0,0.0,0.0,0.0,0.0,0.0,0.0,0.0,0.0,0.0,0.0,0.0,0.0,0.0,0.0,0.0,0.0,0.0,0.0,0.0,0.0,0.0,0.0,0.0,0.0,0.0,0.4917,0.4848,0.4377,0.3296,0.2397,0.167,0.1311,0.0505,-0.0619,-0.1093,0.0,0.0,0.0,0.0,0.0,0.0,0.0,0.0,0.0,0.0,0.0,0.0,0.0,0.0,0.0,0.0,0.0,0.0,0.0,0.0,0.0,0.0,0.0,0.0,0.0,0.0,0.0,0.0,0.0,0.0,0.0,0.0,0.0,0.0,0.0,0.0,0.0,0.0,0.0,0.0,0.0,0.0,0.0,0.0,0.0,0.0,0.0,0.0,0.0,0.0,0.0,0.0,0.0,-0.9363,-0.9663,-0.989,-1.0103,-1.0534,-1.0683,-1.0493,-1.0688,-1.0782,-1.0653,-1.0568,-1.0527,-1.0531,-1.0595,-1.0436,-1.0159,-1.0175,-0.9727,-0.8934,0.0,0.0,0.0,0.0,-1.2237,-1.414,0.0,0.0,0.0,0.0,0.0,0.0,0.0,0.0,0.0,0.0,0.0,0.0,0.0,0.0,0.0,0.4592,0.0,0.0,0.0,0.0,0.0,0.0,0.0,0.0,0.0,0.0,0.0,0.5532,0.5696,0.5319,0.4482,0.4157,0.3445,0.2508,0.2534,0.1746,0.0481,-0.0209,-0.0476,0.0,0.0,0.0,0.0,0.0,0.0,0.0,0.0,0.0,0.0,0.0,0.0,0.0,0.0,0.0,0.0,0.0,0.0,0.0,0.0,0.0,0.0,0.0,0.0,0.0,0.0,0.0,0.0,0.0,0.0,0.0,0.0,0.0,0.0,0.0,0.0,0.0,0.0,0.0,0.0,0.0,0.0,0.0,0.0,0.0,0.0,0.0,0.0,0.0,-0.4062,-0.5903,-0.762,-0.9274,-1.0105,-1.0575,-1.0721,-1.0985,-1.1052,-1.1052,-1.104,-1.1002,-1.0995,-1.0806,-1.0721,-1.0721,-1.0721,-1.0721,-1.0683,-1.0236,-0.9788,-0.9357,-0.9096,-0.9349,-0.9869,-1.0148,-1.1771,-1.3957,0.0,0.0,0.0,0.0,0.0,0.0,0.0,0.0,0.0,0.0,0.0,0.0,0.0,0.0,0.6752,0.802,0.7398,0.6379,0.0,0.0,0.0,0.0,0.0,0.0,0.0,0.0,0.0,0.728,0.6144,0.5706,0.5862,0.461,0.3961,0.3909,0.3902,0.3165,0.1882,0.1706,0.1712,0.1773,0.0,0.0,0.0,0.0,0.0,0.0,0.0,0.0,0.0,0.0,0.0,0.0,0.0,0.0,0.0,0.0,0.0,0.0,0.0,0.0,0.0,0.0,0.0,0.0,0.0,0.0,0.0,0.0,0.0,0.0,0.0,0.0,0.0,0.0,0.0,0.0,0.0,0.0,0.0,0.0,0.0,0.0,0.0,0.0,0.0,0.0,-0.1263,-0.2168,-0.2617,-0.562,-0.7555,-0.808,-1.0067,-1.1192,-1.1345,-1.1504,-1.1586,-1.1582,-1.129,-1.1151,-1.1141,-1.0853,-1.0721,-1.0721,-1.0721,-1.0721,-1.0683,-1.0172,-0.997,-0.9886,-0.9367,-0.9275,-0.9408,-0.9081,-1.0092,-1.1859,0.0,0.0,0.0,0.0,0.0,0.0,0.0,0.0,0.0,0.0,0.0,0.0,0.0,0.8272,0.9291,1.0898,1.0212,0.949,0.8978,0.0,0.0,0.0,0.0,0.0,0.0,0.0,0.7653,0.7519,0.7273,0.7186,0.7285,0.6781,0.6124,0.5275,0.5275,0.5003,0.4512,0.3599,0.3195,0.3107,0.2739,0.1551,0.0,0.0,0.0,0.0,0.0,0.0,0.0,0.0,0.0,0.0,0.0,0.0,0.0,0.0,0.0,0.0,0.0,0.0,0.0,0.0,0.0,0.0,0.0,0.0,0.0,0.0,0.0,0.0,0.0,0.0,0.0,0.0,0.0,0.0,0.0,0.0,0.0,0.0,0.0,0.0,0.0,0.0,0.0,0.0,-0.0465,-0.1289,-0.2575,-0.5011,-0.7002,-0.8306,-1.0349,-1.1484,-1.1538,-1.1592,-1.1619,-1.1616,-1.1307,-1.1231,-1.122,-1.0853,-1.0721,-1.0721,-1.0721,-1.0721,-1.0707,-1.0548,-1.0422,-1.0314,-1.01,-0.9869,-0.9663,-0.9596,-1.0532,-1.1899,0.0,0.0,0.0,0.0,0.0,0.0,0.0,0.0,0.0,0.0,0.0,0.6973,0.9841,1.0973,1.2083,1.3503,1.2759,1.1948,1.1364,0.0,0.0,0.0,0.0,0.0,0.0,0.9385,0.9027,0.8409,0.8574,0.8432,0.7988,0.7988,0.7537,0.6681,0.6681,0.6681,0.6625,0.575,0.5016,0.4537,0.4327,0.3285,0.1786,0.0,0.0,0.0,0.0,0.0,0.0,0.0,0.0,0.0,0.0,0.0,0.0,0.0,0.0,0.0,0.0,0.0,0.0,0.0,0.0,0.0,0.0,0.0,0.0,0.0,0.0,0.0,0.0,0.0,0.0,0.0,0.0,0.0,0.0,0.0,0.0,0.0,0.0,0.0,0.0,0.0,0.0,0.0,0.0,-0.0509,-0.1704,-0.3689,-0.5663,-0.7566,-0.9588,-1.0957,-1.1691,-1.1643,-1.1619,-1.1616,-1.1307,-1.1231,-1.122,-1.0853,-1.0721,-1.0721,-1.0721,-1.0721,-1.0717,-1.0663,-1.0582,-1.0487,-1.0439,-1.0239,-0.9975,-0.9913,-1.0504,-1.1379,0.0,0.0,0.0,0.0,0.0,0.0,0.0,0.0,0.0,0.0,0.5775,0.8442,1.2659,1.4135,1.5088,1.5908,1.5056,1.374,1.2052,1.1241,0.0,0.0,0.0,0.0,1.1762,1.1375,1.0757,1.0038,1.0034,0.9345,0.8024,0.8024,0.8028,0.7982,0.8031,0.8035,0.8088,0.8088,0.7392,0.6159,0.5868,0.5066,0.4048,0.0,0.0,0.0,0.0,0.0,0.0,0.0,0.0,0.0,0.0,0.0,0.0,0.0,0.0,0.0,0.0,0.0,0.0,0.0,0.0,0.0,0.0,0.0,0.0,0.0,0.0,0.0,0.0,0.0,0.0,0.0,0.0,0.0,0.0,0.0,0.0,0.0,0.0,0.0,0.0,0.0,0.0,0.0,0.0,0.0,0.0,-0.1829,-0.3853,-0.5956,-0.7741,-0.9682,-1.1757,-1.1691,-1.1616,-1.1609,-1.1307,-1.1231,-1.1148,-1.0853,-1.0721,-1.0721,-1.0721,-1.0717,-1.07,-1.0555,-1.0487,-1.0466,-1.0331,-1.0276,-1.0236,-0.993,-0.9815,-1.018,0.0,0.0,0.0,0.0,0.0,0.0,0.0,0.0,0.0,0.0,0.7564,1.1463,1.5603,1.6446,1.7491,1.9331,1.739,1.5828,1.527,0.0,0.0,0.0,0.0,0.0,1.3786,1.2502,1.1563,1.1072,1.0877,1.0148,0.8934,0.8934,0.8575,0.7875,0.8881,0.934,0.9509,1.0435,1.0625,1.0149,0.8928,0.761,0.6469,0.0,0.0,0.0,0.0,0.0,0.0,0.0,0.0,0.0,0.0,0.0,0.0,0.0,0.0,0.0,0.0,0.0,0.0,0.0,0.0,0.0,0.0,0.0,0.0,0.0,0.0,0.0,0.0,0.0,0.0,0.0,0.0,0.0,0.0,0.0,0.0,0.0,0.0,0.0,0.0,0.0,0.0,0.0,0.0,0.0,0.0,-0.1876,-0.386,-0.5959,-0.7776,-0.9682,-1.1757,-1.1691,-1.1562,-1.145,-1.1257,-1.1107,-1.0999,-1.0809,-1.0721,-1.0721,-1.0721,-1.0656,-1.0551,-1.051,-1.0365,-1.0178,-1.0253,-1.0212,-1.009,-0.9893,-0.9686,-0.9748,0.0,0.0,0.0,0.0,0.0,0.0,0.0,0.0,0.0,0.0,0.8871,1.3105,1.6537,1.752,1.8534,2.0011,1.797,1.6513,1.637,0.0,0.0,0.0,0.0,1.5604,1.5726,1.4467,1.3448,1.2779,1.2197,1.1268,1.0033,1.0033,0.9719,0.9218,1.0016,1.0459,1.0695,1.1414,1.1811,1.1876,1.151,1.0473,0.9289,0.97,0.8973,0.7725,0.6936,0.6076,0.5079,0.3826,0.0,0.0,0.0,0.0,0.0,0.0,0.0,0.0,0.0,0.0,0.0,0.0,0.0,0.0,0.0,0.0,0.0,0.0,0.0,0.0,0.0,0.0,0.0,0.0,0.0512,0.0,0.0,0.0,0.0,0.0,0.0,0.0,0.0,0.0,0.0,0.0,0.0,0.0,0.0,-0.1034,-0.2664,-0.4689,-0.6552,-0.8472,-1.0572,-1.125,-1.1541,-1.1389,-1.1236,-1.1087,-1.0877,-1.0792,-1.0721,0.0,-1.0721,-1.0633,-1.0487,-1.0429,-1.0263,0.0,0.0,0.0,0.0,0.0,-0.9395,-0.9384,0.0,0.0,0.0,0.0,0.0,0.0,0.0,0.0,0.0,0.0,0.0,1.3707,1.6195,1.7601,1.8563,1.9031,1.7581,1.6671,0.0,0.0,0.0,1.7058,1.7171,1.7319,1.7546,1.6666,1.5835,1.4936,1.3836,1.2603,1.1378,1.1222,1.1131,1.1151,1.1359,1.1625,1.1978,1.2186,1.2436,1.2758,1.3957,1.349,1.2011,1.1657,1.1498,1.1274,0.9517,0.8326,0.7362,0.605,0.0,0.0,0.0,0.0,0.0,0.0,0.0,0.0,0.0,0.0,0.0,0.0,0.0,0.0,0.0,0.0,0.0,0.0,0.0,0.0,0.0,0.0,0.0,0.0,0.1377,0.0292,0.0,0.0,0.0,0.0,0.0,0.0,0.0,0.0,0.0,0.0,0.0,0.0,0.0,0.0,0.0,0.0,0.0,-0.6813,-0.8874,-1.0668,-1.1535,-1.1362,-1.1226,-1.108,-1.085,-1.0782,-1.0721,-1.0717,-1.0704,-1.0609,-1.0456,-1.0314,-1.0164,-0.996,-0.9943,-0.9829,-0.9547,-0.9242,-0.9039,0.0,0.0,0.0,0.0,0.0,0.0,0.0,0.0,0.0,0.0,0.4767,0.9435,1.3405,1.6045,1.7116,1.7941,1.8797,1.8422,1.8666,0.0,0.0,1.9831,1.9984,1.9502,1.9138,1.8991,1.7713,1.7119,1.7159,1.5616,1.4234,1.2993,1.194,1.1408,1.1402,1.2802,1.3946,1.4897,1.6287,1.7144,1.7485,1.7771,1.5943,1.3215,1.4191,1.3828,1.266,1.1251,1.0136,0.9073,0.7538,0.6361,0.5453,0.4832,0.0,0.0,0.0,0.0,0.0,0.0,0.0,0.0,0.0,0.0,0.0,0.0,0.0,0.0,0.0,0.0,0.0,0.0,0.0,0.0,0.3089,0.2653,0.1881,0.023,0.0,0.0,0.0,0.0,0.0,0.0,0.0,0.0,0.0,0.0,0.0,0.0,0.0,-0.0948,-0.3004,-0.4857,-0.6813,-0.8874,-1.0668,-1.148,-1.1206,0.0,0.0,-1.0765,-1.0734,-1.0721,-1.0714,-1.0592,-1.0456,-1.031,-1.0158,-0.9943,-0.9852,-0.9741,-0.9585,-0.9391,-0.9089,-0.8886,-0.877,0.0,0.0,0.0,0.0,0.0,0.0,0.0,0.0,0.0,0.0,0.8665,1.2183,1.4215,1.526,1.6122,1.6923,1.7776,0.0,0.0,2.0762,2.1446,2.1822,2.1488,2.0995,2.0401,1.894,1.8029,1.7754,1.6338,1.5326,1.4747,1.4084,1.3977,1.4416,1.5571,1.671,1.7831,1.8965,1.9353,1.9255,1.9255,1.7554,1.5078,1.5983,1.5454,1.4062,1.209,1.102,1.028,0.8361,0.7321,0.6675,0.6007,0.4912,0.3658,0.0,0.0,0.0,0.0,0.0,0.0,0.0,0.0,0.0,0.0,0.0,0.0,0.0,0.0,1.0413,0.0,0.0,0.6684,0.5989,0.4333,0.2775,0.1707,0.0629,0.0,0.0,0.0,0.0,0.0,0.0,0.0,0.0,0.0,0.0,0.0,0.0,-0.0473,-0.1529,-0.3332,-0.4857,-0.5863,-0.8731,-1.0025,-0.9766,-1.0744,-1.1006,-1.0721,-1.0721,-1.0721,-1.0711,-1.0558,-1.0412,-1.0263,-1.0032,-0.9849,-0.97,-0.9554,-0.9449,-0.9334,-0.8964,-0.8726,-0.8564,0.0,0.0,0.0,0.0,0.0,0.0,0.0,0.0,0.0,0.0,0.7596,1.043,1.1714,1.2735,1.3844,0.0,0.0,0.0,0.0,2.1443,2.265,2.3352,2.3166,2.2618,2.1729,2.0298,1.9153,1.8249,1.7224,1.665,1.648,1.65,1.6979,1.7834,1.8508,1.943,2.05,2.1013,2.0985,2.0563,2.0366,1.9184,1.7534,1.7339,1.6393,1.4898,1.236,1.1395,1.1066,0.8948,0.8013,0.7629,0.6888,0.6267,0.5577,0.4297,0.3933,0.0,0.0,0.0,0.0,0.0,0.0,0.0,0.0,1.2786,1.345,1.3565,1.3107,1.2795,1.3101,1.0729,0.8784,0.8947,0.602,0.3602,0.3219,0.1346,0.0,0.0,0.0,0.0,0.0,0.0,0.0,0.0,0.0,0.0,0.0,0.0,0.0,0.0,-0.1886,-0.2902,-0.2909,-0.6368,-0.8213,-0.8303,-0.9877,-1.0635,-1.0721,-1.0721,-1.0721,-1.0711,-1.0527,-1.0351,-1.0168,-0.9893,-0.971,-0.9591,-0.9408,-0.932,-0.9242,-0.8821,-0.8587,-0.8459,0.0,0.0,0.0,0.0,0.0,0.0,0.0,0.0,0.0,0.0,0.0,0.0,0.0,0.0,0.0,0.0,0.0,0.0,2.2496,2.3944,2.482,2.5024,2.448,2.3772,2.2851,2.199,2.1145,2.0283,1.9684,1.8974,1.8206,1.8286,1.8825,1.9757,2.0646,2.1613,2.259,2.3029,2.3365,2.3623,2.2733,2.1789,2.0716,1.8382,1.6266,1.4302,1.1959,1.1364,1.1398,0.9566,0.8669,0.8391,0.8806,0.7473,0.5699,0.5313,0.4456,0.4036,0.5749,0.8094,1.0293,1.139,1.1994,1.2636,0.0,1.5299,1.6094,1.5679,1.5416,1.5005,1.4228,1.2563,1.0921,0.9587,0.7411,0.5338,0.3493,0.1423,0.0,0.0,0.0,0.0,0.0,0.0,0.0,0.0,0.0,0.0,0.0,0.0,0.0,0.0,-0.187,-0.2877,-0.2909,-0.5025,-0.6869,-0.83,-0.8544,-0.9382,-1.0721,-1.0721,-1.0721,-1.0704,-1.0426,-1.0137,-0.9859,-0.97,-0.9625,-0.9581,-0.935,-0.91,-0.8895,-0.8625,-0.8496,-0.8442,0.0,0.0,0.0,0.0,0.0,0.0,0.0,0.0,0.0,0.0,0.0,0.0,0.0,0.0,0.0,0.0,0.0,0.0,2.155,2.3875,2.5646,2.6759,2.6303,2.5779,2.5292,2.3897,2.2523,2.1248,2.1315,2.1228,2.0964,2.1297,2.2195,2.3573,2.43,2.5137,2.6024,2.6509,2.6195,2.5326,2.4315,2.2531,2.0255,1.7804,1.5591,1.3571,1.1799,1.1107,0.0,0.0,0.926,0.9123,0.9649,0.9025,0.8034,0.7938,0.7685,0.7729,0.9068,1.0999,1.2779,1.354,1.4579,1.5661,1.6662,1.7583,1.8313,1.8349,1.8017,1.7345,1.5969,1.4546,1.3129,0.0,0.8528,0.6015,0.5249,0.2197,0.0,0.0,0.0,0.0,0.0,0.0,0.0,0.0,0.0,0.0,0.0,0.0,0.0,0.0,-0.082,-0.1181,-0.1239,-0.3158,-0.4951,-0.6625,-0.7773,-0.9162,-1.0721,-1.0721,-1.0626,-1.0453,-1.0239,-1.0022,-0.9812,-0.9666,-0.9557,-0.9456,-0.9296,-0.9011,-0.8777,-0.8564,-0.8428,-0.833,0.0,0.0,0.0,0.0,0.0,0.0,0.0,0.0,0.0,0.0,0.0,0.0,0.0,0.0,0.0,0.0,0.0,0.0,0.0,2.316,2.5615,2.761,2.7496,2.7514,2.7779,2.6017,2.4637,2.3686,2.3957,2.4141,2.4208,2.4816,2.5959,2.7561,2.7906,2.8502,2.9307,2.968,2.8888,2.7219,2.5943,2.367,2.0663,1.7908,1.5625,1.3692,1.1948,1.1016,0.0,0.0,0.9991,0.9731,1.0161,1.0053,0.9768,0.9655,1.0171,1.0911,1.171,1.3101,1.4376,1.4699,1.5937,1.7117,1.7372,1.7827,1.8517,1.9582,1.9002,1.7994,1.7002,1.5696,1.4294,1.2956,0.9598,0.6975,0.6597,0.3269,0.0608,0.0074,0.0,0.0,0.0,0.0,0.0,0.0,0.0,0.0,0.0,0.0,0.0,0.0,0.0,0.0,0.0,-0.1422,-0.3227,-0.5413,-0.6845,-0.8655,-1.0717,-1.0677,-1.0497,-1.0212,-1.0034,-0.9903,-0.9805,-0.9622,-0.9483,-0.9361,-0.9171,-0.891,-0.8632,-0.8523,-0.8391,-0.8248,0.0,0.0,0.0,0.0,0.0,0.0,0.0,0.0,0.0,0.0,0.0,0.0,0.0,0.0,0.0,0.0,0.0,0.0,0.0,2.22,2.4641,2.7109,2.7565,2.8481,2.9987,2.8474,2.7996,2.8686,2.8321,2.805,2.794,2.867,2.9797,3.1142,3.1011,3.1358,3.1968,3.1997,3.1183,2.9728,2.7864,2.5857,2.3555,1.9562,1.6964,1.5083,1.2521,0.0,0.0,1.1333,1.0893,1.0126,1.0493,1.0327,0.9915,0.9592,1.071,1.2171,1.279,1.4128,1.5289,1.4885,1.5263,1.5561,1.4902,1.4936,1.5841,1.8255,1.7269,1.6201,1.6867,1.5578,1.4006,1.2861,1.0789,0.871,0.6907,0.4557,0.2248,0.022,0.0,0.0,0.0,0.0,0.0,0.0,0.0,0.0,0.0,0.0,0.0,0.0,0.0,0.0,0.0,-0.0069,-0.1854,-0.5411,-0.547,-0.7305,-1.0714,-1.0565,-1.0337,-0.9994,-0.9987,-0.9903,-0.9798,-0.9507,-0.9384,-0.9354,-0.9059,-0.8757,-0.8489,-0.8482,-0.8391,-0.8248,0.0,0.0,0.0,0.0,0.0,0.0,0.0,0.0,0.0,0.0,0.0,0.0,0.0,0.0,0.0,0.0,0.0,0.0,0.0,2.1736,2.4916,2.71,2.9508,3.1268,3.2318,3.1632,3.1083,3.0745,3.0435,3.0313,3.0376,3.0961,3.182,3.2856,3.3291,3.3603,3.3823,3.3826,3.3216,3.1984,2.8814,2.6609,2.4731,2.0107,1.7707,1.6598,0.0,0.0,0.0,1.2577,1.2359,1.1881,1.2182,1.1918,1.1573,1.1872,1.2644,1.3587,1.4385,1.4571,1.4661,1.5076,1.486,1.4524,1.4713,1.4891,1.5278,1.6347,1.6734,1.633,1.4618,1.4817,1.4479,1.2205,1.0381,0.8578,0.6678,0.4478,0.2293,0.0217,0.0,0.0,0.0,0.0,0.0,0.0,0.0,0.0,0.0,0.0,0.0,0.0,0.0,0.0,0.0,0.0,-0.1236,-0.3631,-0.6001,-0.8326,-1.0565,-1.0419,-1.0239,-0.998,-0.9879,-0.9815,-0.9666,-0.9462,-0.932,-0.9258,-0.8903,-0.8662,-0.8472,-0.8377,-0.8248,-0.8109,0.0,0.0,0.0,0.0,0.0,0.0,0.0,0.0,0.0,0.0,0.0,0.0,0.0,0.0,0.0,0.0,0.0,0.0,0.0,0.0,2.2822,2.5403,2.815,3.0422,3.2107,3.1463,3.1478,3.2198,3.155,3.1782,3.2852,3.2642,3.3283,3.4607,3.4658,3.4899,3.5304,3.5283,3.4254,3.2415,2.9622,2.7185,2.4819,2.1007,1.9093,0.0,0.0,0.0,1.4559,1.42,1.3693,1.3181,1.2993,1.2812,1.2746,1.3347,1.3941,1.4589,1.5471,1.5019,1.4336,1.4666,1.3814,1.2942,1.2876,1.2935,1.3246,1.4099,1.4908,1.4873,1.2987,1.369,1.387,1.1498,1.0361,0.9184,0.7435,0.5357,0.323,0.1279,0.0421,0.0,0.0,0.0,0.0,0.0,0.0,0.0,0.0,0.0,0.0,0.0,0.0,0.0,0.0,0.0,-0.0886,-0.2721,-0.6225,-0.8443,-0.9494,-0.9942,-1.0114,-0.9899,-0.9863,-0.9741,-0.9598,-0.9445,-0.935,-0.918,-0.8825,-0.8618,-0.8465,-0.8323,-0.8174,-0.7988,0.0,0.0,0.0,0.0,0.0,0.0,0.0,0.0,0.0,0.0,0.0,0.0,0.0,0.0,0.0,0.0,0.0,0.0,0.0,0.0,0.0,2.2009,2.3731,2.61,2.9277,2.8135,2.9208,3.2703,3.1468,3.2267,3.4941,3.349,3.4007,3.609,3.4954,3.5117,3.6245,3.6149,3.4284,3.127,3.0214,2.7598,2.4146,2.2277,0.0,0.0,0.0,0.0,1.8385,1.6207,1.4936,1.4147,1.3168,1.3096,1.3467,1.4023,1.4599,1.5243,1.6107,1.5388,1.4281,1.366,1.2321,1.0864,0.9676,0.9367,0.9881,1.1519,1.1898,1.1941,1.2069,1.2367,1.213,1.0912,1.0836,1.042,0.8936,0.6883,0.4967,0.0,0.0,0.0,0.0,0.0,0.0,0.0,0.0,0.0,0.0,0.0,0.0,0.0,0.0,0.0,0.0,0.0,-0.0941,-0.2749,-0.601,-0.7483,-0.7495,-0.9162,-0.9773,-0.9687,-0.9748,-0.9724,-0.9574,-0.9429,-0.9333,-0.9159,-0.8811,-0.8604,-0.8455,-0.8313,-0.8167,-0.7988,0.0,0.0,0.0,0.0,0.0,0.0,0.0,0.0,0.0,0.0,0.0,0.0,0.0,0.0,0.0,0.0,0.0,0.0,0.0,0.0,0.0,0.0,0.0,0.0,0.0,0.0,0.0,0.0,2.7446,2.8415,3.0299,3.0369,3.1248,3.2814,3.255,3.313,3.4283,3.3811,3.3096,3.202,0.0,2.7547,2.6335,0.0,0.0,0.0,0.0,0.0,2.0257,1.839,1.7378,1.6732,1.5708,1.5424,1.5445,1.515,1.5324,1.5752,1.6413,1.4945,1.3288,1.3477,1.1604,0.9663,0.9315,0.9268,0.9348,0.9626,1.0272,1.0843,1.084,1.1266,1.1555,1.1405,1.1318,0.0,0.8776,0.6991,0.0,0.3127,0.1205,0.0,0.0,0.0,0.0,0.0,0.0,0.0,0.0,0.0,0.0,0.0,0.0,0.0,0.0,0.0,-0.0936,-0.2709,-0.3553,-0.4598,-0.5808,-0.7481,-0.8044,-0.7845,-0.9118,-0.9513,-0.9323,-0.9282,-0.9055,-0.8804,-0.8615,-0.8452,-0.8306,-0.8153,-0.8022,-0.7988,0.0,0.0,0.0,0.0,0.0,0.0,0.0,0.0,0.0,0.0,0.0,0.0,0.0,0.0,0.0,0.0,0.0,0.0,0.0,0.0,0.0,0.0,0.0,0.0,0.0,0.0,0.0,0.0,0.0,0.0,2.5375,2.6355,2.7343,2.8299,2.8983,2.9706,3.0408,3.0633,0.0,0.0,0.0,0.0,0.0,0.0,0.0,0.0,0.0,2.2989,2.2778,2.2241,2.071,1.8799,1.7691,1.7152,1.6907,1.6375,1.6279,1.6384,1.6285,1.4809,1.3158,1.2735,1.0884,0.9176,0.8988,0.8961,0.8798,0.8534,0.8968,0.9344,0.9344,0.9785,1.0213,1.0509,0.0,0.0,0.9679,0.8031,0.6526,0.5549,0.3706,0.2206,0.1343,0.128,0.0926,0.0,0.0,0.0,0.0,0.0,0.0,0.0,0.0,0.0,0.0,0.0,-0.0531,-0.1513,-0.2272,-0.3069,-0.4021,-0.6317,-0.7256,-0.7197,0.0,-0.9337,-0.9062,-0.9183,-0.8995,-0.8601,-0.8516,-0.8394,-0.8252,-0.8096,-0.7988,-0.7988,0.0,0.0,0.0,0.0,0.0,0.0,0.0,0.0,0.0,0.0,0.0,0.0,0.0,0.0,0.0,0.0,0.0,0.0,0.0,0.0,0.0,0.0,0.0,0.0,0.0,0.0,0.0,0.0,0.0,0.0,0.0,0.0,0.0,0.0,0.0,0.0,0.0,0.0,0.0,0.0,0.0,0.0,0.0,0.0,0.0,0.0,2.5843,2.5221,2.5206,2.5924,2.387,2.0875,1.9791,1.8985,1.8308,1.7777,1.7475,1.7069,1.6012,1.4854,1.3539,1.1914,1.0349,0.9132,0.8777,0.8577,0.837,0.8019,0.7961,0.8014,0.823,0.8495,0.8838,0.9381,0.9645,1.0076,1.0749,0.9189,0.8168,0.8614,0.6954,0.5114,0.3411,0.3198,0.2419,0.0499,0.0356,0.0283,0.0,0.0,0.0,0.0,0.0,0.0,0.0,0.0,0.0,0.0,-0.1469,-0.214,-0.2259,-0.5172,-0.6593,-0.6812,0.0,0.0,-0.8861,-0.9022,-0.8886,-0.8482,-0.8482,-0.8394,-0.8255,-0.814,-0.8035,-0.8019,0.0,0.0,0.0,0.0,0.0,0.0,0.0,0.0,0.0,0.0,0.0,0.0,0.0,0.0,0.0,0.0,0.0,0.0,0.0,0.0,0.0,0.0,0.0,0.0,0.0,0.0,0.0,0.0,0.0,0.0,0.0,0.0,0.0,0.0,0.0,0.0,0.0,0.0,0.0,0.0,0.0,0.0,0.0,0.0,0.0,0.0,2.6734,2.6129,2.5379,2.4685,2.4475,2.4489,2.4078,2.2631,2.0877,2.0023,1.8869,1.7579,1.6384,1.4979,1.3578,1.2082,1.044,0.9132,0.8777,0.8503,0.8221,0.7913,0.7851,0.8227,0.9432,0.9064,0.903,1.052,1.0226,1.0042,1.067,0.9142,0.809,0.8313,0.6649,0.5321,0.4972,0.4972,0.0,0.0,0.0,0.1587,0.0069,0.0,0.0,0.0,0.0,0.0,0.0,0.0,0.0,0.0,-0.0318,-0.0439,-0.0495,-0.2426,-0.3877,-0.5051,-0.6502,0.0,-0.8743,-0.8642,-0.8554,-0.8482,-0.8482,-0.8394,-0.8333,-0.8374,-0.8333,-0.8231,0.0,0.0,0.0,0.0,0.0,0.0,0.0,0.0,0.0,0.0,-0.4461,-0.4196,0.0,0.0,0.0,0.0,0.0,0.0,0.0,0.0,0.0,0.0,0.0,0.0,0.0,0.0,0.233,0.3685,0.0,0.0,0.0,1.1394,1.2963,0.0,0.0,0.0,0.0,0.0,0.0,0.0,0.0,0.0,0.0,0.0,0.0,0.0,0.0,2.5875,2.4897,2.4703,2.4979,2.5207,2.421,2.2863,2.1544,2.0849,1.9507,1.8033,1.6897,1.544,1.3898,1.2416,1.0581,0.9111,0.8679,0.8364,0.8065,0.7763,0.776,0.8049,0.8791,0.8685,0.8789,0.9683,0.9624,0.971,1.0395,0.9758,0.9325,0.9728,0.8996,0.8018,0.6976,0.6907,0.5707,0.2909,0.0,0.1921,0.0069,0.0,0.0,0.0,0.0,0.0,0.0,0.0,0.0,0.0,0.0,0.0,-0.0061,-0.1617,-0.2708,-0.3413,-0.491,0.0,-0.7467,-0.754,-0.788,-0.8381,-0.8455,-0.8394,-0.832,-0.8255,-0.8208,-0.815,0.0,0.0,0.0,0.0,0.0,0.0,0.0,-0.5984,-0.5252,-0.4561,-0.3986,-0.3926,-0.464,-0.4821,0.0,0.0,0.0,0.0,0.0,0.0,0.0,0.0,0.0,0.0,0.0,0.0,0.0,0.087,0.2569,0.0,0.0,0.0,0.0,0.0,1.0561,0.0,0.0,0.0,0.0,0.0,0.0,0.0,0.0,0.0,0.0,0.0,0.0,2.5016,2.384,2.4265,2.4352,2.4045,2.2579,2.1972,2.1667,2.1156,1.9893,1.8335,1.7185,1.604,1.4658,1.2689,1.093,0.9485,0.8731,0.8252,0.7877,0.7692,0.7709,0.7821,0.7958,0.8231,0.8448,0.8632,0.8859,0.933,1.0029,1.0161,1.0388,1.0951,1.1046,0.0,0.8991,0.8785,0.0,0.4093,0.0,0.0,0.0068,0.0,0.0,0.0,0.0,0.0,0.0,0.0,0.0,0.0,0.0,0.0,-0.006,-0.118,-0.1915,-0.2289,-0.3478,0.0,0.0,-0.6037,-0.681,-0.7862,-0.7969,-0.8157,-0.8258,-0.8167,-0.8066,-0.8039,0.0,0.0,0.0,0.0,0.0,0.0,0.0,-0.5984,-0.5294,-0.4759,-0.4141,-0.3843,-0.4046,-0.4577,0.0,0.0,0.0,0.0,0.0,0.0,0.0,0.0,0.0,0.0,0.0,0.0,0.0,0.0096,0.1059,0.0,0.0,0.0,0.0,0.0,0.0,0.8887,0.9543,0.0,0.0,0.0,0.0,0.0,0.0,0.0,0.0,0.0,0.0,2.3731,2.208,2.189,2.1272,2.054,2.0112,2.0947,2.1958,2.1566,2.0221,1.8545,1.6954,1.6669,1.6015,1.2988,1.1736,1.0838,0.9082,0.8245,0.7824,0.7797,0.7699,0.7706,0.7938,0.8012,0.8174,0.8459,0.8526,0.8808,0.9564,0.9781,1.0036,1.05,0.0,0.0,1.0492,1.0492,0.9676,0.7646,0.0,0.0,0.0067,0.0,0.0,0.0,0.0,0.0,0.0,0.0,0.0,0.0,0.0,0.0,0.0,-0.0117,-0.092,-0.2174,-0.2218,0.0,0.0,-0.4287,-0.513,-0.65,-0.6511,-0.7238,-0.8337,-0.8397,-0.836,-0.8248,0.0,0.0,0.0,0.0,0.0,0.0,0.0,-0.652,-0.5089,-0.4016,-0.3837,-0.3635,-0.3259,-0.4476,-0.5052,0.0,0.0,0.0,0.0,0.0,0.0,0.0,0.0,0.0,0.0,0.0,-0.0337,0.0,0.0855,0.0,0.0,0.0,0.0,0.0,0.0,0.6176,0.6955,0.0,0.0,0.0,0.0,0.0,0.0,0.0,0.0,0.0,0.0,0.0,1.9137,1.9238,1.9059,1.8784,1.8371,1.8685,1.9285,1.993,1.9188,1.8066,1.7962,1.7475,1.6668,1.5424,1.3816,1.2341,1.1514,1.0183,0.9081,0.9024,0.8363,0.785,0.7968,0.7988,0.8029,0.8197,0.8218,0.8414,0.8988,0.9117,0.9418,1.0141,1.028,1.0358,0.0,0.0,0.9978,0.0,0.0,0.0,0.1725,0.0598,0.0,0.0,0.0,0.0,0.0,0.0,0.0,0.0,0.0,0.0,0.0,0.0,-0.0341,-0.0892,-0.0825,0.0,0.0,-0.2898,-0.3779,-0.5133,-0.5958,-0.6603,-0.7172,-0.7919,-0.818,-0.8133,0.0,0.0,0.0,0.0,0.0,0.0,-0.8816,-0.6869,-0.506,-0.3856,-0.3773,-0.3647,-0.319,-0.4627,-0.5074,-0.3776,0.0,0.0,0.0,0.0,0.0,0.0,0.0,0.0,0.0,0.0,0.0,0.0,0.0615,0.1093,0.0,0.0,0.247,0.2415,0.0,0.0,0.0,0.0,0.0,0.0,0.0,0.0,0.0,0.0,0.0,0.0,0.0,0.0,0.0,0.0,0.0,1.6914,1.6589,1.6385,1.6556,1.7992,1.7988,1.7595,1.823,1.793,1.7329,1.6854,1.5294,1.3715,1.3067,1.1659,1.0374,0.9961,0.9137,0.8424,0.8077,0.7988,0.7988,0.7988,0.7988,0.813,0.8584,0.8682,0.8977,0.97,0.0,1.0029,0.0,1.0643,1.0164,0.0,0.0,0.0,0.4242,0.1952,0.052,0.0,0.0,0.0,0.0,0.0,0.0,0.0,0.0,0.0,0.0,0.0,0.0,0.0,0.0,0.0,0.0,-0.1485,-0.232,-0.3626,-0.464,-0.5528,-0.6286,-0.7115,-0.7637,-0.7988,0.0,0.0,0.0,0.0,0.0,0.0,0.0,-0.6869,-0.5301,-0.4747,-0.4157,-0.3909,-0.4173,-0.5038,-0.4868,-0.3076,0.0,0.0,0.0,0.0,0.0,0.0,0.0,0.0,0.0,0.0,0.0,0.0,0.0,0.0546,0.1592,0.1628,0.1631,0.1644,0.0,0.0,0.0,0.0,0.0,0.0,0.0,0.0,0.0,0.0,0.0,0.0,0.0,0.0,0.0,0.0,0.0,0.0,0.0,1.4372,1.4464,1.6126,1.6892,1.7206,1.7219,1.7816,1.8095,1.6496,1.5628,1.4734,1.3146,1.2199,1.1339,1.0249,0.9894,0.9441,0.8206,0.7988,0.7988,0.7988,0.7988,0.0,0.8442,0.8615,0.8825,0.0,0.9354,0.9564,0.995,1.046,0.0,0.0,0.0,0.0,0.7579,0.4312,0.1702,0.0063,0.0,0.0,0.0,0.0,0.0,0.0,0.0,0.0,0.0,0.0,0.0,0.0,0.0,0.0,0.0,0.0,-0.083,-0.2014,-0.2028,-0.367,-0.5982,-0.6029,-0.6883,-0.7988,0.0,0.0,0.0,0.0,0.0,0.0,0.0,-0.8354,-0.6618,-0.5532,-0.541,-0.5117,-0.4281,-0.4596,-0.4317,-0.3019,0.0,0.0,0.0,0.0,0.0,0.0,0.0,0.0,0.0,0.0,0.0,0.0,-0.0917,-0.1194,-0.0896,-0.1686,-0.208,-0.2008,-0.0162,0.0784,0.0,0.0,0.0,0.0,0.0,0.0,0.0,0.0,0.0,0.0,0.0,0.0,0.0,0.0,0.0,0.0,0.0,0.0,0.0,1.4965,1.5524,1.6333,1.674,1.7348,1.7755,1.7259,1.6658,1.6068,1.5599,1.4298,1.3104,1.2748,1.1884,1.1133,1.0716,0.9948,0.9361,0.9361,0.8577,0.8022,0.0,0.0,0.0,0.9163,0.9737,1.0195,0.0,0.0,0.0,0.0,0.0,0.0,0.0,0.6483,0.4578,0.18,0.0615,0.0,0.0,0.0,0.0,0.0,0.0,0.0,0.0,0.0,0.0,0.0,0.0,0.0,0.0,0.0,-0.0257,-0.0724,-0.1623,-0.3066,-0.472,-0.5677,-0.6833,-0.7988,0.0,0.0,0.0,0.0,0.0,0.0,0.0,-0.9025,-0.7324,-0.635,-0.5975,-0.5372,-0.4316,-0.4384,-0.3947,-0.252,0.0,0.0,0.0,0.0,0.0,0.0,0.0,0.0,0.0,0.0,-0.0259,-0.0763,-0.1604,-0.2276,-0.2799,-0.4024,-0.4361,-0.3848,-0.2848,-0.1653,0.0,0.0,0.0,0.0,0.0,0.0,1.1638,0.0,0.0,0.0,0.0,0.0,0.0,0.0,0.0,0.0,0.0,0.0,0.0,0.0,1.5611,1.5952,1.6142,1.672,1.7248,1.7248,1.6894,1.6547,1.6547,1.557,1.4459,1.4022,1.3247,1.2479,1.1994,1.0877,1.0145,1.0632,0.9604,0.892,0.941,0.0,0.0,0.9081,0.0,0.0,0.0,0.0,0.0,0.0,0.0,0.0,0.0,0.7577,0.6255,0.4251,0.1972,0.0533,0.0,0.0,0.0,0.0,0.0,0.0,0.0,0.0,0.0,0.0,0.0,0.0,0.0,0.0,0.0,-0.0104,-0.0914,-0.2363,-0.4116,-0.492,-0.6429,-0.7988,0.0,0.0,0.0,0.0,0.0,0.0,0.0,0.0,0.0,0.0,-0.5864,-0.4849,-0.4189,-0.4233,-0.3566,0.0,0.0,0.0,0.0,0.0,0.0,0.0,0.0,0.0,0.0,-0.0218,-0.0902,-0.2162,-0.2238,-0.2956,-0.4336,-0.5636,-0.5666,-0.4568,-0.5434,0.0,0.0,0.0,0.0,0.0,0.0,0.0,0.0,0.0,0.0,0.0,0.0,0.0,0.0,0.0,0.0,0.0,0.0,0.0,0.0,0.0,0.0,0.0,0.0,1.602,1.662,1.6633,1.644,1.6239,1.6239,1.6025,0.0,1.4244,1.4004,1.3632,1.2361,1.1107,1.0681,1.1848,1.0974,1.0534,1.1609,1.0991,0.0,0.0,0.9538,0.0,0.9713,0.0,0.0,0.0,0.0,0.0,0.0,0.7895,0.702,0.6897,0.4051,0.1741,0.0172,0.0169,0.0111,0.0,0.0,0.0,0.0,0.0,0.0,0.0,0.0,0.0,0.0,0.0,0.0,0.0,0.0,-0.1561,-0.3865,-0.3865,-0.5572,-0.7839,0.0,0.0,0.0,0.0,0.0,0.0,0.0,0.0,0.0,0.0,0.0,-0.451,-0.3344,-0.2672,0.0,0.0,0.0,0.0,0.0,0.0,0.0,0.0,0.0,0.0,0.0,-0.2519,-0.3209,-0.3545,-0.4562,-0.5733,-0.7101,-0.8338,-0.9263,-0.9818,-0.7916,0.0,0.0,0.0,0.0,0.0,0.0,0.0,0.0,0.0,0.0,0.0,1.1402,1.2092,0.0,0.0,0.0,0.0,0.0,0.0,0.0,0.0,1.7293,1.8297,1.6726,0.0,1.5758,1.5979,1.5985,1.5932,0.0,1.5879,1.567,1.5158,1.5188,1.5177,1.4678,1.3701,1.3102,1.3392,1.2334,1.1219,1.0534,1.0815,0.0,1.2323,1.2027,1.1547,0.0,0.0,0.0,0.0,0.0,0.9401,0.0,0.886,0.8004,0.6613,0.5861,0.426,0.1713,0.1706,0.1137,0.0,0.0,0.0,0.0,0.0,0.0,0.0,0.0,0.0,0.0,0.0,0.0,0.0,0.0,-0.1008,-0.2464,-0.2464,-0.4169,-0.6481,0.0,0.0,0.0,0.0,0.0,0.0,0.0,0.0,0.0,0.0,0.0,0.0,0.0,0.0,0.0,0.0,0.0,0.0,0.0,0.0,0.0,0.0,0.0,0.0,-0.2903,-0.3633,-0.4305,-0.4935,-0.6244,-0.7628,-0.8939,-1.0791,-1.171,-1.1647,-0.8288,0.0,0.0,0.0,0.0,0.0,0.4148,0.0,0.0,0.0,0.0,0.0,1.0093,1.0774,0.0,1.2481,1.3009,1.3489,0.0,0.0,0.0,0.0,1.8158,1.9029,1.8145,1.7023,1.6091,1.5846,1.5784,1.5792,1.5658,1.5631,1.5545,1.5257,1.5324,1.5424,1.5398,1.4465,1.3927,1.4638,1.3686,1.2602,0.0,0.0,1.2842,1.3374,1.249,1.1724,0.0,0.0,0.0,0.0,0.0,0.0,0.0,0.89,0.8442,0.7425,0.7419,0.5699,0.2157,0.2087,0.1373,0.0,0.0,0.0,0.0,0.0,0.0,0.0,0.0,0.0,0.0,0.0,0.0,0.0,0.0,-0.0801,-0.2013,-0.2013,-0.3317,-0.5172,0.0,0.0,0.0,0.0,0.0,0.0,0.0,0.0,0.0,0.0,0.0,0.0,0.0,0.0,0.0,0.0,0.0,0.0,0.0,0.0,0.0,0.0,0.0,-0.2932,-0.4276,-0.453,-0.525,-0.6614,-0.774,-0.9083,-1.0632,-1.2856,-1.316,-1.1679,-0.7753,-0.5104,0.0,0.0,0.1621,0.0,0.2945,0.0,0.0,0.0,0.0,0.0,0.0,0.0,0.0,1.1466,1.2023,1.262,1.4559,0.0,0.0,0.0,0.0,0.0,1.9407,1.8561,1.7319,1.6241,1.5886,1.5718,1.5518,1.5431,1.5311,1.5068,1.5042,1.5135,1.5291,1.4492,1.4196,1.5596,0.0,0.0,1.4648,1.46,1.4376,1.3917,1.2673,0.0,0.0,0.0,0.0,0.0,0.0,0.0,0.0,0.8469,0.8462,0.8418,0.8438,0.6589,0.2635,0.2446,0.1654,0.031,0.0305,0.0202,0.0,0.0202,0.0202,0.0,0.0,0.0,0.0,0.0,0.0,0.0,0.0,-0.069,-0.1697,-0.1697,-0.2542,-0.3934,0.0,0.0,0.0,0.0,0.0,0.0,0.0,0.0,0.0,0.0,0.0,0.0,0.0,0.0,0.0,0.0,0.0,0.0,0.0,0.0,0.0,0.0,-0.3713,-0.4311,-0.5663,-0.6828,-0.804,-0.9363,-0.9583,-1.0912,-1.3295,-1.3728,-1.307,-1.142,-0.7662,-0.5117,-0.3411,-0.0802,0.0289,0.039,0.1604,0.0,0.0,0.0,0.0,0.0,0.0,0.0,0.0,0.9362,1.0697,1.237,1.2705,0.0,0.0,0.0,0.0,0.0,1.9659,2.0013,1.9614,1.7357,1.6318,1.5771,1.5772,1.5571,1.5311,1.5068,1.5157,1.5271,1.5115,1.5239,1.5535,1.5771,0.0,1.4837,0.0,0.0,1.5704,1.6496,0.0,0.0,0.0,0.0,0.0,0.0,0.0,0.0,0.0,0.8418,0.8367,0.8066,0.8235,0.7361,0.5422,0.4362,0.3127,0.1669,0.1714,0.1109,0.0051,0.1159,0.1058,0.0,0.0,0.0,0.0,0.0,0.0,0.0,0.0,-0.0144,-0.0288,-0.0288,-0.1153,-0.2638,0.0,0.0,0.0,0.0,0.0,0.0,0.0,0.0,0.0,0.0,0.0,0.0,0.0,0.0,0.0,0.0,0.0,0.0,0.0,0.0,0.0,-0.497,-0.5083,-0.5704,-0.7042,-0.8517,-0.9506,-0.9998,-1.157,-1.2834,-1.3926,-1.3926,-1.2347,-0.9406,-0.7048,-0.4734,-0.2534,-0.0768,0.0,0.005,0.0,0.0,0.0,0.0,0.0,0.0,0.0,0.0,0.0,0.0,0.935,1.1396,1.2002,0.0,0.0,0.0,0.0,0.0,1.906,1.9574,1.9782,1.8857,1.8358,1.8014,1.7666,1.6969,1.628,1.6011,1.5545,1.517,1.5197,1.5418,1.5698,1.6019,0.0,1.5926,1.6817,1.6374,1.6215,0.0,0.0,0.0,0.0,0.0,0.0,0.0,0.0,0.0,0.0,0.0,0.818,0.7992,0.8109,0.7805,0.7086,0.5826,0.4457,0.3065,0.3065,0.2764,0.2163,0.2063,0.1653,0.1042,0.0,0.0,0.0,0.0,0.0,0.0,0.0,0.0,0.0,0.0,-0.0857,-0.2138,0.0,0.0,0.0,0.0,0.0,0.0,0.0,0.0,0.0,0.0,0.0,0.0,0.0,0.0,0.0,0.0,0.0,0.0,0.0,0.0,-0.3869,-0.5929,-0.6282,-0.6948,-0.8042,-0.9601,-1.0451,-1.0502,-1.3073,-1.4174,-1.3872,-1.359,-1.1411,-0.7735,-0.6195,-0.4157,-0.1716,-0.0489,0.0,0.0,0.0,0.0,0.0,0.0,0.0,0.0,0.0,0.0,0.0,0.0,0.0,0.0,0.0,0.0,0.0,1.5219,1.6593,1.8062,1.8491,1.9219,1.9912,2.0204,1.9991,1.9617,1.9364,1.8449,1.7626,1.7608,1.6795,1.6073,1.5998,1.573,0.0,1.6186,1.646,1.6627,1.6693,1.6513,1.646,0.0,0.0,0.0,0.0,0.0,0.0,0.0,0.0,0.0,0.0,0.0,0.7921,0.7887,0.7955,0.7971,0.7938,0.6936,0.575,0.4468,0.4468,0.4316,0.3966,0.3267,0.2737,0.2346,0.1024,0.0434,0.0378,0.0139,0.0,0.0,0.0,0.0,0.0,0.0,-0.0658,-0.1546,0.0,0.0,0.0,0.0,0.0,0.0,0.0,0.0,0.0,0.0,0.0,0.0,0.0,0.0,0.0,0.0,0.0,0.0,0.0,0.0,-0.5779,-0.5979,-0.7185,-0.8006,-0.8252,-0.9665,-1.0965,-1.2044,-1.3551,-1.4174,-1.3878,-1.2619,-1.0536,-0.7702,-0.525,-0.3292,-0.1718,-0.0496,0.0,0.0,0.0,0.0,0.0,0.0,0.0,0.0,0.0,0.0,0.0,0.0,0.0,0.0,0.0,0.0,1.2608,1.4986,1.6015,1.6763,1.8508,1.9968,2.1079,2.1099,1.9722,1.8647,1.9774,1.9484,1.9186,1.9908,1.9683,1.902,1.7918,1.6633,1.5905,1.6219,1.6342,1.64,1.6667,0.0,0.0,0.0,0.0,0.0,0.0,0.0,0.0,0.0,0.0,0.0,0.0,0.0,0.0,0.7634,0.7847,0.7921,0.7828,0.7727,0.7058,0.5879,0.5879,0.5222,0.4016,0.5175,0.4973,0.3614,0.2402,0.1792,0.1571,0.0454,0.0,0.0,0.0,0.0,0.0,0.0,-0.0045,-0.0316,0.0,0.0,0.0,0.0,0.0,0.0,0.0,0.0,0.0,0.0,0.0,0.0,0.0,0.0,0.0,0.0,0.0,0.0,0.0,0.0,-0.6381,-0.7185,-0.7739,-0.8453,-0.9462,-1.1092,-1.241,-1.3513,-1.4692,-1.4364,-1.2673,-1.2139,-1.0021,-0.6631,-0.5674,-0.4011,-0.1891,-0.1445,-0.0753,0.0,0.0,0.0,0.0,0.0,0.0,0.0,0.0,0.0,0.0,0.0,0.4804,0.7103,0.7888,0.9759,1.1821,1.267,1.3941,1.5364,1.6661,1.8458,2.0089,2.0692,2.068,2.0741,2.173,2.141,2.101,2.1292,2.0857,1.9772,1.7835,0.0,1.6079,1.6012,1.6299,1.658,1.6693,0.0,0.0,0.0,0.0,0.0,0.0,0.0,0.0,0.0,0.0,0.0,0.0,0.0,0.0,0.7647,0.7706,0.774,0.7682,0.7678,0.7467,0.6988,0.6988,0.6785,0.6358,0.5945,0.547,0.4806,0.2762,0.1847,0.1721,0.0495,0.0,0.0,0.0,0.0,0.0,0.0,0.0,-0.0045,0.0,0.0,0.0,0.0,0.0,0.0,0.0,0.0,0.0,0.0,0.0,0.0,0.0,0.0,0.0,0.0,0.0,0.0,0.0,-0.6381,-0.7033,-0.7939,-0.7988,-0.8896,-1.086,-1.2071,-1.3182,-1.426,-1.5281,-1.4423,-1.1844,-1.1866,-0.9778,-0.5963,-0.5978,-0.451,-0.1991,-0.1992,-0.1251,0.0,0.0,0.0,0.0,0.0,0.0,0.0,0.0,0.0,0.0,0.0,0.3285,0.5469,0.0,0.8224,1.0225,1.1083,1.2614,1.4268,1.5421,1.7296,1.9169,2.012,2.1025,2.1973,2.3086,2.2929,2.2657,2.2908,2.2022,2.061,1.8814,0.0,0.0,0.0,1.6739,1.6862,0.0,0.0,0.0,0.0,0.0,0.0,0.0,0.0,0.0,0.0,0.0,0.0,0.0,0.0,0.0,0.0,0.7684,0.7506,0.7455,0.7455,0.7455,0.7455,0.7411,0.7512,0.7692,0.6679,0.6171,0.5977,0.3833,0.2708,0.2215,0.1021,0.0311,0.0,0.0,0.0,0.0,0.0,0.0,0.0,0.0,0.0,0.0,0.0,0.0,0.0,0.0,0.0,0.0,0.0,0.0,0.0,0.0,0.0,0.0,0.0,0.0,0.0,-0.5919,-0.7282,-0.7988,-0.7988,-0.7985,-0.939,-1.2324,-1.2429,-1.2977,-1.4118,-1.5233,-1.4372,-1.1706,-1.1839,-0.9725,-0.5812,-0.5976,-0.4528,-0.2004,-0.203,-0.1232,0.0,0.0,0.0,0.0,0.0,0.0,0.0,0.0,0.0,0.0,0.0,0.1775,0.2395,0.0,0.0,0.0,1.0705,1.2336,1.3423,1.5136,1.6899,1.8545,1.9639,2.0547,2.1648,2.3389,2.3779,2.4033,2.493,2.3429,2.1843,2.1365,1.9942,0.0,1.781,1.7731,0.0,0.0,0.0,0.0,0.0,0.0,0.0,0.0,0.0,0.0,0.0,0.0,0.0,0.0,0.0,0.0,0.0,0.7956,0.7337,0.7092,0.7092,0.7092,0.7092,0.695,0.7163,0.7594,0.7594,0.7428,0.7051,0.5891,0.4632,0.3333,0.2121,0.0955,0.0,0.0,0.0,0.0,0.0,0.0,0.0,0.0,0.0,0.0,0.0,0.0,0.0,0.0,0.0,0.0,0.0,0.0,0.0,0.0,0.0,0.0,0.0,0.0,0.0,0.0,-0.7631,-0.7879,-0.7879,-0.8743,-1.0126,-1.1992,-1.3856,-1.5074,-1.5673,-1.5576,-1.4194,-1.1706,-1.1625,-0.9971,-0.7092,-0.7227,-0.5779,-0.328,-0.3268,-0.1986,0.0,0.0,0.0,0.0,0.0,0.0,0.0,0.0,0.0,0.0,0.0,0.0,0.0,0.2878,0.0,0.5802,0.7269,0.8808,1.0651,1.3329,1.5327,1.7195,1.9372,2.1035,2.2266,2.2773,2.3359,2.3945,2.4502,2.2933,2.141,2.1091,2.0074,0.0,1.8318,1.8329,0.0,0.0,0.0,0.0,0.0,0.0,0.0,0.0,0.0,0.0,0.0,0.0,0.0,0.0,0.0,0.0,0.0,0.88,0.8299,0.6831,0.7537,0.7537,0.6831,0.679,0.6946,0.7227,0.7129,0.7034,0.6897,0.559,0.481,0.4316,0.2369,0.0975,0.0,0.0,0.0,0.0,0.0,0.0,0.0,0.0,0.0,0.0,0.0,0.0,0.0,0.0,0.0,0.0,0.0,0.0,0.0,0.0,0.0,0.0,0.0,0.0,0.0,0.0,0.0,-0.8115,-0.8575,-0.9405,-1.0748,-1.2668,-1.4711,-1.5919,-1.6092,-1.5625,-1.4106,-1.1615,-1.1556,-1.0081,-0.7607,-0.7746,-0.6345,-0.3896,-0.3831,-0.2324,0.0,0.0,0.0,0.0,0.0,0.0,0.0,0.0,0.0,0.0,0.0,0.0,0.0,0.0864,0.1867,0.3371,0.5454,0.7179,0.905,1.2263,1.4731,1.6994,1.9215,2.114,2.2559,2.2682,2.3291,2.3867,2.4111,2.3057,2.1954,2.1596,2.0927,0.0,1.917,0.0,0.0,0.0,0.0,0.0,0.0,0.0,0.0,0.0,0.0,0.0,0.0,0.0,0.0,0.0,0.0,0.0,0.0,0.9498,0.8936,0.7813,0.7946,0.7757,0.7123,0.6724,0.6647,0.6875,0.6851,0.6803,0.6659,0.5361,0.4835,0.4673,0.2504,0.1211,0.0581,0.0166,0.0,0.0,0.0,0.0,0.0,0.0,0.0,0.0,0.0,0.0,0.0,0.0,0.0,0.0,0.0,0.0,0.0,0.0,0.0,0.0,0.0,0.0,0.0,0.0,0.0,-0.8539,-0.9771,-1.0139,-1.1502,-1.4022,-1.5194,-1.5764,-1.5744,-1.5498,-1.4093,-1.1645,-1.1522,-1.0139,-0.7704,-0.777,-0.6425,-0.4082,-0.3878,-0.2354,-0.0135,-0.0047,0.0,0.0,0.0,0.0,0.0,0.0,0.0,0.0,0.0,0.0,0.0,-0.0585,-0.0234,0.0622,0.4474,0.6457,0.811,1.1427,1.4462,1.7103,1.9052,2.1089,2.2676,2.3062,2.3477,2.373,2.373,2.3443,2.3022,2.2588,2.2139,2.1457,0.0,0.0,0.0,0.0,0.0,0.0,0.0,0.0,0.0,0.0,0.0,0.0,0.0,0.0,0.0,0.0,0.0,0.0,1.1321,1.0007,0.9354,0.9402,0.846,0.7918,0.0,0.6839,0.6422,0.6477,0.6603,0.6597,0.6414,0.5325,0.4793,0.4551,0.2639,0.1768,0.1493,0.0526,0.008,0.0,0.0,0.0,0.0,0.0,0.0,0.0,0.0,0.0,0.0,0.0,0.0,0.0,0.0,0.0,0.0,0.0,0.0,0.0,0.0,0.0,0.0,0.0,0.0,-0.8419,-0.9762,-1.1915,-1.3782,-1.5343,-1.5683,-1.5718,-1.5491,-1.5197,-1.4327,-1.2802,-1.1692,-1.0273,-0.8585,-0.7941,-0.6621,-0.4823,-0.3969,-0.2727,-0.1182,-0.036,0.0,0.0,0.0,0.0,0.0,0.0,0.0,0.0,0.0,0.0,0.0,-0.2497,-0.1875,-0.0931,0.0706,0.2893,0.5512,0.8816,1.1368,1.4101,1.8232,2.1131,2.3071,2.3555,2.3457,2.3237,2.3237,2.2949,2.2627,2.2529,2.1885,2.1179,0.0,0.0,0.0,0.0,0.0,0.0,0.0,0.0,0.0,0.0,0.0,0.0,0.0,0.0,0.0,0.0,0.0,0.0,1.0271,1.0673,1.0172,0.8646,0.9173,0.8694,0.0,0.7155,0.6757,0.6135,0.64,0.648,0.6344,0.6071,0.5416,0.452,0.4162,0.2974,0.1346,0.1294,0.0749,0.0,0.0,0.0,0.0,0.0,0.0,0.0,0.0,0.0,0.0,0.0,0.0,0.0,0.0,0.0,0.0,0.0,0.0,0.0,0.0,0.0,0.0,0.0,0.0,0.0,0.0,-1.3371,-1.5099,-1.5778,-1.5691,-1.5545,-1.5398,-1.4963,-1.4154,-1.2972,-1.2198,-1.0811,-0.8977,-0.8464,-0.7104,-0.5185,-0.398,-0.2755,-0.1516,-0.0432,0.0,0.0,0.0,0.0,0.0,0.0,0.0,0.0,0.0,0.0,0.0,0.0,0.0,-0.2674,-0.1187,0.0901,0.3362,0.6289,0.9026,1.2308,1.7491,2.0259,2.1907,2.2726,2.2705,2.2539,2.2539,2.2519,2.2451,2.2246,2.1504,0.0,0.0,0.0,0.0,0.0,0.0,0.0,0.0,0.0,0.0,0.0,0.0,0.0,0.0,0.0,0.0,0.0,1.1289,1.1039,1.0648,1.1012,1.0761,0.984,0.9828,0.9347,0.8443,0.7535,0.6701,0.5928,0.6156,0.622,0.6146,0.6074,0.5693,0.5069,0.4654,0.3807,0.2792,0.2373,0.1617,0.0809,0.1232,0.0797,0.0074,0.0,0.0,0.0,0.0,0.0,0.0,0.0,0.0,0.0,0.0,0.0,0.0,0.0,0.0,0.0,0.0,0.0,0.0,0.0,0.0,0.0,0.0,-1.4393,-1.5758,-1.5711,-1.5518,-1.5344,-1.5244,-1.471,-1.3978,-1.3073,-1.2771,-1.1567,-0.9723,-0.9177,-0.7791,-0.5834,-0.4342,-0.3095,-0.2021,-0.0787,-0.0292,-0.025,-0.0084,0.0,0.0,0.0,-0.0814,-0.2004,-0.2811,0.0,0.0,0.0,0.0,-0.4143,-0.2334,-0.0535,0.1384,0.3831,0.7241,1.1218,1.6051,1.8402,1.9862,2.1139,2.1445,2.1487,2.166,2.1934,2.207,2.1728,0.0,0.0,0.0,0.0,0.0,0.0,0.0,0.0,0.0,0.0,0.0,0.0,0.0,0.0,0.0,0.0,0.0,1.131,1.1049,1.1029,1.1269,1.1042,1.1035,1.1276,1.0332,0.9825,0.9782,0.781,0.6518,0.5803,0.5908,0.5929,0.5946,0.5857,0.5786,0.5694,0.4817,0.4468,0.4311,0.3477,0.2586,0.1875,0.2586,0.1845,0.0542,0.0,0.0,0.0,0.0,0.0,0.0,0.0,0.0,0.0,0.0,0.0,0.0,0.0,0.0,0.0,0.0,0.0,0.0,0.0,0.0,0.0,0.0,-1.4343,-1.5712,-1.5464,-1.5418,-1.515,-1.4636,-1.4309,-1.4183,-1.4248,-1.3129,-1.2501,-1.2219,-1.0063,-0.8661,-0.7855,-0.5767,-0.4654,-0.4132,-0.218,-0.137,-0.1269,-0.0365,0.0,0.0,0.0,-0.1242,-0.2901,-0.305,-0.4421,0.0,0.0,0.0,-0.4424,-0.3935,-0.2439,-0.0504,0.1586,0.6175,1.0785,1.2726,1.4984,1.7229,1.9141,1.9568,1.9806,0.0,2.083,2.085,2.0791,0.0,0.0,0.0,0.0,0.0,0.0,0.0,0.0,0.0,0.0,0.0,0.0,0.0,0.0,0.0,0.0,0.0,1.0739,1.0673,1.0667,1.0707,1.0673,1.0667,1.0707,1.0571,1.0117,0.9374,0.7712,0.6518,0.5796,0.5694,0.5715,0.583,0.581,0.5732,0.5627,0.5606,0.4983,0.4061,0.4051,0.3429,0.2555,0.2701,0.2548,0.2245,0.0,0.0,0.0,0.0,0.0,0.0,0.0,0.0,0.0,0.0,0.0,0.0,0.0,0.0,0.0,0.0,0.0,0.0,0.0,0.0,0.0,-1.2398,-1.4431,-1.5451,-1.5164,-1.5202,-1.4863,-1.4282,-1.3981,-1.4033,-1.4472,-1.3775,-1.3293,-1.2933,-1.0947,-0.9531,-0.85,-0.6046,-0.4876,-0.4574,-0.3043,-0.2093,-0.153,-0.1071,-0.091,-0.0903,-0.0913,-0.225,-0.3988,-0.3992,-0.496,-0.6118,-0.6013,0.0,0.0,0.0,-0.3963,-0.228,0.0206,0.3652,0.7093,0.9499,1.1486,1.3528,1.6178,1.6804,1.7025,1.7861,1.8193,1.8748,0.0,0.0,0.0,0.0,0.0,0.0,0.0,0.0,0.0,0.0,0.0,0.0,0.0,0.0,0.0,0.0,0.0,1.1934,1.0688,1.0593,1.0593,1.0593,1.0432,1.0314,1.0314,1.0314,0.9982,0.9274,0.8096,0.7091,0.6291,0.5721,0.5576,0.5677,0.5593,0.5552,0.5494,0.5437,0.5216,0.4885,0.487,0.4311,0.3622,0.4119,0.3597,0.2601,0.0,0.0,0.0,0.0,0.0,0.0,0.0,0.0,0.0,0.0,0.0,0.0,0.0,0.0,0.0,0.0,0.0,0.0,0.0,0.0,0.0,-1.2919,-1.4539,-1.5224,-1.4863,-1.485,-1.4563,-1.3975,-1.364,-1.3826,-1.4516,-1.4302,-1.4056,-1.3802,-1.2137,-1.0659,-0.9192,-0.6877,-0.5641,-0.5125,-0.3962,-0.2891,-0.1996,-0.1996,-0.1841,-0.1646,-0.188,-0.3166,-0.4688,-0.4688,-0.5266,-0.5986,-0.5946,-0.5796,0.0,0.0,0.0,-0.3527,-0.1437,0.0872,0.3285,0.5974,0.772,0.9573,1.2686,1.3409,1.3724,0.0,1.5361,1.6219,0.0,0.0,0.0,0.0,0.0,0.0,0.0,0.0,0.0,0.0,0.0,0.0,0.0,0.0,0.0,0.0,0.0,1.2358,1.0878,1.0672,1.0526,1.0372,1.0194,1.008,1.0007,1.008,0.979,0.9168,0.8586,0.7767,0.6687,0.6042,0.5633,0.5471,0.5429,0.5371,0.5327,0.5147,0.5214,0.541,0.5327,0.4916,0.4465,0.5178,0.4451,0.3177,0.0,0.0,0.0,0.0,0.0,0.0,0.0,0.0,0.0,0.0,0.0,0.0,0.0,-0.6953,-0.6959,-0.6997,0.0,0.0,0.0,0.0,0.0,-1.2789,-1.4482,0.0,-1.4556,-1.4543,-1.4213,-1.3626,-1.3333,-1.3674,-1.4522,-1.4502,-1.4912,-1.5569,-1.3866,-1.2126,-1.0446,-0.9201,-0.7883,-0.6486,-0.517,-0.3984,-0.3007,-0.3007,-0.2425,-0.1723,-0.2696,-0.3748,-0.4688,-0.4688,-0.5266,-0.5969,-0.5861,-0.5708,-0.5562,0.0,0.0,0.0,-0.382,-0.174,0.0626,0.1766,0.3466,0.5659,0.8563,0.0,0.9871,1.1587,1.2706,0.0,0.0,0.0,0.0,0.0,0.0,0.0,0.0,0.0,0.0,0.0,0.0,0.0,0.0,0.0,0.0,0.0,0.0,1.249,1.1316,1.0822,1.0338,0.9775,0.998,0.998,0.9706,0.998,0.9682,0.8819,0.9113,0.8355,0.6687,0.6654,0.6084,0.513,0.5334,0.5277,0.511,0.5103,0.5029,0.4921,0.4914,0.4884,0.486,0.4924,0.4884,0.4653,0.0,0.0,0.0,0.0,0.0,0.0,0.0,0.0,0.0,0.0,0.0,0.0,0.0,-0.7577,-0.7095,-0.7095,-0.7797,0.0,0.0,0.0,0.0,-1.3581,-1.4619,-1.4843,-1.4255,-1.4609,-1.4335,-1.3327,-1.326,-1.3373,-1.3681,-1.3826,-1.4186,-1.4665,-1.3458,-1.218,-1.0752,-0.9041,-0.7584,-0.641,-0.5905,-0.4686,-0.3163,-0.3865,-0.3476,-0.2696,-0.3748,-0.4805,-0.5709,-0.5709,-0.5848,0.0,0.0,-0.5705,-0.5559,-0.544,-0.516,-0.4755,-0.4151,-0.3265,-0.1972,0.0207,0.1275,0.2553,0.5463,0.618,0.6537,0.7618,0.8557,0.0,0.0,0.0,0.0,0.0,0.0,0.0,0.0,0.0,0.0,0.0,0.0,0.0,0.0,0.0,0.0,0.0,0.0,0.0,1.1684,1.1267,1.0707,0.9967,0.967,0.9477,0.9371,0.9477,0.9558,0.9645,0.9179,0.8487,0.7497,0.6825,0.6002,0.5096,0.5091,0.5047,0.4958,0.4891,0.4877,0.4877,0.4809,0.4833,0.4887,0.4887,0.4857,0.4713,0.0,0.0,0.0,0.0,0.0,0.0,0.0,0.0,0.0,0.0,0.0,0.0,0.0,0.0,-0.7413,-0.7863,-0.8569,-1.0039,-1.2616,-1.2475,-1.2851,-1.4039,-1.4556,-1.4589,-1.4095,-1.4369,-1.4088,-1.3213,-1.3106,-1.3106,-1.322,-1.3467,-1.376,-1.4088,-1.3294,-1.2163,-1.0785,-0.9327,-0.7836,-0.64,-0.5944,-0.4711,-0.3243,-0.4384,-0.4157,-0.34,-0.484,-0.5814,-0.6364,-0.6317,0.0,0.0,0.0,-0.5671,-0.5528,-0.5426,-0.5395,-0.5259,-0.4652,-0.4251,-0.356,-0.1673,-0.0745,0.0303,0.2547,0.3326,0.379,0.4548,0.5383,0.0,0.0,0.0,0.0,0.0,0.0,0.0,0.0,0.0,0.0,0.0,0.0,0.0,0.0,0.0,0.0,0.0,0.0,0.0,1.2133,1.1571,1.0827,0.9826,0.9324,0.9071,0.9071,0.9164,0.9411,0.9797,0.9334,0.8638,0.7729,0.7026,0.6072,0.4948,0.4884,0.4843,0.4833,0.4731,0.4721,0.4755,0.4653,0.4677,0.4765,0.4765,0.4701,0.4641,0.0,0.0,0.0,0.0,0.0,0.0,0.0,0.0,0.0,-1.2418,0.0,0.0,0.0,0.0,0.0,-0.9511,-0.9353,-1.027,-1.2683,-1.2518,-1.2893,-1.4039,0.0,0.0,0.0,-1.376,-1.3467,-1.3213,-1.2938,-1.2938,-1.3186,-1.344,-1.3768,-1.4021,-1.3454,-1.222,-1.0598,-1.0285,-0.8846,-0.6623,-0.5297,-0.4121,-0.3283,-0.4639,-0.4428,-0.372,-0.5892,-0.6593,0.0,-0.6347,0.0,0.0,0.0,-0.5599,-0.5395,-0.5395,-0.5395,-0.5395,0.0,0.0,0.0,-0.401,-0.2673,-0.1094,-0.0225,0.0,0.1748,0.2432,0.3374,0.0,0.0,0.0,0.0,0.0,0.0,0.0,0.0,0.0,0.0,0.0,0.0,0.0,0.0,0.0,0.0,0.0,0.0,1.3776,1.2689,1.1782,1.0661,0.9259,0.8938,0.8818,0.8804,0.9071,0.9211,0.9217,0.9546,0.8874,0.7289,0.7284,0.6348,0.4691,0.4684,0.4684,0.4684,0.4684,0.4624,0.4491,0.4491,0.4491,0.4491,0.4491,0.4491,0.4491,0.0,0.0,0.0,0.0,0.0,0.0,0.0,0.0,-1.5703,0.0,0.0,0.0,-1.1767,-1.0726,-1.0739,-1.2371,-1.2068,-1.2526,-1.4276,-1.3918,-1.3737,-1.4088,-1.4362,-1.4382,0.0,0.0,0.0,0.0,0.0,0.0,0.0,0.0,0.0,-1.3146,-1.2985,-1.2206,-1.0964,-0.999,-0.8827,-0.756,-0.6437,-0.5348,0.0,0.0,0.0,0.0,0.0,-0.6395,-0.6354,0.0,-0.6242,-0.6132,0.0,-0.5599,-0.5395,-0.5395,-0.5395,-0.5395,-0.5395,0.0,0.0,0.0,0.0,0.0,0.0,0.0,0.0352,0.0032,0.0,0.0,0.0,0.0,0.0,0.0,0.0,0.0,0.0,0.0,0.0,0.0,0.0,0.0,0.0,0.0,0.0,0.0,1.5196,1.467,1.3815,1.2204,1.0661,0.9259,0.9131,0.8991,0.8811,0.9071,0.9211,0.9217,0.9546,0.8874,0.7284,0.7191,0.6256,0.4684,0.46,0.4552,0.4552,0.4552,0.4528,0.4491,0.4491,0.4491,0.4491,0.4491,0.4491,0.4491,0.0,0.0,0.0,0.0,0.0,0.0,0.0,0.0,-1.5922,0.0,0.0,0.0,-1.2389,-1.1769,-1.201,-1.3626,-1.3225,-1.3493,-1.4905,-1.4459,-1.4088,-1.4088,-1.4249,-1.4262,-1.4088,0.0,0.0,0.0,0.0,0.0,0.0,0.0,0.0,0.0,-1.3002,-1.262,-1.1557,-0.996,-0.876,0.0,-0.633,0.0,0.0,-0.5641,-0.5451,0.0,0.0,0.0,-0.6467,-0.634,-0.6255,0.0,0.0,0.0,-0.5477,0.0,-0.5395,-0.5395,-0.5395,-0.5395,-0.5239,-0.4623,0.0,0.0,-0.1986,-0.1091,-0.0587,0.0,0.0,0.0,0.0,0.0,0.0,0.0,0.0,0.0,0.0,0.0,0.0,0.0,0.0,0.0,0.0,0.0,0.0,1.5468,1.541,1.4857,1.3596,1.212,1.0661,0.9259,0.9211,0.9071,0.8811,0.8951,0.9031,0.9038,0.9232,0.8683,0.7444,0.7058,0.622,0.5007,0.4664,0.4491,0.4491,0.4491,0.4491,0.4491,0.4491,0.4491,0.4491,0.4491,0.4491,0.4491,0.0,0.0,0.0,0.0,0.0,0.0,0.0,0.0,0.0,0.0,-1.4152,-1.3124,-1.2235,-1.2141,-1.2647,-1.3998,-1.3594,-1.3709,-1.4918,-1.4382,-1.4041,-1.4041,-1.4041,-1.4021,-1.3995,0.0,0.0,0.0,0.0,0.0,0.0,0.0,0.0,0.0,0.0,0.0,-1.215,-1.0158,0.0,-0.7778,-0.5709,-0.4886,0.0,0.0,-0.5162,-0.5198,-0.6277,-0.6651,-0.661,-0.6388,-0.6146,0.0,0.0,0.0,0.0,0.0,-0.5409,-0.5395,-0.5395,-0.5395,-0.5392,0.0,0.0,0.0,-0.297,-0.1938,-0.1129,0.0,0.0,0.0,0.0,0.0,0.0,0.0,0.0,0.0,0.0,0.0,0.0,0.0,0.0,0.0,0.0,1.6862,1.6197,1.5468,1.541,1.4597,1.2731,1.1903,1.0806,0.9305,0.9257,0.9104,0.8811,0.8838,0.8838,0.8804,0.8838,0.8453,0.767,0.6939,0.6199,0.546,0.4787,0.4491,0.4491,0.4491,0.4491,0.4491,0.4491,0.4491,0.4491,0.4491,0.4491,0.4491,-2.2591,0.0,0.0,0.0,0.0,0.0,0.0,0.0,-1.7035,-1.5799,-1.5266,-1.4994,-1.499,-1.4818,-1.4892,-1.5412,-1.4917,-1.4732,-1.4963,-1.4188,-1.3686,-1.3686,-1.3686,-1.358,-1.3387,-1.3513,0.0,0.0,0.0,0.0,0.0,0.0,0.0,0.0,0.0,0.0,0.0,0.0,0.0,-0.8856,-0.692,-0.6165,-0.6151,-0.6217,-0.6161,-0.6067,-0.6306,-0.6385,-0.6378,-0.632,-0.6112,-0.585,0.0,0.0,0.0,-0.5552,0.0,0.0,0.0,0.0,0.0,0.0,0.0,0.0,-0.3494,-0.2305,-0.1403,0.0,-0.0915,0.0,0.0,0.0,0.0,0.0,0.0,0.0,0.0,0.0,0.0,0.0,0.0,0.0,0.0,1.6402,1.6197,1.5468,1.541,1.468,1.3,1.275,1.1742,0.967,0.9599,0.9345,0.8811,0.9011,0.9011,0.8811,0.9018,0.8618,0.767,0.6939,0.6199,0.546,0.4787,0.4491,0.4491,0.4491,0.4491,0.4491,0.4491,0.4491,0.4491,0.4491,0.4491,0.4491,-2.2781,0.0,0.0,0.0,0.0,0.0,0.0,0.0,0.0,-1.5967,-1.5705,-1.5665,-1.5764,-1.5698,-1.5671,-1.5764,-1.5431,-1.5117,-1.5022,-1.4275,-1.376,-1.3613,-1.3467,-1.3387,-1.3387,-1.3387,-1.328,0.0,0.0,0.0,0.0,0.0,0.0,0.0,0.0,0.0,0.0,0.0,-0.8998,-0.8437,-0.6993,0.0,-0.6405,-0.6405,-0.6361,-0.63,-0.63,-0.6248,-0.6146,-0.6146,-0.6044,0.0,-0.5742,-0.5644,-0.56,0.0,-0.5453,-0.5395,0.0,0.0,0.0,-0.5267,0.0,0.0,0.0,-0.303,-0.2297,-0.2334,-0.1669,-0.1094,-0.1112,0.0,0.0,0.0,0.0,0.0,0.0,0.0,0.0,0.0,0.0,0.0,0.0,1.5762,1.5979,1.5449,1.541,1.4688,1.31,1.3009,1.204,0.9973,0.976,0.9472,0.8998,0.8998,0.8924,0.8804,0.8931,0.873,0.8209,0.7101,0.661,0.6519,0.5113,0.4677,0.4976,0.4625,0.4491,0.4491,0.4491,0.4491,0.4491,0.4491,0.4491,0.4491,-2.2808,0.0,0.0,0.0,0.0,0.0,0.0,0.0,0.0,-1.6015,-1.5879,-1.5912,-1.5912,-1.5912,-1.5959,-1.6072,-1.5611,-1.5257,-1.5182,-1.4369,-1.3814,-1.3533,-1.328,-1.32,-1.334,-1.3234,-1.3153,0.0,0.0,0.0,0.0,0.0,0.0,0.0,0.0,0.0,-1.0347,0.0,0.0,-0.7706,0.0,-0.6317,-0.6337,-0.631,-0.6317,-0.6334,-0.6276,-0.6135,-0.5993,-0.5993,-0.5973,-0.5892,-0.5596,-0.5613,0.0,0.0,0.0,0.0,0.0,0.0,0.0,0.0,0.0,-0.4757,0.0,0.0,0.0,0.0,0.0,0.0,0.0,0.0,0.0,0.0,0.0,0.0,0.0,0.0,0.0,0.0,0.0,0.0,0.0,1.4891,1.559,1.5292,1.5371,1.4688,1.31,1.3009,1.2118,1.0151,0.9833,0.9566,0.9297,0.8951,0.8838,0.8865,0.8831,0.8804,0.8752,0.7429,0.7128,0.7589,0.5578,0.5003,0.546,0.4787,0.4491,0.4491,0.4491,0.4491,0.4491,0.4491,0.4491,0.4491,-2.2422,-2.2838,0.0,0.0,0.0,0.0,0.0,0.0,0.0,-1.6103,-1.6059,-1.6219,-1.6219,-1.6219,-1.6482,-1.7005,-1.5832,0.0,-1.5698,0.0,-1.3293,-1.326,-1.3005,-1.273,-1.2458,-1.2953,-1.2946,0.0,0.0,0.0,0.0,0.0,0.0,0.0,-1.4329,0.0,0.0,0.0,-0.8435,0.0,-0.6718,-0.6375,0.0,-0.6347,-0.6378,-0.6453,-0.6149,-0.6006,-0.5993,0.0,-0.5902,-0.584,0.0,-0.5796,-0.5606,-0.5576,0.0,0.0,0.0,0.0,0.0,0.0,-0.51,0.0,0.0,0.0,-0.2337,-0.1443,0.0,0.0,0.0,0.0,0.0,0.0,0.0,0.0,0.0,0.0,0.0,0.0,0.0,0.0,0.0,0.0,1.4907,1.4882,1.5205,1.4688,1.31,1.3009,1.2118,1.0151,0.9833,0.9666,0.9633,0.9085,0.8911,0.9164,0.8904,0.8804,0.8778,0.7937,0.7616,0.7616,0.6059,0.5433,0.546,0.4787,0.4491,0.4491,0.4491,0.4491,0.4491,0.4491,0.4491,0.4491,-2.2344,-2.2656,-2.2808,0.0,0.0,0.0,0.0,0.0,0.0,-1.592,-1.6086,-1.6321,-1.6321,-1.6321,-1.644,-1.6854,-1.6221,-1.5685,0.0,0.0,-1.3814,-1.344,0.0,-1.2811,-1.2826,-1.2732,-1.2639,-1.2596,-1.3096,0.0,0.0,0.0,0.0,0.0,-1.4214,0.0,-0.9112,0.0,-0.801,0.0,0.0,0.0,0.0,-0.6354,-0.6337,-0.6361,-0.6105,-0.5936,-0.5884,0.0,-0.5786,0.0,0.0,0.0,0.0,0.0,0.0,0.0,0.0,0.0,0.0,0.0,0.0,0.0,-0.3893,0.0,-0.2678,0.0,0.0,0.0,0.0,0.0,0.0,0.0,0.0,0.0,0.0,0.0,0.0,0.0,0.0,0.0,0.0,0.0,0.0,0.0,0.0,1.4585,1.2741,1.2863,1.2212,1.0436,1.0087,0.9853,0.9715,0.9272,0.9004,0.8958,0.8864,0.8804,0.8778,0.8049,0.7943,0.8262,0.6767,0.6145,0.6091,0.5382,0.4838,0.4491,0.4491,0.4491,0.4491,0.4491,0.4491,0.4491,-2.221,-2.2344,-2.2441,0.0,0.0,0.0,0.0,0.0,0.0,0.0,0.0,0.0,-1.638,-1.6466,0.0,-1.7041,-1.6587,-1.6126,0.0,0.0,-1.4208,0.0,0.0,0.0,0.0,-1.2652,-1.2635,-1.3034,0.0,0.0,0.0,0.0,0.0,0.0,0.0,-1.184,-0.8552,0.0,-0.7726,-0.6308,-0.6249,-0.6257,-0.6349,-0.6368,-0.6306,-0.6176,-0.6023,-0.5871,-0.5728,-0.5627,-0.5657,0.0,-0.5525,0.0,0.0,0.0,0.0,0.0,-0.532,0.0,0.0,0.0,0.0,0.0,0.0,0.0,0.0,0.0,0.0,0.0,0.0,0.0,0.0,0.0,0.0,0.0,0.0,0.0,0.0,0.0,0.0,0.0,0.0,0.0,0.0,1.274,1.3847,1.3778,1.218,1.2384,1.1936,1.0649,1.0274,1.0013,0.98,0.9397,0.9104,0.8898,0.8844,0.8804,0.8778,0.8235,0.8295,0.8725,0.7456,0.6777,0.6534,0.5814,0.5218,0.4787,0.4787,0.4761,0.4701,0.4556,0.4491,0.4491,-2.1933,-2.1904,-2.1904,0.0,0.0,0.0,0.0,0.0,0.0,0.0,0.0,0.0,0.0,0.0,0.0,0.0,0.0,-1.6386,-1.6647,0.0,-1.4095,0.0,0.0,-1.306,0.0,0.0,0.0,0.0,0.0,0.0,0.0,0.0,0.0,0.0,-1.3418,-1.1699,-0.9404,-0.8581,-0.7757,-0.6996,-0.6305,-0.6003,-0.6037,0.0,-0.6285,-0.5979,-0.5864,0.0,0.0,-0.5593,-0.5593,0.0,0.0,0.0,0.0,0.0,0.0,0.0,0.0,0.0,0.0,-0.4928,0.0,0.0,0.0,0.0,-0.0947,0.0,0.0,0.0,0.0,0.0,0.0,0.0,0.0,0.0,0.0,0.0,0.0,0.0,0.0,0.0,0.0,0.0,0.0,1.1886,1.2103,1.1959,1.1375,1.1338,1.1118,1.0611,1.0274,1.0114,1.01,0.9497,0.9211,0.9191,0.8911,0.8804,0.8804,0.8778,0.8785,0.8752,0.7996,0.7262,0.6534,0.5814,0.5483,0.546,0.546,0.5383,0.5205,0.4678,0.4491,0.4491,-2.2417,-2.1869,-2.1631,-2.2207,0.0,0.0,0.0,-1.8154,0.0,0.0,-1.6667,0.0,0.0,-1.7502,-1.7602,0.0,0.0,-1.652,-1.6426,-1.5498,0.0,0.0,0.0,-1.3941,0.0,0.0,0.0,0.0,0.0,0.0,0.0,0.0,0.0,0.0,0.0,-1.1637,0.0,0.0,0.0,0.0,0.0,-0.5902,-0.6003,0.0,0.0,-0.5861,-0.5711,-0.563,0.0,-0.5504,-0.5474,-0.5453,-0.5318,-0.525,-0.5179,-0.5002,-0.4924,0.0,0.0,0.0,-0.4092,-0.4044,0.0,0.0,0.0,0.0,0.0,0.0,0.0,0.0,0.0,0.0,0.0,0.0,0.0,0.0,0.0,0.0,0.0,0.0,0.0,0.0,0.0,0.0,0.0,0.978,1.1221,1.1752,0.0,1.1159,1.1073,1.0611,1.0492,1.0251,0.9833,0.9633,0.9339,0.8924,0.8851,0.8804,0.8804,0.8804,0.8804,0.8778,0.8533,0.8023,0.7316,0.7069,0.6659,0.6231,0.6231,0.6098,0.5819,0.5238,0.4714,0.4348,-2.324,-2.2039,-2.1221,0.0,0.0,0.0,0.0,0.0,0.0,0.0,-1.7493,0.0,-1.8355,0.0,-1.7662,0.0,-1.7255,-1.674,-1.6446,-1.5778,0.0,-1.5169,-1.4736,0.0,0.0,0.0,0.0,0.0,0.0,-1.5399,0.0,0.0,0.0,0.0,0.0,-1.1524,-0.9702,-0.858,-0.7807,0.0,0.0,-0.5786,0.0,0.0,-0.5844,-0.5783,0.0,-0.5518,-0.5413,-0.5315,-0.5247,-0.5186,-0.5056,-0.4985,-0.4955,-0.4863,-0.4588,-0.4349,-0.4428,-0.3841,0.0,-0.3216,-0.2549,0.0,-0.1209,0.0,0.0,0.0,0.0,0.0,0.0,0.0,0.0,0.0,0.0,0.0,0.0,0.0,0.0,0.0,0.0,0.0,0.0,0.0,0.8317,0.8502,0.976,1.0431,0.0,0.0,1.0645,1.0425,1.0432,1.0204,0.9715,0.9579,0.9285,0.8804,0.8804,0.8804,0.8804,0.8804,0.8804,0.8804,0.8804,0.8374,0.7691,0.7597,0.735,0.6977,0.6754,0.6616,0.6439,0.5833,0.5255,0.4821,-2.416,-2.228,0.0,0.0,-2.0401,0.0,0.0,0.0,-1.8758,0.0,-1.8577,-1.7951,-1.9216,-1.8351,-1.7687,-1.7687,-1.7443,-1.7089,-1.67,-1.5933,0.0,0.0,-1.487,-1.4252,-1.368,0.0,0.0,0.0,0.0,0.0,0.0,0.0,0.0,0.0,-1.2321,0.0,-1.0491,-0.8737,-0.7962,-0.7754,-0.6192,-0.5583,-0.5589,-0.5583,-0.5661,-0.5762,-0.5616,-0.5379,-0.5096,-0.509,-0.4992,-0.4877,-0.4877,-0.4802,-0.468,-0.4648,-0.4002,-0.334,-0.3477,-0.2982,-0.2428,-0.2432,0.0,0.0,0.0,0.0,0.0,0.0,0.0,0.0,0.0,0.0,0.0,0.0,0.0,0.0,0.0,0.0,0.0,0.0,0.0,0.0,0.0,0.5898,0.6421,0.7947,0.7849,0.8151,0.0,0.0,0.9833,1.0077,1.0083,0.9973,0.9715,0.9357,0.9071,0.8804,0.8804,0.8804,0.8804,0.8804,0.8804,0.8804,0.8791,0.8388,0.7726,0.7461,0.7502,0.7679,0.7081,0.6954,0.7056,0.6409,0.6002,0.578,-2.3295,-2.2281,-2.168,0.0,-2.1958,-2.1537,0.0,0.0,0.0,0.0,-2.0915,-2.1159,-2.1622,-2.0128,-1.9065,-1.9065,-1.8346,0.0,0.0,0.0,0.0,-1.5765,-1.5364,-1.4997,-1.4636,-1.3981,-1.3501,-1.3322,0.0,0.0,-1.3992,0.0,0.0,0.0,0.0,0.0,-1.0491,-0.8737,-0.7246,-0.6017,-0.5603,-0.5521,0.0,0.0,-0.5477,-0.5487,-0.5301,-0.5164,-0.5083,-0.4978,-0.4874,-0.4748,-0.4748,-0.4646,-0.4434,-0.384,-0.3535,-0.3267,-0.2705,-0.2007,-0.1451,-0.1459,-0.0894,-0.0313,0.0,0.0,0.0,0.0,0.0,0.0,0.0,0.0,0.0,0.0,0.0,0.0,0.0,0.0,0.0,0.1018,0.0,0.0,0.0,0.5144,0.5912,0.6174,0.7351,0.0,0.0,0.0,0.0,1.0114,1.0083,0.9973,0.9715,0.9357,0.9071,0.8804,0.8804,0.8804,0.8804,0.8804,0.8804,0.8798,0.8577,0.8501,0.8468,0.7952,0.7939,0.8184,0.7772,0.7519,0.7263,0.6094,0.5632,0.5634,-2.3467,-2.2847,0.0,-2.25,0.0,0.0,-2.2387,-2.2354,0.0,-2.2734,-2.212,0.0,-2.241,-2.0984,-1.9942,-1.9942,-1.881,0.0,-1.7126,0.0,0.0,-1.5645,-1.5357,-1.495,-1.4396,-1.3774,0.0,-1.2812,0.0,0.0,-1.3043,0.0,0.0,0.0,0.0,-1.1014,-1.0491,-0.8737,-0.699,-0.5388,-0.5287,0.0,0.0,-0.5226,-0.5169,-0.5148,-0.4992,-0.4938,-0.4925,-0.4847,-0.4718,-0.4564,-0.4245,-0.4048,-0.3818,-0.3037,-0.2619,-0.2287,-0.1842,-0.1174,-0.0618,-0.063,-0.0312,0.0,0.0,0.0,0.0,0.0,0.0,0.0,0.0,0.0,0.0,0.0,0.0,0.0,0.0,0.0,0.0,0.0,0.1825,0.0,0.0,0.4537,0.5302,0.5492,0.0,0.0,0.0,0.0,0.0,0.971,0.995,0.9913,0.9492,0.9452,0.9218,0.8804,0.8804,0.8804,0.8804,0.8804,0.8804,0.8798,0.8637,0.8657,0.8764,0.8145,0.8103,0.8355,0.7896,0.7542,0.7181,0.6428,0.6163,0.6207,-2.3835,0.0,0.0,0.0,0.0,0.0,0.0,-2.3448,0.0,-2.48,0.0,-2.1758,-2.2555,-2.1445,-2.0551,-2.036,0.0,-1.813,-1.7995,-1.6664,-1.5825,-1.5574,-1.5107,-1.4489,-1.3673,-1.326,-1.2832,0.0,0.0,0.0,0.0,0.0,0.0,0.0,0.0,0.0,0.0,-0.8629,-0.6959,-0.5327,-0.5176,-0.509,-0.5059,-0.4935,-0.4877,-0.487,-0.4738,-0.4691,-0.4687,-0.4667,-0.46,-0.4377,-0.3624,-0.3345,-0.3148,-0.2313,-0.1591,-0.109,-0.0978,-0.0476,0.0,0.0,0.0,0.0,0.0,0.0,0.0,0.0,0.0,0.0,0.0,0.0,0.0,0.0,0.0,0.0,0.0,0.0,0.0,0.0,0.0,0.0,0.0,0.0,0.0,0.0,0.0,0.0,0.0,0.0,0.0,0.9196,0.971,0.0,0.9277,0.0,0.9332,0.8864,0.8824,0.8804,0.8804,0.8804,0.8804,0.8804,0.8764,0.8751,0.8704,0.8092,0.7996,0.8167,0.7638,0.7248,0.7,0.7,0.7,0.7,-2.2898,0.0,0.0,0.0,0.0,-2.4053,-2.4881,-2.5025,-2.4977,-2.4573,-2.4718,-2.466,-2.4121,-2.2649,-2.1319,-2.0257,-1.9384,0.0,0.0,0.0,0.0,-1.6418,-1.503,-1.4168,-1.4015,-1.2993,-1.2405,0.0,0.0,0.0,0.0,0.0,0.0,0.0,0.0,0.0,-0.8188,-0.8073,0.0,-0.5003,-0.5063,-0.5029,-0.4921,-0.4897,-0.484,-0.4728,-0.4701,-0.4691,-0.467,-0.4573,-0.4511,-0.4377,-0.3624,-0.3345,-0.3037,-0.1675,-0.1202,-0.0978,-0.0364,-0.0112,0.0,0.0,0.0,0.0,0.0,0.0,0.0,0.0,0.0,0.0,0.0,0.0,0.0,0.0,0.0,0.0,0.0,0.0,0.0,0.0,0.0,0.3211,0.0,0.0,0.0,0.0,0.0,0.0,0.0,0.0,0.0,0.0,0.0,0.0,0.0,0.0,0.9031,0.9131,0.8898,0.8804,0.8804,0.8804,0.8804,0.8791,0.8557,0.8476,0.8429,0.7819,0.7435,0.7226,0.7141,0.7046,0.7,0.7,0.7,0.7,-2.2546,0.0,0.0,0.0,0.0,0.0,0.0,-2.4775,0.0,-2.4785,-2.4541,-2.3934,-2.2892,-2.1986,-2.0935,-1.9699,-1.8531,-1.7539,-1.6704,-1.5995,-1.5432,-1.5071,-1.4288,-1.3641,-1.3173,-1.2452,-1.2004,-1.1815,0.0,0.0,-1.0794,0.0,0.0,0.0,0.0,-0.8709,0.0,0.0,0.0,-0.4887,-0.4908,-0.486,-0.4792,-0.4711,-0.4665,-0.46,-0.46,-0.46,-0.459,-0.4515,-0.4236,-0.379,-0.301,-0.2482,-0.1952,-0.0838,-0.0532,-0.0448,-0.0084,0.0,0.0,0.0,0.0,0.0,0.0,0.0,0.0,0.0,0.0,0.0255,0.1139,0.1577,0.0,0.0,0.0,0.0,0.0,0.0,0.0,0.0,0.0,0.0,0.0,0.0,0.0,0.0,0.0,0.0,0.0,0.0,0.0,0.0,0.0,0.0,0.0,0.0,0.0,0.8984,0.8851,0.8804,0.8804,0.8804,0.8804,0.8791,0.8529,0.8402,0.8355,0.7739,0.7295,0.7,0.7,0.7,0.7,0.7,0.7,0.7,0.0,-2.2867,0.0,0.0,-2.3496,0.0,-2.3789,-2.4072,-2.4404,-2.4803,-2.3906,-2.2842,-2.169,-2.1167,-2.0376,-1.9073,-1.7522,-1.6483,-1.6177,-1.4965,-1.4112,-1.3885,-1.3501,-1.2987,-1.2318,-1.1873,-1.1476,0.0,0.0,0.0,0.0,0.0,0.0,0.0,0.0,0.0,0.0,0.0,-0.5678,-0.4813,-0.4724,-0.467,-0.4658,-0.4535,-0.4491,-0.4491,-0.4491,-0.4377,-0.4236,-0.4236,-0.3873,-0.3231,-0.2259,-0.1563,-0.095,-0.0224,0.0,0.0,0.0,0.0,0.0,0.0,0.0,0.0,0.0,0.0112,0.0196,0.0028,0.0112,0.0735,0.2419,0.2708,0.0,0.0,0.0,0.0,0.0,0.0,0.0,0.0,0.0,0.0,0.3947,0.0,0.0,0.0,0.0,0.0,0.0,0.0,0.0,0.0,0.0,0.9399,0.8998,0.0,0.9299,0.0,0.8838,0.8804,0.8804,0.8804,0.8804,0.8791,0.8564,0.8422,0.8261,0.7645,0.7235,0.7,0.7,0.7,0.7,0.7,0.7,0.7,0.0,0.0,0.0,0.0,0.0,0.0,-2.3789,-2.3828,-2.3867,-2.3906,-2.3809,-2.3383,-2.2475,-2.1497,-2.0217,-1.8627,-1.6949,-1.5937,-1.5782,-1.4217,-1.3724,-1.466,-1.323,-1.2392,-1.2305,-1.127,-1.07,0.0,0.0,-1.002,0.0,0.0,0.0,0.0,0.0,0.0,0.0,-0.6486,-0.556,-0.4545,-0.4668,-0.4638,-0.4508,-0.4494,-0.4491,-0.4491,-0.4491,-0.4042,-0.34,-0.34,-0.34,-0.3148,-0.1675,-0.1146,-0.095,-0.0224,0.0,0.0,0.0,0.0,0.0,0.0,0.0,0.0,0.0,0.0504,0.0811,0.014,0.0532,0.1495,0.3174,0.3411,0.3609,0.0,0.0,0.0,0.0,0.0,0.4489,0.4311,0.0,0.0,0.0,0.4518,0.0,0.0,0.0,0.0,0.0,0.0,0.0,0.8243,0.0,0.9357,0.9599,0.9132,0.0,0.9171,0.8904,0.8804,0.8804,0.8804,0.8804,0.8804,0.8778,0.8464,0.7899,0.7293,0.7026,0.7,0.7,0.7,0.7,0.7,0.7,0.7,0.0,0.0,0.0,0.0,0.0,0.0,0.0,-2.2803,-2.2646,-2.2646,-2.2861,-2.2255,-2.0264,-1.9353,-1.8046,-1.5995,-1.486,-1.4177,-1.398,-1.3326,-1.2995,-1.3065,-1.2419,-1.1832,-1.1303,-1.0834,-1.0419,0.0,0.0,0.0,0.0,0.0,0.0,0.0,0.0,-0.7382,-0.7028,-0.5734,-0.4907,-0.4494,-0.4556,-0.4545,-0.4491,-0.4491,-0.4491,-0.4491,-0.4491,-0.4015,-0.3289,-0.2815,-0.2371,-0.1925,-0.1284,-0.0783,-0.0392,-0.0084,0.0,0.0,0.0,0.0,0.0,0.0,0.0336,0.0671,0.0671,0.1229,0.1675,0.1368,0.1898,0.2631,0.3349,0.386,0.4412,0.0,0.0,0.0,0.0,0.0,0.0,0.5117,0.0,0.4528,0.0,0.0,0.0,0.0,0.0,0.0,0.0,0.0,0.0,0.93,0.0,0.9205,0.9708,0.9098,0.8864,0.8951,0.8864,0.8804,0.8804,0.8804,0.8611,0.8258,0.8258,0.7912,0.7346,0.71,0.7,0.7,0.7,0.7,0.7,0.7,0.7,0.7,-2.2672,0.0,-2.2773,0.0,-2.2519,-2.2324,-2.2324,-2.207,-2.1797,-2.1533,-2.1758,-2.1093,-1.8886,-1.7681,-1.6277,-1.4482,-1.356,-1.2979,-1.2797,-1.2623,-1.2342,-1.1926,-1.1658,0.0,-1.0606,-1.0332,-0.9967,-0.9552,-0.973,0.0,0.0,0.0,0.0,0.0,-0.7389,-0.6706,-0.6524,-0.5116,-0.4491,-0.4491,-0.4491,-0.4491,-0.4491,-0.4491,-0.4491,-0.446,-0.4236,-0.3677,-0.2926,-0.2148,-0.1396,-0.0783,-0.0783,-0.042,0.0,0.0,0.0,0.0,0.0,0.0,0.0056,0.028,0.0727,0.1146,0.1369,0.2009,0.2621,0.2843,0.3093,0.3398,0.3677,0.4235,0.4837,0.5399,0.0,0.0,0.0,0.0,0.0,0.0,0.5214,0.496,0.502,0.5719,0.0,0.0,0.0,0.0,0.0,0.0,0.0,0.0,0.0,0.0,0.0,0.9098,0.8804,0.8804,0.8804,0.8804,0.8804,0.8804,0.8607,0.8266,0.8017,0.7704,0.7361,0.7096,0.7112,0.7259,0.7259,0.7356,0.7495,0.7495,0.7495,0.7495,-2.1894,-2.1904,-2.1904,-2.1904,-2.1894,-2.1894,-2.1894,-2.1894,-2.1572,-2.0732,-2.0625,-2.0264,-1.9292,-1.7245,-1.5597,-1.4862,-1.3561,-1.279,-1.2784,-1.2241,-1.1913,0.0,0.0,-1.06,-1.0593,-0.9699,-0.9224,-0.9217,0.0,0.0,-0.8824,0.0,-0.885,-0.8167,-0.7429,-0.6505,-0.546,-0.4787,-0.4491,-0.4491,-0.4491,-0.4491,-0.4491,-0.4491,-0.4491,-0.4405,-0.3594,-0.2843,-0.2093,-0.1369,-0.0615,0.0,0.0,0.0,0.0,0.0,0.0,0.0,0.0,0.0,0.0168,0.0895,0.109,0.1284,0.2009,0.2815,0.3594,0.4322,0.3846,0.3539,0.4349,0.4491,0.4708,0.5378,0.0,0.0,0.0,0.0,0.0,0.5776,0.5907,0.5931,0.5801,0.0,0.0,0.0,0.0,0.0,0.0,0.0,0.0,0.8616,0.8991,0.0,0.9708,0.9098,0.8804,0.8804,0.8804,0.8804,0.8804,0.8804,0.8947,0.9141,0.8266,0.8057,0.8217,0.7355,0.7363,0.7891,0.7891,0.8214,0.8675,0.8675,0.8675,0.8675,-2.1768,-2.1885,-2.1885,-2.1885,-2.1641,-2.1405,-2.1405,-2.0928,-2.0439,-2.0156,-1.8643,-1.7345,-1.6683,-1.6138,-1.5079,0.0,-1.2532,-1.21,0.0,-1.167,-1.139,-1.1028,-1.074,-1.0311,-0.9673,-0.9357,-0.9118,-0.8918,0.0,0.0,0.0,-0.7958,-0.7538,-0.7078,-0.6326,-0.5817,-0.546,-0.4787,-0.4491,-0.4491,-0.4491,-0.4491,-0.4491,-0.4491,-0.4184,-0.3707,-0.3456,-0.2538,-0.1424,-0.1174,-0.0615,0.0,0.0,0.0,0.0,0.0,0.0,0.0,0.0,0.0364,0.0811,0.1034,0.187,0.2676,0.2954,0.3594,0.4211,0.446,0.4294,0.4184,0.446,0.4869,0.541,0.6118,0.6659,0.0,0.0,0.0,0.0,0.0,0.6239,0.5852,0.0,0.705,0.0,0.0,0.0,0.0,0.0,0.0,0.0,0.0,0.9455,0.0,0.9973,0.9198,0.8804,0.8804,0.8804,0.9035,0.9484,0.9961,1.0106,0.9995,0.9715,0.9517,0.9341,0.879,0.867,0.8832,0.8548,0.8561,0.8695,0.8695,0.8695,0.8695,-2.0801,-2.0908,-2.0908,-2.0908,-2.0684,-2.0508,-2.0508,-1.9726,-1.9088,-1.8927,-1.7135,-1.5564,-1.4706,-1.4651,0.0,-1.2128,-1.181,-1.1577,-1.1283,-1.1162,-1.0889,-1.0414,-1.0211,-0.9806,-0.9224,0.0,0.0,-0.8804,-0.8681,-0.8266,-0.7599,-0.7128,-0.6663,-0.6172,-0.5706,-0.5351,-0.5109,-0.468,-0.4491,-0.4491,-0.4491,-0.4491,-0.446,-0.4153,-0.3763,-0.3289,-0.2732,-0.1925,-0.1062,-0.0783,-0.0392,0.0,0.0,0.0,0.0,0.0,0.0,0.0056,0.0336,0.0755,0.1229,0.1814,0.2649,0.339,0.3651,0.4053,0.4382,0.4382,0.4382,0.4399,0.4481,0.5058,0.5733,0.6475,0.7208,0.7933,0.8553,0.0,0.0,0.0,0.0,0.0,0.0,0.781,0.0,0.0,0.0,0.0,0.0,0.0,0.0,1.0467,0.964,0.0,0.9757,0.9132,0.8936,0.9185,0.9439,0.9762,1.0192,1.0618,1.0772,1.0692,1.0501,1.0337,1.019,0.9548,0.9418,0.9555,0.9165,0.9119,0.9299,0.9299,0.9299,0.9299,-1.9277,-1.9287,0.0,0.0,-1.9251,0.0,-1.9214,-1.8368,-1.7568,-1.7117,-1.6015,-1.4703,-1.3369,-1.2957,-1.2352,-1.1404,0.0,0.0,0.0,-1.068,-1.0399,-1.0037,-0.9504,-0.9204,-0.9184,-0.8918,-0.8778,-0.8725,-0.7937,-0.7208,-0.6529,-0.648,-0.6091,-0.5433,-0.5433,-0.5081,-0.4491,-0.4491,-0.4491,-0.4491,-0.4491,-0.4491,-0.4405,-0.3594,-0.3259,-0.3037,-0.1619,-0.1062,-0.0923,-0.0224,0.0,0.0,0.0,0.0028,0.0084,0.0084,0.0084,0.0224,0.0978,0.1202,0.1591,0.3037,0.3428,0.3594,0.4095,0.4197,0.419,0.418,0.418,0.4247,0.4433,0.5058,0.5797,0.6482,0.7234,0.7913,0.8361,0.0,0.0,0.0,0.0,0.0,0.0,0.8694,0.9078,0.0,0.0,0.0,0.0,0.0,1.0194,1.0357,0.9694,0.9342,0.9342,0.9079,0.9263,0.9891,1.0542,1.0864,1.0864,1.0922,1.1077,1.1282,1.0798,1.0725,1.0871,0.987,0.9761,1.0161,0.9721,0.9863,1.0303,1.0303,1.0303,1.0303,0.0,0.0,-1.9287,-1.9287,-1.8728,-1.823,-1.823,-1.6963,-1.5968,-1.5838,-1.4466,-1.3284,-1.2681,-1.1926,-1.1177,-1.0468,-1.0635,-1.0579,-1.0027,-0.9956,-0.976,-0.9431,-0.9284,-0.9111,-0.8891,-0.8844,-0.854,-0.7969,-0.6654,-0.5923,-0.576,-0.5222,-0.4897,-0.4732,-0.4732,-0.4653,-0.4491,-0.4491,-0.4491,-0.4491,-0.4491,-0.4491,-0.4405,-0.3594,-0.2954,-0.2343,-0.1424,-0.0727,-0.0224,-0.0056,0.0,0.0,0.0,0.0392,0.0838,0.0838,0.0838,0.1006,0.173,0.2343,0.2871,0.3289,0.3818,0.4231,0.4201,0.4197,0.4164,0.4072,0.4048,0.4058,0.4117,0.5242,0.625,0.6411,0.7455,0.8345,0.8658,0.7809,0.0,0.0,0.7937,0.7844,0.8517,0.8771,0.8944,0.0,0.0,0.0,0.0,1.0699,1.0726,1.1062,1.0885,1.0805,1.0805,1.0493,1.0415,1.0559,1.1241,1.1566,1.1591,1.2147,1.2438,1.2498,1.2368,1.2335,1.2334,1.143,1.1137,1.1178,1.0406,1.0186,1.0303,1.0303,1.0303,1.0303,-1.7476,-1.725,-1.7007,-1.7007,-1.6579,-1.6263,-1.6263,-1.5106,-1.4263,-1.4263,-1.2957,-1.1961,-1.1782,-1.107,-1.0408,-0.996,-1.0187,-1.0107,-0.9519,-0.9479,-0.9177,-0.8555,-0.8515,-0.8277,-0.7809,-0.7803,-0.7423,-0.6686,-0.5896,-0.5351,-0.503,-0.468,-0.4491,-0.4491,-0.4491,-0.4491,-0.4491,-0.4491,-0.4491,-0.4491,-0.4491,-0.4294,-0.3873,-0.3093,-0.2343,-0.1591,-0.0866,-0.0336,0.0,0.0,0.0,0.0056,0.0392,0.0783,0.1229,0.1898,0.187,0.1758,0.2538,0.3037,0.3428,0.3818,0.4211,0.4433,0.4166,0.4425,0.4643,0.4373,0.4738,0.5073,0.5018,0.6098,0.6947,0.6843,0.7801,0.853,0.8398,0.7871,0.0,0.8527,0.8081,0.8123,0.9159,0.8982,0.9123,0.9882,0.0,0.0,1.1447,1.1318,1.1308,1.1524,1.1381,1.1231,1.1066,1.1192,1.1266,1.1266,1.1981,1.2295,1.232,1.2725,1.2905,1.2905,1.2905,1.2905,1.2856,1.2171,1.177,1.1538,1.0851,1.0449,1.0303,1.0303,1.0303,1.0322,-1.5312,-1.477,-1.4312,-1.4312,-1.418,-1.409,-1.409,-1.3255,-1.2606,-1.2606,-1.1633,-1.0929,-1.0929,-1.0441,-1.0,-0.9706,-0.9866,-0.9724,-0.9184,-0.9144,-0.8698,-0.7735,-0.7696,-0.7343,-0.6615,-0.648,-0.6118,-0.5515,-0.5406,-0.5054,-0.4491,-0.4491,-0.4491,-0.4491,-0.4491,-0.4491,-0.4491,-0.4491,-0.4491,-0.4491,-0.4377,-0.3929,-0.3231,-0.2371,-0.1647,-0.1006,-0.0252,0.0,0.0,0.0,0.0,0.014,0.0866,0.1174,0.1535,0.2899,0.2954,0.2704,0.3372,0.3566,0.3707,0.4349,0.4491,0.4412,0.4087,0.4643,0.5136,0.479,0.5576,0.6288,0.6213,0.701,0.7606,0.743,0.8158,0.8597,0.8159,0.0,0.7973,0.8413,0.8196,0.8481,0.9684,0.9387,0.9562,1.0712,1.0261,1.0491,0.0,1.1789,1.1839,1.1972,1.1696,1.1395,1.1124,1.1674,1.1972,1.1972,1.2608,1.2905,1.2905,1.2905,1.2905,1.2905,1.2905,1.2905,1.2866,1.2389,1.1963,1.1535,1.1084,1.0654,1.0312,1.0469,1.0488,1.0496,-1.4408,-1.4378,-1.4312,-1.4312,-1.3627,-1.3109,-1.3109,-1.2078,-1.1287,-1.1287,-1.0938,-1.066,-1.066,-1.0321,-1.0,-0.9706,-0.9464,-0.9204,-0.8871,-0.8851,-0.8526,-0.7723,-0.7696,-0.7343,-0.6615,-0.5982,-0.5624,-0.5515,-0.4921,-0.4598,-0.4491,-0.4491,-0.4491,-0.4491,-0.4491,-0.4491,-0.4491,-0.4491,-0.4491,-0.4432,-0.3763,-0.3456,-0.3231,-0.1814,-0.1202,-0.1006,-0.0252,0.0,0.0,0.0,0.0,0.014,0.0866,0.1535,0.2202,0.3037,0.3707,0.4181,0.4294,0.4322,0.4349,0.446,0.4491,0.4412,0.4087,0.4506,0.4935,0.4873,0.5362,0.5887,0.615,0.6932,0.7602,0.7787,0.8171,0.8577,0.8958,0.0,0.8408,0.8691,0.9176,0.9555,0.9788,1.0218,1.0593,1.0788,1.0686,1.099,1.1765,1.1789,1.208,1.2715,1.2685,1.2635,1.2569,1.2666,1.2715,1.2715,1.2856,1.2905,1.2905,1.2905,1.2905,1.2905,1.2905,1.2905,1.2866,1.2389,1.1963,1.1535,1.1084,1.0654,1.04,1.1243,1.1277,1.1033,-1.264,-1.2482,-1.23,-1.23,-1.1959,-1.1674,-1.1674,-1.0996,-1.0521,-1.0521,-1.0267,-1.0117,-1.0117,-0.982,-0.9564,-0.9431,-0.9151,-0.8924,-0.8818,-0.8804,-0.8295,-0.7155,-0.7101,-0.6583,-0.55,-0.514,-0.4948,-0.4948,-0.4653,-0.4491,-0.4491,-0.4491,-0.4491,-0.4491,-0.4491,-0.4491,-0.446,-0.407,-0.3901,-0.3846,-0.3037,-0.2482,-0.2091,-0.1369,-0.0866,-0.0476,-0.0112,0.0,0.0,0.0,0.0252,0.0727,0.1452,0.2202,0.2954,0.3707,0.4208,0.4491,0.4491,0.4491,0.4491,0.4491,0.4759,0.4965,0.475,0.5584,0.6334,0.6129,0.6765,0.7375,0.7382,0.7835,0.8197,0.8178,0.8429,0.0,0.0,0.9226,0.9325,0.9825,1.0141,1.0491,1.0838,1.0838,1.1099,1.1866,1.155,1.1649,1.2344,1.2393,1.2559,1.2881,1.2905,1.2905,1.2905,1.2905,1.2905,1.2905,1.2905,1.2905,1.2905,1.2905,1.2905,1.2905,1.2905,1.2905,1.291,1.3017,1.2627,1.1999,1.21,1.1728,1.1195,1.1945,1.2075,1.2012,-1.0931,-1.07,-1.0466,-1.0399,-1.0445,-1.0466,-1.0399,-1.016,-1.0013,-1.0013,-0.982,-0.9715,-0.9715,-0.9391,-0.9211,-0.9211,-0.8944,-0.8804,-0.8804,-0.8646,-0.7969,-0.6669,-0.6285,-0.5609,-0.4515,-0.4491,-0.4491,-0.4491,-0.4491,-0.4491,-0.4491,-0.4491,-0.4491,-0.4491,-0.4491,-0.4405,-0.4181,-0.3624,-0.3289,-0.3037,-0.2259,-0.1619,-0.109,-0.0923,-0.0504,0.0,0.0,0.0,0.0028,0.0196,0.0643,0.1257,0.2174,0.2871,0.3456,0.4267,0.4491,0.4484,0.445,0.444,0.4467,0.4654,0.5081,0.5472,0.554,0.6623,0.7524,0.7247,0.7999,0.8657,0.8529,0.8657,0.8758,0.8604,0.0,0.0,0.0,0.9855,1.0218,1.0737,1.0939,1.1241,1.1765,1.15,1.1742,1.2822,1.2369,1.2295,1.2881,1.2905,1.2905,1.2905,1.2905,1.2905,1.2905,1.2905,1.2905,1.2905,1.2905,1.2905,1.2905,1.2905,1.2905,1.2905,1.3065,1.3104,1.3152,1.3755,1.349,1.2765,1.3231,1.2892,1.2253,1.2914,1.3068,1.3092,-0.9829,-0.9976,-1.006,-0.9793,-0.9967,-1.006,-0.9816,-0.9733,-0.9713,-0.9713,-0.9699,-0.9715,-0.9715,-0.9391,-0.9211,-0.9211,-0.8944,-0.8804,-0.8804,-0.8156,-0.7423,-0.6642,-0.5363,-0.4598,-0.4491,-0.4491,-0.4491,-0.4491,-0.4491,-0.4491,-0.4491,-0.4491,-0.4491,-0.4491,-0.4491,-0.4098,-0.3398,-0.34,-0.2982,-0.2232,-0.148,-0.1146,-0.1034,-0.0336,-0.0056,0.0,0.0,0.0,0.0112,0.0783,0.1062,0.1369,0.2843,0.3314,0.3456,0.4267,0.4491,0.446,0.4274,0.421,0.4391,0.5066,0.5271,0.5501,0.6154,0.6837,0.7359,0.7438,0.798,0.8509,0.8731,0.8791,0.8884,0.9111,0.0,0.0,1.0202,1.0535,1.0737,1.0788,1.1341,1.174,1.1789,1.2378,1.2774,1.2881,1.2856,1.2847,1.2905,1.2905,1.2905,1.2905,1.2905,1.2905,1.2905,1.2905,1.2905,1.2905,1.2905,1.2905,1.2905,1.2905,1.2905,1.2929,1.3481,1.3732,1.3779,1.4376,1.4373,1.3979,1.4023,1.3738,1.3422,1.4435,1.448,1.4142,-0.9384,-0.9646,-0.9813,-0.9729,-0.9773,-0.9813,-0.9699,-0.9526,-0.9384,-0.9384,-0.9252,-0.9138,-0.9138,-0.9038,-0.8944,-0.8944,-0.8871,-0.8804,-0.8804,-0.8103,-0.7176,-0.5982,-0.5007,-0.4491,-0.4491,-0.4491,-0.4491,-0.4491,-0.4491,-0.4491,-0.4491,-0.4491,-0.4491,-0.4491,-0.4015,-0.3652,-0.3289,-0.2371,-0.1786,-0.1452,-0.0727,-0.042,-0.0392,-0.0112,0.0,0.0,0.0,0.0,0.0112,0.0838,0.1396,0.1952,0.301,0.3649,0.4098,0.4405,0.4491,0.4457,0.426,0.46,0.5069,0.536,0.6108,0.6855,0.715,0.7733,0.8242,0.8294,0.8482,0.8677,0.8784,0.8804,0.897,0.9491,0.0,1.0136,1.1106,1.1327,1.16,1.2049,1.2329,1.2476,1.2476,1.2749,1.2905,1.2905,1.3238,1.3286,1.2929,1.2905,1.2905,1.2905,1.2905,1.2905,1.2905,1.2905,1.3079,1.3467,1.3467,1.3467,1.3467,1.3836,1.3813,1.3481,1.4107,1.4352,1.4399,1.5005,1.4962,1.4574,1.4956,1.4776,1.4424,1.5176,1.5299,1.5187,-0.9078,-0.9311,-0.9455,-0.913,-0.9166,-0.9192,-0.9073,-0.867,-0.8462,-0.8715,-0.8381,-0.8103,-0.8103,-0.8103,-0.8103,-0.8103,-0.8103,-0.8103,-0.8103,-0.7423,-0.6546,-0.5542,-0.4866,-0.4491,-0.4491,-0.4491,-0.4377,-0.4153,-0.4153,-0.4015,-0.379,-0.379,-0.379,-0.3763,-0.3262,-0.2899,-0.2621,-0.1535,-0.0978,-0.0699,-0.0196,0.0,0.0,0.0,0.0,0.0,0.0,0.014,0.0448,0.1202,0.1924,0.2676,0.3428,0.407,0.4491,0.4491,0.4491,0.4467,0.4341,0.5054,0.5828,0.5793,0.6712,0.7702,0.7972,0.8427,0.8804,0.8804,0.8804,0.8804,0.8804,0.8982,0.9263,0.9718,1.0141,1.0745,1.1665,1.1996,1.232,1.2847,1.2905,1.2905,1.2905,1.2905,1.2905,1.2905,1.3467,1.3695,1.3478,1.3286,1.3262,1.3454,1.3286,1.3262,1.3454,1.3089,1.319,1.3792,1.3792,1.3909,1.4097,1.4514,1.4468,1.412,1.471,1.4994,1.5039,1.5644,1.5671,1.5378,1.5778,1.5718,1.5449,1.5819,1.5957,1.5982,-0.8778,-0.8984,-0.8864,-0.7878,-0.7962,-0.8078,-0.7732,-0.7074,-0.6858,-0.7589,-0.7047,-0.6588,-0.6588,-0.6588,-0.6588,-0.6588,-0.6588,-0.6588,-0.6588,-0.59,-0.5487,-0.5483,-0.4866,-0.4491,-0.4491,-0.4491,-0.4125,-0.34,-0.34,-0.2982,-0.2202,-0.2202,-0.2202,-0.2202,-0.2202,-0.1786,-0.109,-0.109,-0.0671,0.0,0.0,0.0,0.0,0.0,0.0,0.0,0.0,0.0476,0.1201,0.1952,0.2702,0.3425,0.4236,0.4491,0.4491,0.4491,0.4491,0.4491,0.4519,0.5523,0.656,0.6442,0.6948,0.7738,0.8606,0.8804,0.8804,0.8804,0.8804,0.8804,0.8811,0.9361,0.9814,0.9814,1.0939,1.1789,1.1814,1.2452,1.2905,1.2905,1.2905,1.2905,1.2905,1.2905,1.2905,1.2905,1.3467,1.4073,1.4675,1.412,1.4073,1.4675,1.412,1.4097,1.4698,1.3501,1.3214,1.3815,1.3815,1.412,1.4698,1.4698,1.4698,1.4744,1.5343,1.561,1.5654,1.6259,1.65,1.65,1.65,1.65,1.65,1.6488,1.6488,1.6412,-0.7262,-0.7317,-0.7291,-0.6977,-0.7025,-0.7046,-0.695,-0.675,-0.6669,-0.6885,-0.675,-0.6588,-0.6588,-0.6588,-0.6588,-0.6588,-0.6588,-0.6367,-0.5869,-0.5624,-0.5217,-0.4604,-0.4542,-0.4491,-0.4491,-0.3959,-0.3566,-0.34,-0.2843,-0.2426,-0.2202,-0.2202,-0.2202,-0.2174,-0.1647,-0.1312,-0.1062,-0.056,-0.0196,0.0,0.0,0.0,0.0,0.0,0.0,0.0,0.0,0.0417,0.1097,0.1922,0.2636,0.3326,0.4207,0.4491,0.4491,0.4491,0.4491,0.4598,0.5085,0.5878,0.66,0.6556,0.7468,0.8482,0.8732,0.8804,0.8804,0.8804,0.8804,0.8936,0.9413,0.9666,1.0115,1.104,1.1541,1.1972,1.251,1.2774,1.2905,1.2905,1.2905,1.3065,1.3481,1.3529,1.3718,1.4131,1.434,1.4687,1.5298,1.4755,1.4514,1.4698,1.4525,1.4514,1.4698,1.434,1.4468,1.5062,1.5062,1.5152,1.5343,1.5766,1.5732,1.5365,1.5964,1.6238,1.6238,1.6423,1.65,1.65,1.65,1.65,1.645,1.6082,1.5944,1.5897,-0.6588,-0.6588,-0.6507,-0.6231,-0.6172,-0.6172,-0.6172,-0.5932,-0.585,-0.6118,-0.5932,-0.5773,-0.5773,-0.5773,-0.5773,-0.5773,-0.5773,-0.5548,-0.5015,-0.4762,-0.4398,-0.3875,-0.3685,-0.3699,-0.3939,-0.3477,-0.2988,-0.2492,-0.201,-0.1604,-0.1343,-0.1334,-0.1331,-0.1315,-0.0856,-0.0666,-0.0631,-0.0195,0.0,0.0,0.0,0.0,0.0,0.0,0.0,0.0026,0.028,0.0782,0.1439,0.2216,0.2906,0.3554,0.4197,0.4379,0.4443,0.4796,0.4893,0.5058,0.5737,0.647,0.7047,0.7047,0.791,0.8804,0.8804,0.8804,0.8804,0.8804,0.9008,0.9309,0.9718,1.0236,1.0864,1.1665,1.2055,1.2403,1.2847,1.2905,1.2905,1.2905,1.2905,1.3128,1.3732,1.3792,1.4143,1.4983,1.505,1.5332,1.5908,1.5365,1.5175,1.5399,1.5175,1.5175,1.5411,1.5411,1.5488,1.561,1.561,1.5732,1.5974,1.6324,1.6303,1.5986,1.6337,1.65,1.65,1.65,1.65,1.6522,1.6731,1.6816,1.6786,1.6686,1.6473,1.6219,-0.6421,-0.6421,-0.6204,-0.5515,-0.5406,-0.5406,-0.5406,-0.4893,-0.4732,-0.5324,-0.4869,-0.4491,-0.4491,-0.4481,-0.447,-0.447,-0.4402,-0.4284,-0.4026,-0.3507,-0.3208,-0.3172,-0.2545,-0.2399,-0.2886,-0.2927,-0.2315,-0.1109,-0.1041,-0.0651,0.0,0.0,0.0,0.0,0.0,0.0,0.0,0.0,0.0,0.0,0.0,0.0027,0.008,0.0076,0.0126,0.0226,0.0775,0.1446,0.2167,0.277,0.3431,0.4018,0.413,0.4236,0.4455,0.5255,0.5529,0.576,0.6502,0.7182,0.7723,0.7777,0.8295,0.8804,0.8883,0.8883,0.891,0.8962,0.9465,0.9917,0.9969,1.099,1.1814,1.1898,1.2452,1.2905,1.2905,1.2905,1.2905,1.2905,1.2905,1.3128,1.3732,1.3909,1.4434,1.5588,1.5676,1.5908,1.6466,1.5986,1.593,1.6466,1.5964,1.593,1.6488,1.65,1.6216,1.5676,1.5676,1.5974,1.65,1.65,1.65,1.65,1.65,1.65,1.65,1.6552,1.6573,1.6616,1.7146,1.7374,1.7422,1.7859,1.7598,1.6954,-0.4952,-0.4952,-0.4897,-0.4732,-0.4704,-0.4704,-0.4704,-0.4598,-0.4543,-0.4704,-0.4598,-0.4491,-0.4491,-0.4362,-0.4267,-0.4267,-0.3738,-0.3182,-0.2674,-0.252,-0.2384,-0.2289,-0.2125,-0.1825,-0.1378,-0.1478,-0.1397,-0.1109,-0.0509,-0.0153,0.0,0.0,0.0,0.0,0.0,0.0,0.0,0.0,0.0,0.0,0.0,0.0293,0.0714,0.0692,0.0988,0.1437,0.1555,0.2016,0.2647,0.3372,0.3775,0.4001,0.4035,0.4503,0.5106,0.5296,0.5837,0.6529,0.7262,0.7589,0.783,0.8427,0.8672,0.8929,0.9465,0.9588,0.9736,1.0261,1.0491,1.0737,1.1266,1.1591,1.1996,1.2559,1.2798,1.2905,1.2905,1.2905,1.2905,1.2905,1.2905,1.3128,1.3732,1.4653,1.5521,1.6238,1.6303,1.6358,1.6488,1.638,1.6358,1.65,1.638,1.638,1.65,1.65,1.6423,1.6303,1.6303,1.638,1.65,1.65,1.65,1.65,1.65,1.65,1.6543,1.6951,1.7126,1.7167,1.7727,1.7927,1.7892,1.7586,1.7052,1.637,-0.4491,-0.4491,-0.4491,-0.4491,-0.4491,-0.4377,-0.4042,-0.3987,-0.3846,-0.3456,-0.34,-0.3407,-0.3406,-0.3321,-0.3216,-0.3159,-0.2843,-0.2521,-0.2132,-0.1837,-0.1652,-0.1571,-0.1237,-0.087,-0.0471,-0.0538,-0.0574,-0.0574,-0.0195,0.0,0.0,0.0,0.0,0.0,0.0,0.0,0.0025,0.0315,0.0427,0.0452,0.0743,0.1059,0.1329,0.1324,0.1523,0.1838,0.2136,0.2608,0.3179,0.3572,0.3744,0.3904,0.4364,0.484,0.5357,0.6196,0.6759,0.7289,0.8023,0.8235,0.8395,0.9106,0.9283,0.9361,0.971,0.9788,0.9987,1.0661,1.104,1.1391,1.174,1.208,1.2452,1.2847,1.2905,1.2992,1.3286,1.3079,1.3017,1.331,1.3334,1.3671,1.4561,1.5499,1.6173,1.6479,1.65,1.65,1.65,1.65,1.65,1.65,1.65,1.6616,1.6879,1.6879,1.7013,1.725,1.6993,1.6879,1.69,1.7146,1.7105,1.6888,1.7146,1.725,1.7291,1.7565,1.7686,1.7727,1.8283,1.8477,1.8473,1.8444,1.8018,1.7375,-0.431,-0.42,-0.4118,-0.4118,-0.411,-0.3932,-0.3456,-0.3289,-0.301,-0.2454,-0.2286,-0.2203,-0.2206,-0.2174,-0.2078,-0.1844,-0.1915,-0.1875,-0.1673,-0.1201,-0.0919,-0.0919,-0.032,0.0,0.0,0.0,0.0,0.0,0.0,0.0,0.0,0.0,0.0,0.0,0.0,0.0049,0.0191,0.0695,0.0957,0.1105,0.1592,0.1874,0.196,0.1948,0.2008,0.2164,0.2674,0.317,0.3607,0.3631,0.3727,0.3976,0.4843,0.5285,0.5798,0.7237,0.7768,0.8023,0.8646,0.8883,0.9113,0.9666,0.9891,0.9987,1.0115,1.0141,1.0346,1.1023,1.16,1.1996,1.1996,1.2476,1.2905,1.2905,1.2992,1.3238,1.3732,1.3467,1.3406,1.3886,1.3956,1.4421,1.5617,1.6113,1.6439,1.6638,1.655,1.65,1.65,1.65,1.65,1.65,1.6595,1.6858,1.7312,1.7394,1.7706,1.8243,1.7787,1.7524,1.7442,1.7907,1.7867,1.7463,1.7907,1.8106,1.8125,1.8204,1.8243,1.8302,1.8836,1.908,1.9181,1.9522,1.9364,1.8918,-0.3544,-0.2985,-0.2505,-0.2505,-0.2514,-0.2704,-0.3231,-0.276,-0.2565,-0.3093,-0.2591,-0.2203,-0.2206,-0.2105,-0.1753,-0.1109,-0.1066,-0.084,-0.0317,-0.0204,-0.0159,-0.0159,-0.0045,0.0,0.0,0.0,0.0,0.0,0.0,0.0,0.0,0.0,0.0,0.0,0.0,0.0288,0.0787,0.0869,0.1209,0.168,0.176,0.2111,0.2572,0.258,0.2898,0.3376,0.3442,0.3534,0.3621,0.3744,0.4199,0.476,0.5022,0.6052,0.7213,0.7467,0.8048,0.8672,0.8778,0.9211,0.9692,0.9788,1.0244,1.0813,1.1391,1.1541,1.1749,1.2461,1.27,1.274,1.274,1.2822,1.2905,1.2905,1.3334,1.3708,1.3802,1.4177,1.4502,1.456,1.4583,1.5016,1.6172,1.5951,1.6159,1.7202,1.6798,1.65,1.65,1.65,1.65,1.65,1.6951,1.7229,1.7312,1.7767,1.8263,1.8798,1.8708,1.8438,1.7987,1.8066,1.8066,1.8007,1.8066,1.8106,1.8145,1.8593,1.8798,1.8855,1.9387,1.9806,2.0066,1.9612,1.9704,1.992,-0.2815,-0.2457,-0.2197,-0.2197,-0.2208,-0.2174,-0.2091,-0.1786,-0.1563,-0.148,-0.1181,-0.0972,-0.0984,-0.0921,-0.075,-0.0427,-0.0404,-0.0292,-0.0022,0.0,0.0,0.0,0.0,0.0,0.0,0.0,0.0157,0.0493,0.0157,0.0,0.0,0.0337,0.0493,0.0516,0.0844,0.1149,0.1426,0.1754,0.2049,0.2326,0.2679,0.2961,0.3206,0.3194,0.3376,0.3604,0.3604,0.3604,0.3691,0.4222,0.4644,0.5087,0.6115,0.6929,0.7588,0.8088,0.8489,0.8883,0.9263,0.9588,0.9987,1.0737,1.1141,1.1541,1.2236,1.2403,1.2501,1.2822,1.2905,1.2905,1.2905,1.2905,1.2905,1.2905,1.3396,1.3909,1.426,1.4537,1.4835,1.5163,1.5208,1.5526,1.6359,1.6242,1.6451,1.7338,1.6848,1.666,1.6986,1.6685,1.6637,1.693,1.7167,1.7585,1.8204,1.8438,1.8817,1.935,1.935,1.9062,1.8554,1.8855,1.8836,1.8554,1.8855,1.8987,1.9006,1.9244,1.9485,1.9722,1.9949,2.0296,2.0651,2.0399,2.0462,2.0636]}]]